<?xml version="1.0" encoding="UTF-8" standalone="no" ?>
<gpx xmlns="http://www.topografix.com/GPX/1/1" xmlns:xsi="http://www.w3.org/2001/XMLSchema-instance" xsi:schemaLocation="http://www.topografix.com/GPX/1/1 http://www.topografix.com/GPX/1/1/gpx.xsd" version="1.1" creator="VisuGPX - https://www.visugpx.com">
  <metadata>
    <name>La rando d\\\'adieu de David</name>
    <desc><![CDATA[Rando VTT du 09/07/2015]]></desc>
  </metadata>
  <trk>
    <name><![CDATA[La rando d\\\'adieu de David_1]]></name>
    <trkseg>
      <trkpt lat="49.0023" lon="1.13047">
        <ele>130.490067</ele>
        <time>2015-07-09T16:09:34Z</time>
      </trkpt>
      <trkpt lat="49.0023" lon="1.13051">
        <ele>130.490067</ele>
        <time>2015-07-09T16:09:35Z</time>
      </trkpt>
      <trkpt lat="49.00238" lon="1.13059">
        <ele>131.927139</ele>
        <time>2015-07-09T16:09:39Z</time>
      </trkpt>
      <trkpt lat="49.00249" lon="1.13056">
        <ele>133.037231</ele>
        <time>2015-07-09T16:09:43Z</time>
      </trkpt>
      <trkpt lat="49.0026" lon="1.13054">
        <ele>133.690598</ele>
        <time>2015-07-09T16:09:46Z</time>
      </trkpt>
      <trkpt lat="49.00271" lon="1.13055">
        <ele>134.224396</ele>
        <time>2015-07-09T16:09:49Z</time>
      </trkpt>
      <trkpt lat="49.00283" lon="1.1306">
        <ele>134.582809</ele>
        <time>2015-07-09T16:09:52Z</time>
      </trkpt>
      <trkpt lat="49.00293" lon="1.13052">
        <ele>134.897308</ele>
        <time>2015-07-09T16:09:57Z</time>
      </trkpt>
      <trkpt lat="49.003" lon="1.1304">
        <ele>135.036636</ele>
        <time>2015-07-09T16:10:02Z</time>
      </trkpt>
      <trkpt lat="49.00308" lon="1.13032">
        <ele>134.886871</ele>
        <time>2015-07-09T16:10:09Z</time>
      </trkpt>
      <trkpt lat="49.00314" lon="1.13022">
        <ele>134.415298</ele>
        <time>2015-07-09T16:10:21Z</time>
      </trkpt>
      <trkpt lat="49.00324" lon="1.13012">
        <ele>134.2</ele>
        <time>2015-07-09T16:10:26Z</time>
      </trkpt>
      <trkpt lat="49.00334" lon="1.13004">
        <ele>133.9</ele>
        <time>2015-07-09T16:10:30Z</time>
      </trkpt>
      <trkpt lat="49.00342" lon="1.12996">
        <ele>133.6</ele>
        <time>2015-07-09T16:10:33Z</time>
      </trkpt>
      <trkpt lat="49.00353" lon="1.1299">
        <ele>133.3</ele>
        <time>2015-07-09T16:10:37Z</time>
      </trkpt>
      <trkpt lat="49.00363" lon="1.12984">
        <ele>132.9</ele>
        <time>2015-07-09T16:10:41Z</time>
      </trkpt>
      <trkpt lat="49.0037" lon="1.12974">
        <ele>132.5</ele>
        <time>2015-07-09T16:10:45Z</time>
      </trkpt>
      <trkpt lat="49.00376" lon="1.12961">
        <ele>132.1</ele>
        <time>2015-07-09T16:10:50Z</time>
      </trkpt>
      <trkpt lat="49.00379" lon="1.12947">
        <ele>131.9</ele>
        <time>2015-07-09T16:10:53Z</time>
      </trkpt>
      <trkpt lat="49.00381" lon="1.12933">
        <ele>131.6</ele>
        <time>2015-07-09T16:10:57Z</time>
      </trkpt>
      <trkpt lat="49.00384" lon="1.12919">
        <ele>131.5</ele>
        <time>2015-07-09T16:11:00Z</time>
      </trkpt>
      <trkpt lat="49.0039" lon="1.12903">
        <ele>131.3</ele>
        <time>2015-07-09T16:11:04Z</time>
      </trkpt>
      <trkpt lat="49.00391" lon="1.12886">
        <ele>131.2</ele>
        <time>2015-07-09T16:11:07Z</time>
      </trkpt>
      <trkpt lat="49.00392" lon="1.12873">
        <ele>131.1</ele>
        <time>2015-07-09T16:11:10Z</time>
      </trkpt>
      <trkpt lat="49.00391" lon="1.12857">
        <ele>131</ele>
        <time>2015-07-09T16:11:12Z</time>
      </trkpt>
      <trkpt lat="49.00395" lon="1.12843">
        <ele>130.9</ele>
        <time>2015-07-09T16:11:15Z</time>
      </trkpt>
      <trkpt lat="49.00398" lon="1.12829">
        <ele>130.8</ele>
        <time>2015-07-09T16:11:18Z</time>
      </trkpt>
      <trkpt lat="49.004" lon="1.12812">
        <ele>130.8</ele>
        <time>2015-07-09T16:11:21Z</time>
      </trkpt>
      <trkpt lat="49.00404" lon="1.12796">
        <ele>130.7</ele>
        <time>2015-07-09T16:11:24Z</time>
      </trkpt>
      <trkpt lat="49.00406" lon="1.12779">
        <ele>130.7</ele>
        <time>2015-07-09T16:11:27Z</time>
      </trkpt>
      <trkpt lat="49.00409" lon="1.12761">
        <ele>130.6</ele>
        <time>2015-07-09T16:11:30Z</time>
      </trkpt>
      <trkpt lat="49.0041" lon="1.12745">
        <ele>130.6</ele>
        <time>2015-07-09T16:11:32Z</time>
      </trkpt>
      <trkpt lat="49.00412" lon="1.12726">
        <ele>130.6</ele>
        <time>2015-07-09T16:11:35Z</time>
      </trkpt>
      <trkpt lat="49.00413" lon="1.1271">
        <ele>130.6</ele>
        <time>2015-07-09T16:11:37Z</time>
      </trkpt>
      <trkpt lat="49.00414" lon="1.12691">
        <ele>130.6</ele>
        <time>2015-07-09T16:11:40Z</time>
      </trkpt>
      <trkpt lat="49.00416" lon="1.12673">
        <ele>130.5</ele>
        <time>2015-07-09T16:11:43Z</time>
      </trkpt>
      <trkpt lat="49.00423" lon="1.12661">
        <ele>130.6</ele>
        <time>2015-07-09T16:11:47Z</time>
      </trkpt>
      <trkpt lat="49.00433" lon="1.12655">
        <ele>130.6</ele>
        <time>2015-07-09T16:11:51Z</time>
      </trkpt>
      <trkpt lat="49.00442" lon="1.12648">
        <ele>130.6</ele>
        <time>2015-07-09T16:11:54Z</time>
      </trkpt>
      <trkpt lat="49.00451" lon="1.1264">
        <ele>130.7</ele>
        <time>2015-07-09T16:11:57Z</time>
      </trkpt>
      <trkpt lat="49.0046" lon="1.12631">
        <ele>130.9</ele>
        <time>2015-07-09T16:12:00Z</time>
      </trkpt>
      <trkpt lat="49.0047" lon="1.12625">
        <ele>131.1</ele>
        <time>2015-07-09T16:12:03Z</time>
      </trkpt>
      <trkpt lat="49.00481" lon="1.12626">
        <ele>131.3</ele>
        <time>2015-07-09T16:12:07Z</time>
      </trkpt>
      <trkpt lat="49.0049" lon="1.12626">
        <ele>131.4</ele>
        <time>2015-07-09T16:12:10Z</time>
      </trkpt>
      <trkpt lat="49.005" lon="1.12632">
        <ele>131.5</ele>
        <time>2015-07-09T16:12:14Z</time>
      </trkpt>
      <trkpt lat="49.0051" lon="1.12637">
        <ele>131.6</ele>
        <time>2015-07-09T16:12:17Z</time>
      </trkpt>
      <trkpt lat="49.0052" lon="1.12642">
        <ele>131.6</ele>
        <time>2015-07-09T16:12:20Z</time>
      </trkpt>
      <trkpt lat="49.00531" lon="1.12646">
        <ele>131.6</ele>
        <time>2015-07-09T16:12:23Z</time>
      </trkpt>
      <trkpt lat="49.00541" lon="1.12649">
        <ele>131.5</ele>
        <time>2015-07-09T16:12:27Z</time>
      </trkpt>
      <trkpt lat="49.00552" lon="1.12653">
        <ele>131.5</ele>
        <time>2015-07-09T16:12:32Z</time>
      </trkpt>
      <trkpt lat="49.00561" lon="1.12662">
        <ele>131.4</ele>
        <time>2015-07-09T16:12:36Z</time>
      </trkpt>
      <trkpt lat="49.0057" lon="1.12658">
        <ele>131.4</ele>
        <time>2015-07-09T16:12:41Z</time>
      </trkpt>
      <trkpt lat="49.0058" lon="1.1265">
        <ele>131.4</ele>
        <time>2015-07-09T16:12:45Z</time>
      </trkpt>
      <trkpt lat="49.00588" lon="1.12639">
        <ele>131.4</ele>
        <time>2015-07-09T16:12:48Z</time>
      </trkpt>
      <trkpt lat="49.00593" lon="1.12625">
        <ele>131.3</ele>
        <time>2015-07-09T16:12:52Z</time>
      </trkpt>
      <trkpt lat="49.00602" lon="1.12614">
        <ele>131.3</ele>
        <time>2015-07-09T16:12:56Z</time>
      </trkpt>
      <trkpt lat="49.00607" lon="1.12602">
        <ele>131.3</ele>
        <time>2015-07-09T16:12:59Z</time>
      </trkpt>
      <trkpt lat="49.00613" lon="1.1259">
        <ele>131.3</ele>
        <time>2015-07-09T16:13:03Z</time>
      </trkpt>
      <trkpt lat="49.00616" lon="1.12577">
        <ele>131.3</ele>
        <time>2015-07-09T16:13:07Z</time>
      </trkpt>
      <trkpt lat="49.00614" lon="1.12562">
        <ele>131.3</ele>
        <time>2015-07-09T16:13:12Z</time>
      </trkpt>
      <trkpt lat="49.00609" lon="1.1255">
        <ele>131.3</ele>
        <time>2015-07-09T16:13:17Z</time>
      </trkpt>
      <trkpt lat="49.00606" lon="1.12534">
        <ele>131</ele>
        <time>2015-07-09T16:13:22Z</time>
      </trkpt>
      <trkpt lat="49.00605" lon="1.12519">
        <ele>130.8</ele>
        <time>2015-07-09T16:13:28Z</time>
      </trkpt>
      <trkpt lat="49.00607" lon="1.12506">
        <ele>130.6</ele>
        <time>2015-07-09T16:13:37Z</time>
      </trkpt>
      <trkpt lat="49.0061" lon="1.12489">
        <ele>130.5</ele>
        <time>2015-07-09T16:13:42Z</time>
      </trkpt>
      <trkpt lat="49.00611" lon="1.12475">
        <ele>130.5</ele>
        <time>2015-07-09T16:13:45Z</time>
      </trkpt>
      <trkpt lat="49.00614" lon="1.1246">
        <ele>130.5</ele>
        <time>2015-07-09T16:13:48Z</time>
      </trkpt>
      <trkpt lat="49.00615" lon="1.12442">
        <ele>130.5</ele>
        <time>2015-07-09T16:13:52Z</time>
      </trkpt>
      <trkpt lat="49.00615" lon="1.12427">
        <ele>130.4</ele>
        <time>2015-07-09T16:13:58Z</time>
      </trkpt>
      <trkpt lat="49.00613" lon="1.12409">
        <ele>130.4</ele>
        <time>2015-07-09T16:14:03Z</time>
      </trkpt>
      <trkpt lat="49.0061" lon="1.12396">
        <ele>130.4</ele>
        <time>2015-07-09T16:14:06Z</time>
      </trkpt>
      <trkpt lat="49.00607" lon="1.12378">
        <ele>130.4</ele>
        <time>2015-07-09T16:14:10Z</time>
      </trkpt>
      <trkpt lat="49.00604" lon="1.12364">
        <ele>130.4</ele>
        <time>2015-07-09T16:14:13Z</time>
      </trkpt>
      <trkpt lat="49.00601" lon="1.12348">
        <ele>130.4</ele>
        <time>2015-07-09T16:14:16Z</time>
      </trkpt>
      <trkpt lat="49.00598" lon="1.12332">
        <ele>130.4</ele>
        <time>2015-07-09T16:14:20Z</time>
      </trkpt>
      <trkpt lat="49.00593" lon="1.12317">
        <ele>130.4</ele>
        <time>2015-07-09T16:14:23Z</time>
      </trkpt>
      <trkpt lat="49.00587" lon="1.123">
        <ele>130.3</ele>
        <time>2015-07-09T16:14:26Z</time>
      </trkpt>
      <trkpt lat="49.0058" lon="1.12288">
        <ele>130.2</ele>
        <time>2015-07-09T16:14:29Z</time>
      </trkpt>
      <trkpt lat="49.00574" lon="1.12276">
        <ele>130</ele>
        <time>2015-07-09T16:14:31Z</time>
      </trkpt>
      <trkpt lat="49.00563" lon="1.12263">
        <ele>129.7</ele>
        <time>2015-07-09T16:14:34Z</time>
      </trkpt>
      <trkpt lat="49.00555" lon="1.12253">
        <ele>129.4</ele>
        <time>2015-07-09T16:14:37Z</time>
      </trkpt>
      <trkpt lat="49.00546" lon="1.1225">
        <ele>128.9</ele>
        <time>2015-07-09T16:14:42Z</time>
      </trkpt>
      <trkpt lat="49.00535" lon="1.12254">
        <ele>128.4</ele>
        <time>2015-07-09T16:14:47Z</time>
      </trkpt>
      <trkpt lat="49.00526" lon="1.12254">
        <ele>128.1</ele>
        <time>2015-07-09T16:14:50Z</time>
      </trkpt>
      <trkpt lat="49.00515" lon="1.12253">
        <ele>127.9</ele>
        <time>2015-07-09T16:14:53Z</time>
      </trkpt>
      <trkpt lat="49.00504" lon="1.12254">
        <ele>127.7</ele>
        <time>2015-07-09T16:14:56Z</time>
      </trkpt>
      <trkpt lat="49.00494" lon="1.12256">
        <ele>127.5</ele>
        <time>2015-07-09T16:14:59Z</time>
      </trkpt>
      <trkpt lat="49.00484" lon="1.12257">
        <ele>127.3</ele>
        <time>2015-07-09T16:15:02Z</time>
      </trkpt>
      <trkpt lat="49.00475" lon="1.12257">
        <ele>127</ele>
        <time>2015-07-09T16:15:05Z</time>
      </trkpt>
      <trkpt lat="49.00471" lon="1.12244">
        <ele>126.5</ele>
        <time>2015-07-09T16:15:11Z</time>
      </trkpt>
      <trkpt lat="49.00471" lon="1.12229">
        <ele>126.2</ele>
        <time>2015-07-09T16:15:17Z</time>
      </trkpt>
      <trkpt lat="49.00473" lon="1.12214">
        <ele>126.3</ele>
        <time>2015-07-09T16:15:24Z</time>
      </trkpt>
      <trkpt lat="49.00474" lon="1.122">
        <ele>126.5</ele>
        <time>2015-07-09T16:15:28Z</time>
      </trkpt>
      <trkpt lat="49.00474" lon="1.12182">
        <ele>126.7</ele>
        <time>2015-07-09T16:15:31Z</time>
      </trkpt>
      <trkpt lat="49.00474" lon="1.12168">
        <ele>126.9</ele>
        <time>2015-07-09T16:15:34Z</time>
      </trkpt>
      <trkpt lat="49.00476" lon="1.12153">
        <ele>127.1</ele>
        <time>2015-07-09T16:15:37Z</time>
      </trkpt>
      <trkpt lat="49.00477" lon="1.12136">
        <ele>127.2</ele>
        <time>2015-07-09T16:15:40Z</time>
      </trkpt>
      <trkpt lat="49.00478" lon="1.1212">
        <ele>127.4</ele>
        <time>2015-07-09T16:15:43Z</time>
      </trkpt>
      <trkpt lat="49.00478" lon="1.12104">
        <ele>127.5</ele>
        <time>2015-07-09T16:15:46Z</time>
      </trkpt>
      <trkpt lat="49.00476" lon="1.1209">
        <ele>127.9</ele>
        <time>2015-07-09T16:15:57Z</time>
      </trkpt>
      <trkpt lat="49.00477" lon="1.12075">
        <ele>128.1</ele>
        <time>2015-07-09T16:16:05Z</time>
      </trkpt>
      <trkpt lat="49.00478" lon="1.12061">
        <ele>128.2</ele>
        <time>2015-07-09T16:16:09Z</time>
      </trkpt>
      <trkpt lat="49.00479" lon="1.12047">
        <ele>128.2</ele>
        <time>2015-07-09T16:16:12Z</time>
      </trkpt>
      <trkpt lat="49.00471" lon="1.12038">
        <ele>128.3</ele>
        <time>2015-07-09T16:16:16Z</time>
      </trkpt>
      <trkpt lat="49.00462" lon="1.12038">
        <ele>128.4</ele>
        <time>2015-07-09T16:16:19Z</time>
      </trkpt>
      <trkpt lat="49.00452" lon="1.1204">
        <ele>128.4</ele>
        <time>2015-07-09T16:16:22Z</time>
      </trkpt>
      <trkpt lat="49.00441" lon="1.12047">
        <ele>128.5</ele>
        <time>2015-07-09T16:16:25Z</time>
      </trkpt>
      <trkpt lat="49.00429" lon="1.12054">
        <ele>128.5</ele>
        <time>2015-07-09T16:16:28Z</time>
      </trkpt>
      <trkpt lat="49.00416" lon="1.12062">
        <ele>128.4</ele>
        <time>2015-07-09T16:16:31Z</time>
      </trkpt>
      <trkpt lat="49.00404" lon="1.12064">
        <ele>128.2</ele>
        <time>2015-07-09T16:16:34Z</time>
      </trkpt>
      <trkpt lat="49.00393" lon="1.12065">
        <ele>127.7</ele>
        <time>2015-07-09T16:16:37Z</time>
      </trkpt>
      <trkpt lat="49.00385" lon="1.12072">
        <ele>127</ele>
        <time>2015-07-09T16:16:40Z</time>
      </trkpt>
      <trkpt lat="49.00375" lon="1.1207">
        <ele>126.2</ele>
        <time>2015-07-09T16:16:44Z</time>
      </trkpt>
      <trkpt lat="49.00368" lon="1.12062">
        <ele>125.2</ele>
        <time>2015-07-09T16:16:50Z</time>
      </trkpt>
      <trkpt lat="49.00358" lon="1.12057">
        <ele>124.1</ele>
        <time>2015-07-09T16:16:57Z</time>
      </trkpt>
      <trkpt lat="49.00349" lon="1.12057">
        <ele>123.2</ele>
        <time>2015-07-09T16:17:02Z</time>
      </trkpt>
      <trkpt lat="49.00343" lon="1.1207">
        <ele>122.4</ele>
        <time>2015-07-09T16:17:06Z</time>
      </trkpt>
      <trkpt lat="49.00341" lon="1.12083">
        <ele>121.6</ele>
        <time>2015-07-09T16:17:11Z</time>
      </trkpt>
      <trkpt lat="49.0034" lon="1.12098">
        <ele>121.1</ele>
        <time>2015-07-09T16:17:16Z</time>
      </trkpt>
      <trkpt lat="49.00342" lon="1.12114">
        <ele>120.9</ele>
        <time>2015-07-09T16:17:20Z</time>
      </trkpt>
      <trkpt lat="49.00341" lon="1.12129">
        <ele>120.9</ele>
        <time>2015-07-09T16:17:24Z</time>
      </trkpt>
      <trkpt lat="49.00342" lon="1.12147">
        <ele>120.9</ele>
        <time>2015-07-09T16:17:27Z</time>
      </trkpt>
      <trkpt lat="49.00346" lon="1.12165">
        <ele>120.9</ele>
        <time>2015-07-09T16:17:30Z</time>
      </trkpt>
      <trkpt lat="49.0035" lon="1.1218">
        <ele>120.8</ele>
        <time>2015-07-09T16:17:33Z</time>
      </trkpt>
      <trkpt lat="49.00353" lon="1.12197">
        <ele>120.4</ele>
        <time>2015-07-09T16:17:37Z</time>
      </trkpt>
      <trkpt lat="49.00349" lon="1.1221">
        <ele>119.5</ele>
        <time>2015-07-09T16:17:43Z</time>
      </trkpt>
      <trkpt lat="49.00341" lon="1.1222">
        <ele>116.5</ele>
        <time>2015-07-09T16:18:22Z</time>
      </trkpt>
      <trkpt lat="49.00334" lon="1.12232">
        <ele>116.8</ele>
        <time>2015-07-09T16:18:29Z</time>
      </trkpt>
      <trkpt lat="49.00326" lon="1.1224">
        <ele>117.4</ele>
        <time>2015-07-09T16:18:33Z</time>
      </trkpt>
      <trkpt lat="49.00318" lon="1.12248">
        <ele>118</ele>
        <time>2015-07-09T16:18:37Z</time>
      </trkpt>
      <trkpt lat="49.00308" lon="1.12249">
        <ele>118.6</ele>
        <time>2015-07-09T16:18:42Z</time>
      </trkpt>
      <trkpt lat="49.00298" lon="1.12249">
        <ele>119.1</ele>
        <time>2015-07-09T16:18:46Z</time>
      </trkpt>
      <trkpt lat="49.00287" lon="1.12249">
        <ele>119.5</ele>
        <time>2015-07-09T16:18:50Z</time>
      </trkpt>
      <trkpt lat="49.00278" lon="1.12248">
        <ele>119.8</ele>
        <time>2015-07-09T16:18:53Z</time>
      </trkpt>
      <trkpt lat="49.00267" lon="1.12245">
        <ele>120.2</ele>
        <time>2015-07-09T16:18:57Z</time>
      </trkpt>
      <trkpt lat="49.00258" lon="1.12241">
        <ele>120.4</ele>
        <time>2015-07-09T16:19:00Z</time>
      </trkpt>
      <trkpt lat="49.0025" lon="1.12234">
        <ele>120.7</ele>
        <time>2015-07-09T16:19:03Z</time>
      </trkpt>
      <trkpt lat="49.0024" lon="1.12225">
        <ele>121</ele>
        <time>2015-07-09T16:19:07Z</time>
      </trkpt>
      <trkpt lat="49.00231" lon="1.12223">
        <ele>121.1</ele>
        <time>2015-07-09T16:19:19Z</time>
      </trkpt>
      <trkpt lat="49.00221" lon="1.12225">
        <ele>120</ele>
        <time>2015-07-09T16:21:29Z</time>
      </trkpt>
      <trkpt lat="49.00214" lon="1.12236">
        <ele>120.3</ele>
        <time>2015-07-09T16:21:34Z</time>
      </trkpt>
      <trkpt lat="49.00207" lon="1.12247">
        <ele>120.7</ele>
        <time>2015-07-09T16:21:38Z</time>
      </trkpt>
      <trkpt lat="49.00201" lon="1.1226">
        <ele>121.1</ele>
        <time>2015-07-09T16:21:42Z</time>
      </trkpt>
      <trkpt lat="49.00194" lon="1.12274">
        <ele>121.6</ele>
        <time>2015-07-09T16:21:46Z</time>
      </trkpt>
      <trkpt lat="49.00188" lon="1.12285">
        <ele>122</ele>
        <time>2015-07-09T16:21:50Z</time>
      </trkpt>
      <trkpt lat="49.00182" lon="1.12299">
        <ele>122.4</ele>
        <time>2015-07-09T16:21:54Z</time>
      </trkpt>
      <trkpt lat="49.00174" lon="1.12311">
        <ele>122.8</ele>
        <time>2015-07-09T16:21:59Z</time>
      </trkpt>
      <trkpt lat="49.00168" lon="1.12322">
        <ele>123</ele>
        <time>2015-07-09T16:22:02Z</time>
      </trkpt>
      <trkpt lat="49.00168" lon="1.12337">
        <ele>123.2</ele>
        <time>2015-07-09T16:22:05Z</time>
      </trkpt>
      <trkpt lat="49.00167" lon="1.12353">
        <ele>123.6</ele>
        <time>2015-07-09T16:22:08Z</time>
      </trkpt>
      <trkpt lat="49.00168" lon="1.1237">
        <ele>124.1</ele>
        <time>2015-07-09T16:22:12Z</time>
      </trkpt>
      <trkpt lat="49.00167" lon="1.12384">
        <ele>124.6</ele>
        <time>2015-07-09T16:22:15Z</time>
      </trkpt>
      <trkpt lat="49.00165" lon="1.124">
        <ele>125.2</ele>
        <time>2015-07-09T16:22:19Z</time>
      </trkpt>
      <trkpt lat="49.00165" lon="1.12415">
        <ele>125.8</ele>
        <time>2015-07-09T16:22:23Z</time>
      </trkpt>
      <trkpt lat="49.00167" lon="1.12431">
        <ele>126.1</ele>
        <time>2015-07-09T16:22:26Z</time>
      </trkpt>
      <trkpt lat="49.00167" lon="1.12446">
        <ele>126.4</ele>
        <time>2015-07-09T16:22:29Z</time>
      </trkpt>
      <trkpt lat="49.00168" lon="1.12463">
        <ele>126.9</ele>
        <time>2015-07-09T16:22:33Z</time>
      </trkpt>
      <trkpt lat="49.00168" lon="1.1248">
        <ele>127.4</ele>
        <time>2015-07-09T16:22:37Z</time>
      </trkpt>
      <trkpt lat="49.0017" lon="1.12494">
        <ele>127.7</ele>
        <time>2015-07-09T16:22:40Z</time>
      </trkpt>
      <trkpt lat="49.00173" lon="1.12508">
        <ele>128</ele>
        <time>2015-07-09T16:22:43Z</time>
      </trkpt>
      <trkpt lat="49.00179" lon="1.12522">
        <ele>128.4</ele>
        <time>2015-07-09T16:22:47Z</time>
      </trkpt>
      <trkpt lat="49.00187" lon="1.12533">
        <ele>128.7</ele>
        <time>2015-07-09T16:22:50Z</time>
      </trkpt>
      <trkpt lat="49.00192" lon="1.12547">
        <ele>129.1</ele>
        <time>2015-07-09T16:22:54Z</time>
      </trkpt>
      <trkpt lat="49.00201" lon="1.12556">
        <ele>129.4</ele>
        <time>2015-07-09T16:22:58Z</time>
      </trkpt>
      <trkpt lat="49.00209" lon="1.12569">
        <ele>129.8</ele>
        <time>2015-07-09T16:23:02Z</time>
      </trkpt>
      <trkpt lat="49.00216" lon="1.12579">
        <ele>130</ele>
        <time>2015-07-09T16:23:05Z</time>
      </trkpt>
      <trkpt lat="49.00224" lon="1.12585">
        <ele>130.3</ele>
        <time>2015-07-09T16:23:09Z</time>
      </trkpt>
      <trkpt lat="49.00232" lon="1.12593">
        <ele>130.6</ele>
        <time>2015-07-09T16:23:13Z</time>
      </trkpt>
      <trkpt lat="49.00241" lon="1.12604">
        <ele>130.7</ele>
        <time>2015-07-09T16:23:16Z</time>
      </trkpt>
      <trkpt lat="49.00246" lon="1.12618">
        <ele>130.9</ele>
        <time>2015-07-09T16:23:19Z</time>
      </trkpt>
      <trkpt lat="49.00251" lon="1.12634">
        <ele>131</ele>
        <time>2015-07-09T16:23:23Z</time>
      </trkpt>
      <trkpt lat="49.00254" lon="1.12648">
        <ele>131.1</ele>
        <time>2015-07-09T16:23:26Z</time>
      </trkpt>
      <trkpt lat="49.00257" lon="1.12663">
        <ele>131.2</ele>
        <time>2015-07-09T16:23:29Z</time>
      </trkpt>
      <trkpt lat="49.00259" lon="1.12681">
        <ele>131.3</ele>
        <time>2015-07-09T16:23:33Z</time>
      </trkpt>
      <trkpt lat="49.00261" lon="1.12696">
        <ele>131.4</ele>
        <time>2015-07-09T16:23:36Z</time>
      </trkpt>
      <trkpt lat="49.00263" lon="1.12711">
        <ele>131.4</ele>
        <time>2015-07-09T16:23:39Z</time>
      </trkpt>
      <trkpt lat="49.00261" lon="1.12726">
        <ele>131.5</ele>
        <time>2015-07-09T16:23:42Z</time>
      </trkpt>
      <trkpt lat="49.00258" lon="1.1274">
        <ele>131.6</ele>
        <time>2015-07-09T16:23:45Z</time>
      </trkpt>
      <trkpt lat="49.00256" lon="1.12754">
        <ele>131.9</ele>
        <time>2015-07-09T16:23:48Z</time>
      </trkpt>
      <trkpt lat="49.00256" lon="1.12772">
        <ele>132.1</ele>
        <time>2015-07-09T16:23:51Z</time>
      </trkpt>
      <trkpt lat="49.00254" lon="1.12787">
        <ele>132.3</ele>
        <time>2015-07-09T16:23:54Z</time>
      </trkpt>
      <trkpt lat="49.00252" lon="1.12805">
        <ele>132.6</ele>
        <time>2015-07-09T16:23:58Z</time>
      </trkpt>
      <trkpt lat="49.00251" lon="1.12819">
        <ele>132.8</ele>
        <time>2015-07-09T16:24:01Z</time>
      </trkpt>
      <trkpt lat="49.00254" lon="1.12834">
        <ele>133.1</ele>
        <time>2015-07-09T16:24:05Z</time>
      </trkpt>
      <trkpt lat="49.00252" lon="1.12849">
        <ele>133.3</ele>
        <time>2015-07-09T16:24:09Z</time>
      </trkpt>
      <trkpt lat="49.00243" lon="1.1285">
        <ele>133.6</ele>
        <time>2015-07-09T16:24:14Z</time>
      </trkpt>
      <trkpt lat="49.00235" lon="1.12843">
        <ele>133.8</ele>
        <time>2015-07-09T16:24:18Z</time>
      </trkpt>
      <trkpt lat="49.00233" lon="1.12828">
        <ele>134.2</ele>
        <time>2015-07-09T16:24:24Z</time>
      </trkpt>
      <trkpt lat="49.00228" lon="1.12814">
        <ele>134.3</ele>
        <time>2015-07-09T16:24:28Z</time>
      </trkpt>
      <trkpt lat="49.00225" lon="1.128">
        <ele>134.4</ele>
        <time>2015-07-09T16:24:31Z</time>
      </trkpt>
      <trkpt lat="49.00223" lon="1.12786">
        <ele>134.5</ele>
        <time>2015-07-09T16:24:34Z</time>
      </trkpt>
      <trkpt lat="49.00218" lon="1.12772">
        <ele>134.6</ele>
        <time>2015-07-09T16:24:37Z</time>
      </trkpt>
      <trkpt lat="49.00214" lon="1.12755">
        <ele>134.6</ele>
        <time>2015-07-09T16:24:40Z</time>
      </trkpt>
      <trkpt lat="49.00211" lon="1.12741">
        <ele>134.6</ele>
        <time>2015-07-09T16:24:42Z</time>
      </trkpt>
      <trkpt lat="49.00209" lon="1.12727">
        <ele>134.5</ele>
        <time>2015-07-09T16:24:44Z</time>
      </trkpt>
      <trkpt lat="49.00206" lon="1.12713">
        <ele>134.3</ele>
        <time>2015-07-09T16:24:46Z</time>
      </trkpt>
      <trkpt lat="49.002" lon="1.12691">
        <ele>134.1</ele>
        <time>2015-07-09T16:24:48Z</time>
      </trkpt>
      <trkpt lat="49.00195" lon="1.12671">
        <ele>133.8</ele>
        <time>2015-07-09T16:24:50Z</time>
      </trkpt>
      <trkpt lat="49.00189" lon="1.1265">
        <ele>133.5</ele>
        <time>2015-07-09T16:24:52Z</time>
      </trkpt>
      <trkpt lat="49.00185" lon="1.1263">
        <ele>133.2</ele>
        <time>2015-07-09T16:24:54Z</time>
      </trkpt>
      <trkpt lat="49.00182" lon="1.12616">
        <ele>133</ele>
        <time>2015-07-09T16:24:56Z</time>
      </trkpt>
      <trkpt lat="49.00178" lon="1.12601">
        <ele>132.7</ele>
        <time>2015-07-09T16:24:58Z</time>
      </trkpt>
      <trkpt lat="49.00175" lon="1.12584">
        <ele>132.4</ele>
        <time>2015-07-09T16:25:00Z</time>
      </trkpt>
      <trkpt lat="49.00171" lon="1.12571">
        <ele>132.1</ele>
        <time>2015-07-09T16:25:02Z</time>
      </trkpt>
      <trkpt lat="49.00166" lon="1.12554">
        <ele>131.8</ele>
        <time>2015-07-09T16:25:04Z</time>
      </trkpt>
      <trkpt lat="49.00162" lon="1.12532">
        <ele>131.5</ele>
        <time>2015-07-09T16:25:07Z</time>
      </trkpt>
      <trkpt lat="49.0016" lon="1.12517">
        <ele>131.3</ele>
        <time>2015-07-09T16:25:09Z</time>
      </trkpt>
      <trkpt lat="49.00156" lon="1.12503">
        <ele>131</ele>
        <time>2015-07-09T16:25:11Z</time>
      </trkpt>
      <trkpt lat="49.0015" lon="1.1249">
        <ele>130.8</ele>
        <time>2015-07-09T16:25:13Z</time>
      </trkpt>
      <trkpt lat="49.00146" lon="1.12472">
        <ele>130.4</ele>
        <time>2015-07-09T16:25:16Z</time>
      </trkpt>
      <trkpt lat="49.00141" lon="1.12454">
        <ele>129.7</ele>
        <time>2015-07-09T16:25:20Z</time>
      </trkpt>
      <trkpt lat="49.00137" lon="1.12433">
        <ele>129.1</ele>
        <time>2015-07-09T16:25:23Z</time>
      </trkpt>
      <trkpt lat="49.00133" lon="1.12418">
        <ele>128.5</ele>
        <time>2015-07-09T16:25:25Z</time>
      </trkpt>
      <trkpt lat="49.00127" lon="1.12399">
        <ele>127.8</ele>
        <time>2015-07-09T16:25:27Z</time>
      </trkpt>
      <trkpt lat="49.00123" lon="1.12382">
        <ele>127</ele>
        <time>2015-07-09T16:25:29Z</time>
      </trkpt>
      <trkpt lat="49.0012" lon="1.12368">
        <ele>126.2</ele>
        <time>2015-07-09T16:25:31Z</time>
      </trkpt>
      <trkpt lat="49.00118" lon="1.1235">
        <ele>125.4</ele>
        <time>2015-07-09T16:25:33Z</time>
      </trkpt>
      <trkpt lat="49.00118" lon="1.1233">
        <ele>124.4</ele>
        <time>2015-07-09T16:25:35Z</time>
      </trkpt>
      <trkpt lat="49.0012" lon="1.1231">
        <ele>123.4</ele>
        <time>2015-07-09T16:25:37Z</time>
      </trkpt>
      <trkpt lat="49.00125" lon="1.12288">
        <ele>122.4</ele>
        <time>2015-07-09T16:25:39Z</time>
      </trkpt>
      <trkpt lat="49.0013" lon="1.12266">
        <ele>121.5</ele>
        <time>2015-07-09T16:25:41Z</time>
      </trkpt>
      <trkpt lat="49.00133" lon="1.12241">
        <ele>120.5</ele>
        <time>2015-07-09T16:25:43Z</time>
      </trkpt>
      <trkpt lat="49.00138" lon="1.12219">
        <ele>119.5</ele>
        <time>2015-07-09T16:25:45Z</time>
      </trkpt>
      <trkpt lat="49.00145" lon="1.122">
        <ele>118.6</ele>
        <time>2015-07-09T16:25:47Z</time>
      </trkpt>
      <trkpt lat="49.00152" lon="1.12179">
        <ele>117.7</ele>
        <time>2015-07-09T16:25:49Z</time>
      </trkpt>
      <trkpt lat="49.0016" lon="1.12159">
        <ele>116.6</ele>
        <time>2015-07-09T16:25:51Z</time>
      </trkpt>
      <trkpt lat="49.00168" lon="1.12138">
        <ele>115.5</ele>
        <time>2015-07-09T16:25:53Z</time>
      </trkpt>
      <trkpt lat="49.00176" lon="1.12116">
        <ele>114.4</ele>
        <time>2015-07-09T16:25:55Z</time>
      </trkpt>
      <trkpt lat="49.00184" lon="1.12093">
        <ele>113.1</ele>
        <time>2015-07-09T16:25:57Z</time>
      </trkpt>
      <trkpt lat="49.00191" lon="1.12072">
        <ele>112</ele>
        <time>2015-07-09T16:25:59Z</time>
      </trkpt>
      <trkpt lat="49.00198" lon="1.12054">
        <ele>110.9</ele>
        <time>2015-07-09T16:26:01Z</time>
      </trkpt>
      <trkpt lat="49.00203" lon="1.12035">
        <ele>109.9</ele>
        <time>2015-07-09T16:26:03Z</time>
      </trkpt>
      <trkpt lat="49.00204" lon="1.12018">
        <ele>108.9</ele>
        <time>2015-07-09T16:26:05Z</time>
      </trkpt>
      <trkpt lat="49.00204" lon="1.12001">
        <ele>107.6</ele>
        <time>2015-07-09T16:26:08Z</time>
      </trkpt>
      <trkpt lat="49.00205" lon="1.11987">
        <ele>106.3</ele>
        <time>2015-07-09T16:26:12Z</time>
      </trkpt>
      <trkpt lat="49.00205" lon="1.11971">
        <ele>105.9</ele>
        <time>2015-07-09T16:26:17Z</time>
      </trkpt>
      <trkpt lat="49.002" lon="1.11957">
        <ele>106.3</ele>
        <time>2015-07-09T16:26:22Z</time>
      </trkpt>
      <trkpt lat="49.00196" lon="1.11943">
        <ele>107.4</ele>
        <time>2015-07-09T16:26:28Z</time>
      </trkpt>
      <trkpt lat="49.00193" lon="1.11928">
        <ele>108.9</ele>
        <time>2015-07-09T16:26:35Z</time>
      </trkpt>
      <trkpt lat="49.00191" lon="1.11915">
        <ele>109.8</ele>
        <time>2015-07-09T16:26:40Z</time>
      </trkpt>
      <trkpt lat="49.00187" lon="1.11899">
        <ele>111</ele>
        <time>2015-07-09T16:26:46Z</time>
      </trkpt>
      <trkpt lat="49.00186" lon="1.11885">
        <ele>112</ele>
        <time>2015-07-09T16:26:51Z</time>
      </trkpt>
      <trkpt lat="49.00186" lon="1.11871">
        <ele>112.6</ele>
        <time>2015-07-09T16:26:55Z</time>
      </trkpt>
      <trkpt lat="49.00186" lon="1.11854">
        <ele>113.3</ele>
        <time>2015-07-09T16:26:59Z</time>
      </trkpt>
      <trkpt lat="49.00186" lon="1.11835">
        <ele>113.8</ele>
        <time>2015-07-09T16:27:02Z</time>
      </trkpt>
      <trkpt lat="49.00188" lon="1.11818">
        <ele>114.2</ele>
        <time>2015-07-09T16:27:05Z</time>
      </trkpt>
      <trkpt lat="49.00187" lon="1.11799">
        <ele>114.6</ele>
        <time>2015-07-09T16:27:08Z</time>
      </trkpt>
      <trkpt lat="49.00187" lon="1.11784">
        <ele>115.2</ele>
        <time>2015-07-09T16:27:12Z</time>
      </trkpt>
      <trkpt lat="49.00184" lon="1.11765">
        <ele>115.9</ele>
        <time>2015-07-09T16:27:16Z</time>
      </trkpt>
      <trkpt lat="49.00181" lon="1.11751">
        <ele>116.4</ele>
        <time>2015-07-09T16:27:19Z</time>
      </trkpt>
      <trkpt lat="49.00176" lon="1.11735">
        <ele>117</ele>
        <time>2015-07-09T16:27:22Z</time>
      </trkpt>
      <trkpt lat="49.00172" lon="1.11718">
        <ele>117.7</ele>
        <time>2015-07-09T16:27:25Z</time>
      </trkpt>
      <trkpt lat="49.00168" lon="1.11703">
        <ele>118.5</ele>
        <time>2015-07-09T16:27:29Z</time>
      </trkpt>
      <trkpt lat="49.00164" lon="1.11686">
        <ele>119</ele>
        <time>2015-07-09T16:27:32Z</time>
      </trkpt>
      <trkpt lat="49.0016" lon="1.11672">
        <ele>119.5</ele>
        <time>2015-07-09T16:27:35Z</time>
      </trkpt>
      <trkpt lat="49.00158" lon="1.11658">
        <ele>120.3</ele>
        <time>2015-07-09T16:27:39Z</time>
      </trkpt>
      <trkpt lat="49.00155" lon="1.11641">
        <ele>120.8</ele>
        <time>2015-07-09T16:27:42Z</time>
      </trkpt>
      <trkpt lat="49.00153" lon="1.11626">
        <ele>121.3</ele>
        <time>2015-07-09T16:27:45Z</time>
      </trkpt>
      <trkpt lat="49.00149" lon="1.11608">
        <ele>121.9</ele>
        <time>2015-07-09T16:27:49Z</time>
      </trkpt>
      <trkpt lat="49.00147" lon="1.11594">
        <ele>122.3</ele>
        <time>2015-07-09T16:27:52Z</time>
      </trkpt>
      <trkpt lat="49.00144" lon="1.11578">
        <ele>122.7</ele>
        <time>2015-07-09T16:27:55Z</time>
      </trkpt>
      <trkpt lat="49.00142" lon="1.11558">
        <ele>123</ele>
        <time>2015-07-09T16:27:58Z</time>
      </trkpt>
      <trkpt lat="49.00138" lon="1.1154">
        <ele>123.2</ele>
        <time>2015-07-09T16:28:01Z</time>
      </trkpt>
      <trkpt lat="49.00135" lon="1.11527">
        <ele>123.4</ele>
        <time>2015-07-09T16:28:03Z</time>
      </trkpt>
      <trkpt lat="49.00131" lon="1.11511">
        <ele>123.5</ele>
        <time>2015-07-09T16:28:06Z</time>
      </trkpt>
      <trkpt lat="49.00133" lon="1.11494">
        <ele>123.8</ele>
        <time>2015-07-09T16:28:11Z</time>
      </trkpt>
      <trkpt lat="49.00142" lon="1.11482">
        <ele>123.9</ele>
        <time>2015-07-09T16:28:15Z</time>
      </trkpt>
      <trkpt lat="49.00152" lon="1.1147">
        <ele>124</ele>
        <time>2015-07-09T16:28:18Z</time>
      </trkpt>
      <trkpt lat="49.0016" lon="1.11463">
        <ele>123.7</ele>
        <time>2015-07-09T16:28:20Z</time>
      </trkpt>
      <trkpt lat="49.00172" lon="1.11457">
        <ele>123.5</ele>
        <time>2015-07-09T16:28:22Z</time>
      </trkpt>
      <trkpt lat="49.00187" lon="1.11448">
        <ele>123.1</ele>
        <time>2015-07-09T16:28:24Z</time>
      </trkpt>
      <trkpt lat="49.002" lon="1.1144">
        <ele>122.6</ele>
        <time>2015-07-09T16:28:26Z</time>
      </trkpt>
      <trkpt lat="49.00213" lon="1.1143">
        <ele>122</ele>
        <time>2015-07-09T16:28:28Z</time>
      </trkpt>
      <trkpt lat="49.00228" lon="1.11421">
        <ele>121.3</ele>
        <time>2015-07-09T16:28:30Z</time>
      </trkpt>
      <trkpt lat="49.0024" lon="1.11411">
        <ele>120.4</ele>
        <time>2015-07-09T16:28:32Z</time>
      </trkpt>
      <trkpt lat="49.00255" lon="1.11405">
        <ele>119.4</ele>
        <time>2015-07-09T16:28:34Z</time>
      </trkpt>
      <trkpt lat="49.00267" lon="1.11397">
        <ele>118</ele>
        <time>2015-07-09T16:28:36Z</time>
      </trkpt>
      <trkpt lat="49.00279" lon="1.11389">
        <ele>116.6</ele>
        <time>2015-07-09T16:28:38Z</time>
      </trkpt>
      <trkpt lat="49.00288" lon="1.11383">
        <ele>115.1</ele>
        <time>2015-07-09T16:28:40Z</time>
      </trkpt>
      <trkpt lat="49.00298" lon="1.11375">
        <ele>112.4</ele>
        <time>2015-07-09T16:28:44Z</time>
      </trkpt>
      <trkpt lat="49.00308" lon="1.11371">
        <ele>109.3</ele>
        <time>2015-07-09T16:28:50Z</time>
      </trkpt>
      <trkpt lat="49.00317" lon="1.1137">
        <ele>105.5</ele>
        <time>2015-07-09T16:29:04Z</time>
      </trkpt>
      <trkpt lat="49.00321" lon="1.11355">
        <ele>102.7</ele>
        <time>2015-07-09T16:30:34Z</time>
      </trkpt>
      <trkpt lat="49.00319" lon="1.11338">
        <ele>101.2</ele>
        <time>2015-07-09T16:31:08Z</time>
      </trkpt>
      <trkpt lat="49.00314" lon="1.11321">
        <ele>101</ele>
        <time>2015-07-09T16:31:11Z</time>
      </trkpt>
      <trkpt lat="49.00306" lon="1.11311">
        <ele>100.7</ele>
        <time>2015-07-09T16:31:13Z</time>
      </trkpt>
      <trkpt lat="49.00297" lon="1.11304">
        <ele>100.4</ele>
        <time>2015-07-09T16:31:15Z</time>
      </trkpt>
      <trkpt lat="49.00288" lon="1.11296">
        <ele>100</ele>
        <time>2015-07-09T16:31:17Z</time>
      </trkpt>
      <trkpt lat="49.00279" lon="1.11288">
        <ele>99.7</ele>
        <time>2015-07-09T16:31:19Z</time>
      </trkpt>
      <trkpt lat="49.0027" lon="1.11286">
        <ele>99.3</ele>
        <time>2015-07-09T16:31:21Z</time>
      </trkpt>
      <trkpt lat="49.00257" lon="1.11283">
        <ele>98.8</ele>
        <time>2015-07-09T16:31:24Z</time>
      </trkpt>
      <trkpt lat="49.00246" lon="1.11279">
        <ele>98.4</ele>
        <time>2015-07-09T16:31:27Z</time>
      </trkpt>
      <trkpt lat="49.00236" lon="1.11276">
        <ele>98</ele>
        <time>2015-07-09T16:31:30Z</time>
      </trkpt>
      <trkpt lat="49.00224" lon="1.11271">
        <ele>97.7</ele>
        <time>2015-07-09T16:31:33Z</time>
      </trkpt>
      <trkpt lat="49.00213" lon="1.11264">
        <ele>97.5</ele>
        <time>2015-07-09T16:31:36Z</time>
      </trkpt>
      <trkpt lat="49.002" lon="1.11257">
        <ele>97.3</ele>
        <time>2015-07-09T16:31:39Z</time>
      </trkpt>
      <trkpt lat="49.00189" lon="1.11251">
        <ele>97.2</ele>
        <time>2015-07-09T16:31:43Z</time>
      </trkpt>
      <trkpt lat="49.00177" lon="1.11243">
        <ele>97.2</ele>
        <time>2015-07-09T16:31:46Z</time>
      </trkpt>
      <trkpt lat="49.00166" lon="1.11237">
        <ele>97.3</ele>
        <time>2015-07-09T16:31:49Z</time>
      </trkpt>
      <trkpt lat="49.00154" lon="1.11231">
        <ele>97.7</ele>
        <time>2015-07-09T16:31:53Z</time>
      </trkpt>
      <trkpt lat="49.00145" lon="1.11226">
        <ele>98.1</ele>
        <time>2015-07-09T16:31:56Z</time>
      </trkpt>
      <trkpt lat="49.00134" lon="1.11219">
        <ele>98.7</ele>
        <time>2015-07-09T16:32:00Z</time>
      </trkpt>
      <trkpt lat="49.00124" lon="1.11217">
        <ele>99.2</ele>
        <time>2015-07-09T16:32:03Z</time>
      </trkpt>
      <trkpt lat="49.00113" lon="1.11213">
        <ele>100.1</ele>
        <time>2015-07-09T16:32:07Z</time>
      </trkpt>
      <trkpt lat="49.00103" lon="1.11212">
        <ele>100.8</ele>
        <time>2015-07-09T16:32:10Z</time>
      </trkpt>
      <trkpt lat="49.00093" lon="1.1121">
        <ele>101.6</ele>
        <time>2015-07-09T16:32:14Z</time>
      </trkpt>
      <trkpt lat="49.00084" lon="1.11204">
        <ele>102.2</ele>
        <time>2015-07-09T16:32:17Z</time>
      </trkpt>
      <trkpt lat="49.00074" lon="1.11197">
        <ele>102.7</ele>
        <time>2015-07-09T16:32:20Z</time>
      </trkpt>
      <trkpt lat="49.00062" lon="1.11192">
        <ele>103.1</ele>
        <time>2015-07-09T16:32:23Z</time>
      </trkpt>
      <trkpt lat="49.00051" lon="1.11189">
        <ele>103.5</ele>
        <time>2015-07-09T16:32:26Z</time>
      </trkpt>
      <trkpt lat="49.00041" lon="1.11185">
        <ele>103.8</ele>
        <time>2015-07-09T16:32:29Z</time>
      </trkpt>
      <trkpt lat="49.00031" lon="1.11184">
        <ele>104</ele>
        <time>2015-07-09T16:32:32Z</time>
      </trkpt>
      <trkpt lat="49.00022" lon="1.11176">
        <ele>104.5</ele>
        <time>2015-07-09T16:32:37Z</time>
      </trkpt>
      <trkpt lat="49.00013" lon="1.11166">
        <ele>105</ele>
        <time>2015-07-09T16:32:41Z</time>
      </trkpt>
      <trkpt lat="49.00003" lon="1.11161">
        <ele>105.6</ele>
        <time>2015-07-09T16:32:45Z</time>
      </trkpt>
      <trkpt lat="48.99994" lon="1.11154">
        <ele>106.2</ele>
        <time>2015-07-09T16:32:49Z</time>
      </trkpt>
      <trkpt lat="48.99984" lon="1.11145">
        <ele>106.8</ele>
        <time>2015-07-09T16:32:54Z</time>
      </trkpt>
      <trkpt lat="48.99977" lon="1.11135">
        <ele>107.1</ele>
        <time>2015-07-09T16:32:57Z</time>
      </trkpt>
      <trkpt lat="48.99967" lon="1.11127">
        <ele>107.3</ele>
        <time>2015-07-09T16:33:00Z</time>
      </trkpt>
      <trkpt lat="48.99958" lon="1.11119">
        <ele>107.5</ele>
        <time>2015-07-09T16:33:03Z</time>
      </trkpt>
      <trkpt lat="48.99948" lon="1.11115">
        <ele>107.7</ele>
        <time>2015-07-09T16:33:06Z</time>
      </trkpt>
      <trkpt lat="48.99937" lon="1.11108">
        <ele>107.8</ele>
        <time>2015-07-09T16:33:09Z</time>
      </trkpt>
      <trkpt lat="48.99928" lon="1.11104">
        <ele>107.9</ele>
        <time>2015-07-09T16:33:12Z</time>
      </trkpt>
      <trkpt lat="48.99918" lon="1.111">
        <ele>108.1</ele>
        <time>2015-07-09T16:33:15Z</time>
      </trkpt>
      <trkpt lat="48.99909" lon="1.11099">
        <ele>108.4</ele>
        <time>2015-07-09T16:33:18Z</time>
      </trkpt>
      <trkpt lat="48.99899" lon="1.111">
        <ele>109</ele>
        <time>2015-07-09T16:33:22Z</time>
      </trkpt>
      <trkpt lat="48.9989" lon="1.11105">
        <ele>109.7</ele>
        <time>2015-07-09T16:33:26Z</time>
      </trkpt>
      <trkpt lat="48.9988" lon="1.11112">
        <ele>110.7</ele>
        <time>2015-07-09T16:33:31Z</time>
      </trkpt>
      <trkpt lat="48.99871" lon="1.11121">
        <ele>111.9</ele>
        <time>2015-07-09T16:33:36Z</time>
      </trkpt>
      <trkpt lat="48.99863" lon="1.11128">
        <ele>112.9</ele>
        <time>2015-07-09T16:33:40Z</time>
      </trkpt>
      <trkpt lat="48.99853" lon="1.11135">
        <ele>114</ele>
        <time>2015-07-09T16:33:45Z</time>
      </trkpt>
      <trkpt lat="48.99846" lon="1.11143">
        <ele>114.9</ele>
        <time>2015-07-09T16:33:49Z</time>
      </trkpt>
      <trkpt lat="48.99838" lon="1.1115">
        <ele>115.9</ele>
        <time>2015-07-09T16:33:53Z</time>
      </trkpt>
      <trkpt lat="48.9983" lon="1.11158">
        <ele>116.9</ele>
        <time>2015-07-09T16:33:57Z</time>
      </trkpt>
      <trkpt lat="48.99821" lon="1.11166">
        <ele>118</ele>
        <time>2015-07-09T16:34:01Z</time>
      </trkpt>
      <trkpt lat="48.99813" lon="1.11175">
        <ele>119.1</ele>
        <time>2015-07-09T16:34:05Z</time>
      </trkpt>
      <trkpt lat="48.99806" lon="1.11185">
        <ele>120</ele>
        <time>2015-07-09T16:34:09Z</time>
      </trkpt>
      <trkpt lat="48.99797" lon="1.11195">
        <ele>120.8</ele>
        <time>2015-07-09T16:34:13Z</time>
      </trkpt>
      <trkpt lat="48.99789" lon="1.11206">
        <ele>121.5</ele>
        <time>2015-07-09T16:34:17Z</time>
      </trkpt>
      <trkpt lat="48.99781" lon="1.11216">
        <ele>122.1</ele>
        <time>2015-07-09T16:34:21Z</time>
      </trkpt>
      <trkpt lat="48.99774" lon="1.11229">
        <ele>122.6</ele>
        <time>2015-07-09T16:34:25Z</time>
      </trkpt>
      <trkpt lat="48.99766" lon="1.11241">
        <ele>123.1</ele>
        <time>2015-07-09T16:34:29Z</time>
      </trkpt>
      <trkpt lat="48.99758" lon="1.11254">
        <ele>123.6</ele>
        <time>2015-07-09T16:34:33Z</time>
      </trkpt>
      <trkpt lat="48.99751" lon="1.11265">
        <ele>123.8</ele>
        <time>2015-07-09T16:34:36Z</time>
      </trkpt>
      <trkpt lat="48.99745" lon="1.11276">
        <ele>124.1</ele>
        <time>2015-07-09T16:34:39Z</time>
      </trkpt>
      <trkpt lat="48.99739" lon="1.11287">
        <ele>124.4</ele>
        <time>2015-07-09T16:34:42Z</time>
      </trkpt>
      <trkpt lat="48.99731" lon="1.11301">
        <ele>124.9</ele>
        <time>2015-07-09T16:34:46Z</time>
      </trkpt>
      <trkpt lat="48.99725" lon="1.11312">
        <ele>125.3</ele>
        <time>2015-07-09T16:34:49Z</time>
      </trkpt>
      <trkpt lat="48.99717" lon="1.11321">
        <ele>125.8</ele>
        <time>2015-07-09T16:34:52Z</time>
      </trkpt>
      <trkpt lat="48.99708" lon="1.1133">
        <ele>126.4</ele>
        <time>2015-07-09T16:34:56Z</time>
      </trkpt>
      <trkpt lat="48.99699" lon="1.11341">
        <ele>127.1</ele>
        <time>2015-07-09T16:35:00Z</time>
      </trkpt>
      <trkpt lat="48.99691" lon="1.11352">
        <ele>127.6</ele>
        <time>2015-07-09T16:35:04Z</time>
      </trkpt>
      <trkpt lat="48.99682" lon="1.11364">
        <ele>128.2</ele>
        <time>2015-07-09T16:35:08Z</time>
      </trkpt>
      <trkpt lat="48.99673" lon="1.11376">
        <ele>128.6</ele>
        <time>2015-07-09T16:35:12Z</time>
      </trkpt>
      <trkpt lat="48.99664" lon="1.1139">
        <ele>128.9</ele>
        <time>2015-07-09T16:35:15Z</time>
      </trkpt>
      <trkpt lat="48.99655" lon="1.11404">
        <ele>129.1</ele>
        <time>2015-07-09T16:35:18Z</time>
      </trkpt>
      <trkpt lat="48.99645" lon="1.11417">
        <ele>129.3</ele>
        <time>2015-07-09T16:35:21Z</time>
      </trkpt>
      <trkpt lat="48.99638" lon="1.11427">
        <ele>129.4</ele>
        <time>2015-07-09T16:35:23Z</time>
      </trkpt>
      <trkpt lat="48.99631" lon="1.11436">
        <ele>129.5</ele>
        <time>2015-07-09T16:35:25Z</time>
      </trkpt>
      <trkpt lat="48.99622" lon="1.11447">
        <ele>129.6</ele>
        <time>2015-07-09T16:35:28Z</time>
      </trkpt>
      <trkpt lat="48.99612" lon="1.11461">
        <ele>129.7</ele>
        <time>2015-07-09T16:35:31Z</time>
      </trkpt>
      <trkpt lat="48.99604" lon="1.11469">
        <ele>129.8</ele>
        <time>2015-07-09T16:35:33Z</time>
      </trkpt>
      <trkpt lat="48.99596" lon="1.1148">
        <ele>129.8</ele>
        <time>2015-07-09T16:35:36Z</time>
      </trkpt>
      <trkpt lat="48.99588" lon="1.11494">
        <ele>129.9</ele>
        <time>2015-07-09T16:35:39Z</time>
      </trkpt>
      <trkpt lat="48.9958" lon="1.11504">
        <ele>129.9</ele>
        <time>2015-07-09T16:35:42Z</time>
      </trkpt>
      <trkpt lat="48.99573" lon="1.11515">
        <ele>130</ele>
        <time>2015-07-09T16:35:44Z</time>
      </trkpt>
      <trkpt lat="48.99566" lon="1.11525">
        <ele>130</ele>
        <time>2015-07-09T16:35:46Z</time>
      </trkpt>
      <trkpt lat="48.99558" lon="1.11533">
        <ele>130</ele>
        <time>2015-07-09T16:35:48Z</time>
      </trkpt>
      <trkpt lat="48.9955" lon="1.11542">
        <ele>130</ele>
        <time>2015-07-09T16:35:50Z</time>
      </trkpt>
      <trkpt lat="48.99542" lon="1.11553">
        <ele>130</ele>
        <time>2015-07-09T16:35:52Z</time>
      </trkpt>
      <trkpt lat="48.99534" lon="1.11562">
        <ele>130</ele>
        <time>2015-07-09T16:35:54Z</time>
      </trkpt>
      <trkpt lat="48.99527" lon="1.1157">
        <ele>130.1</ele>
        <time>2015-07-09T16:35:56Z</time>
      </trkpt>
      <trkpt lat="48.99519" lon="1.11579">
        <ele>130.1</ele>
        <time>2015-07-09T16:35:58Z</time>
      </trkpt>
      <trkpt lat="48.99512" lon="1.11589">
        <ele>130.1</ele>
        <time>2015-07-09T16:36:00Z</time>
      </trkpt>
      <trkpt lat="48.99506" lon="1.11601">
        <ele>130.1</ele>
        <time>2015-07-09T16:36:02Z</time>
      </trkpt>
      <trkpt lat="48.995" lon="1.11616">
        <ele>130.1</ele>
        <time>2015-07-09T16:36:04Z</time>
      </trkpt>
      <trkpt lat="48.99495" lon="1.11631">
        <ele>130.1</ele>
        <time>2015-07-09T16:36:06Z</time>
      </trkpt>
      <trkpt lat="48.99489" lon="1.11646">
        <ele>130.1</ele>
        <time>2015-07-09T16:36:08Z</time>
      </trkpt>
      <trkpt lat="48.99483" lon="1.1166">
        <ele>130.1</ele>
        <time>2015-07-09T16:36:10Z</time>
      </trkpt>
      <trkpt lat="48.99476" lon="1.11674">
        <ele>130.1</ele>
        <time>2015-07-09T16:36:12Z</time>
      </trkpt>
      <trkpt lat="48.99468" lon="1.11689">
        <ele>130.1</ele>
        <time>2015-07-09T16:36:14Z</time>
      </trkpt>
      <trkpt lat="48.9946" lon="1.11703">
        <ele>129.9</ele>
        <time>2015-07-09T16:36:16Z</time>
      </trkpt>
      <trkpt lat="48.99452" lon="1.11719">
        <ele>129.7</ele>
        <time>2015-07-09T16:36:18Z</time>
      </trkpt>
      <trkpt lat="48.99443" lon="1.11733">
        <ele>129.6</ele>
        <time>2015-07-09T16:36:20Z</time>
      </trkpt>
      <trkpt lat="48.99436" lon="1.1175">
        <ele>129.4</ele>
        <time>2015-07-09T16:36:22Z</time>
      </trkpt>
      <trkpt lat="48.99429" lon="1.11766">
        <ele>129.3</ele>
        <time>2015-07-09T16:36:24Z</time>
      </trkpt>
      <trkpt lat="48.99421" lon="1.11781">
        <ele>129</ele>
        <time>2015-07-09T16:36:26Z</time>
      </trkpt>
      <trkpt lat="48.99414" lon="1.11797">
        <ele>128.9</ele>
        <time>2015-07-09T16:36:28Z</time>
      </trkpt>
      <trkpt lat="48.99406" lon="1.11812">
        <ele>128.7</ele>
        <time>2015-07-09T16:36:30Z</time>
      </trkpt>
      <trkpt lat="48.99399" lon="1.11827">
        <ele>128.6</ele>
        <time>2015-07-09T16:36:32Z</time>
      </trkpt>
      <trkpt lat="48.99391" lon="1.11843">
        <ele>128.4</ele>
        <time>2015-07-09T16:36:34Z</time>
      </trkpt>
      <trkpt lat="48.99384" lon="1.11858">
        <ele>128.3</ele>
        <time>2015-07-09T16:36:36Z</time>
      </trkpt>
      <trkpt lat="48.99376" lon="1.11874">
        <ele>128.2</ele>
        <time>2015-07-09T16:36:38Z</time>
      </trkpt>
      <trkpt lat="48.99367" lon="1.1189">
        <ele>128</ele>
        <time>2015-07-09T16:36:40Z</time>
      </trkpt>
      <trkpt lat="48.99358" lon="1.11905">
        <ele>127.8</ele>
        <time>2015-07-09T16:36:42Z</time>
      </trkpt>
      <trkpt lat="48.99349" lon="1.11918">
        <ele>127.7</ele>
        <time>2015-07-09T16:36:44Z</time>
      </trkpt>
      <trkpt lat="48.99339" lon="1.11931">
        <ele>127.5</ele>
        <time>2015-07-09T16:36:46Z</time>
      </trkpt>
      <trkpt lat="48.9933" lon="1.11943">
        <ele>127.4</ele>
        <time>2015-07-09T16:36:48Z</time>
      </trkpt>
      <trkpt lat="48.99321" lon="1.11955">
        <ele>127.2</ele>
        <time>2015-07-09T16:36:50Z</time>
      </trkpt>
      <trkpt lat="48.99312" lon="1.11968">
        <ele>127.1</ele>
        <time>2015-07-09T16:36:52Z</time>
      </trkpt>
      <trkpt lat="48.99303" lon="1.11979">
        <ele>127</ele>
        <time>2015-07-09T16:36:54Z</time>
      </trkpt>
      <trkpt lat="48.99294" lon="1.1199">
        <ele>127</ele>
        <time>2015-07-09T16:36:56Z</time>
      </trkpt>
      <trkpt lat="48.99286" lon="1.12">
        <ele>127</ele>
        <time>2015-07-09T16:36:58Z</time>
      </trkpt>
      <trkpt lat="48.99278" lon="1.1201">
        <ele>127</ele>
        <time>2015-07-09T16:37:00Z</time>
      </trkpt>
      <trkpt lat="48.9927" lon="1.1202">
        <ele>127</ele>
        <time>2015-07-09T16:37:02Z</time>
      </trkpt>
      <trkpt lat="48.99261" lon="1.1203">
        <ele>127</ele>
        <time>2015-07-09T16:37:04Z</time>
      </trkpt>
      <trkpt lat="48.99253" lon="1.12041">
        <ele>127</ele>
        <time>2015-07-09T16:37:06Z</time>
      </trkpt>
      <trkpt lat="48.99244" lon="1.12053">
        <ele>127</ele>
        <time>2015-07-09T16:37:08Z</time>
      </trkpt>
      <trkpt lat="48.99236" lon="1.12063">
        <ele>127</ele>
        <time>2015-07-09T16:37:10Z</time>
      </trkpt>
      <trkpt lat="48.99228" lon="1.12073">
        <ele>127</ele>
        <time>2015-07-09T16:37:12Z</time>
      </trkpt>
      <trkpt lat="48.99221" lon="1.12085">
        <ele>127.1</ele>
        <time>2015-07-09T16:37:14Z</time>
      </trkpt>
      <trkpt lat="48.99213" lon="1.12095">
        <ele>127.1</ele>
        <time>2015-07-09T16:37:16Z</time>
      </trkpt>
      <trkpt lat="48.99206" lon="1.12103">
        <ele>127.3</ele>
        <time>2015-07-09T16:37:18Z</time>
      </trkpt>
      <trkpt lat="48.99199" lon="1.12113">
        <ele>127.5</ele>
        <time>2015-07-09T16:37:20Z</time>
      </trkpt>
      <trkpt lat="48.99191" lon="1.12121">
        <ele>127.7</ele>
        <time>2015-07-09T16:37:22Z</time>
      </trkpt>
      <trkpt lat="48.99184" lon="1.12131">
        <ele>127.8</ele>
        <time>2015-07-09T16:37:24Z</time>
      </trkpt>
      <trkpt lat="48.99176" lon="1.1214">
        <ele>128</ele>
        <time>2015-07-09T16:37:26Z</time>
      </trkpt>
      <trkpt lat="48.99167" lon="1.12147">
        <ele>128.1</ele>
        <time>2015-07-09T16:37:28Z</time>
      </trkpt>
      <trkpt lat="48.99157" lon="1.12158">
        <ele>128.2</ele>
        <time>2015-07-09T16:37:30Z</time>
      </trkpt>
      <trkpt lat="48.99148" lon="1.12166">
        <ele>128.3</ele>
        <time>2015-07-09T16:37:32Z</time>
      </trkpt>
      <trkpt lat="48.99137" lon="1.12177">
        <ele>128.3</ele>
        <time>2015-07-09T16:37:35Z</time>
      </trkpt>
      <trkpt lat="48.99127" lon="1.12187">
        <ele>128.3</ele>
        <time>2015-07-09T16:37:37Z</time>
      </trkpt>
      <trkpt lat="48.99118" lon="1.12194">
        <ele>128.3</ele>
        <time>2015-07-09T16:37:39Z</time>
      </trkpt>
      <trkpt lat="48.99109" lon="1.12205">
        <ele>128.3</ele>
        <time>2015-07-09T16:37:41Z</time>
      </trkpt>
      <trkpt lat="48.991" lon="1.12215">
        <ele>128.3</ele>
        <time>2015-07-09T16:37:43Z</time>
      </trkpt>
      <trkpt lat="48.99091" lon="1.12222">
        <ele>128.4</ele>
        <time>2015-07-09T16:37:45Z</time>
      </trkpt>
      <trkpt lat="48.9908" lon="1.12233">
        <ele>128.6</ele>
        <time>2015-07-09T16:37:48Z</time>
      </trkpt>
      <trkpt lat="48.99072" lon="1.12242">
        <ele>128.7</ele>
        <time>2015-07-09T16:37:50Z</time>
      </trkpt>
      <trkpt lat="48.99064" lon="1.12248">
        <ele>128.8</ele>
        <time>2015-07-09T16:37:52Z</time>
      </trkpt>
      <trkpt lat="48.99053" lon="1.12254">
        <ele>129.1</ele>
        <time>2015-07-09T16:37:55Z</time>
      </trkpt>
      <trkpt lat="48.99045" lon="1.12262">
        <ele>129.2</ele>
        <time>2015-07-09T16:37:57Z</time>
      </trkpt>
      <trkpt lat="48.99034" lon="1.1227">
        <ele>129.5</ele>
        <time>2015-07-09T16:38:00Z</time>
      </trkpt>
      <trkpt lat="48.99024" lon="1.12278">
        <ele>129.8</ele>
        <time>2015-07-09T16:38:03Z</time>
      </trkpt>
      <trkpt lat="48.99017" lon="1.12291">
        <ele>130.2</ele>
        <time>2015-07-09T16:38:06Z</time>
      </trkpt>
      <trkpt lat="48.99008" lon="1.12303">
        <ele>130.6</ele>
        <time>2015-07-09T16:38:09Z</time>
      </trkpt>
      <trkpt lat="48.99" lon="1.12309">
        <ele>130.9</ele>
        <time>2015-07-09T16:38:12Z</time>
      </trkpt>
      <trkpt lat="48.98992" lon="1.12318">
        <ele>131.4</ele>
        <time>2015-07-09T16:38:15Z</time>
      </trkpt>
      <trkpt lat="48.98983" lon="1.12328">
        <ele>132</ele>
        <time>2015-07-09T16:38:19Z</time>
      </trkpt>
      <trkpt lat="48.98975" lon="1.12335">
        <ele>132.5</ele>
        <time>2015-07-09T16:38:22Z</time>
      </trkpt>
      <trkpt lat="48.98967" lon="1.12344">
        <ele>133</ele>
        <time>2015-07-09T16:38:25Z</time>
      </trkpt>
      <trkpt lat="48.98959" lon="1.12352">
        <ele>133.5</ele>
        <time>2015-07-09T16:38:28Z</time>
      </trkpt>
      <trkpt lat="48.98951" lon="1.12359">
        <ele>134.2</ele>
        <time>2015-07-09T16:38:31Z</time>
      </trkpt>
      <trkpt lat="48.98942" lon="1.12367">
        <ele>134.7</ele>
        <time>2015-07-09T16:38:34Z</time>
      </trkpt>
      <trkpt lat="48.98933" lon="1.12375">
        <ele>135.2</ele>
        <time>2015-07-09T16:38:37Z</time>
      </trkpt>
      <trkpt lat="48.98925" lon="1.12382">
        <ele>135.8</ele>
        <time>2015-07-09T16:38:40Z</time>
      </trkpt>
      <trkpt lat="48.98916" lon="1.12391">
        <ele>136.3</ele>
        <time>2015-07-09T16:38:43Z</time>
      </trkpt>
      <trkpt lat="48.98907" lon="1.124">
        <ele>136.9</ele>
        <time>2015-07-09T16:38:46Z</time>
      </trkpt>
      <trkpt lat="48.98899" lon="1.12409">
        <ele>137.5</ele>
        <time>2015-07-09T16:38:49Z</time>
      </trkpt>
      <trkpt lat="48.9889" lon="1.12418">
        <ele>138.1</ele>
        <time>2015-07-09T16:38:52Z</time>
      </trkpt>
      <trkpt lat="48.98881" lon="1.12427">
        <ele>138.6</ele>
        <time>2015-07-09T16:38:55Z</time>
      </trkpt>
      <trkpt lat="48.98873" lon="1.12435">
        <ele>139.2</ele>
        <time>2015-07-09T16:38:58Z</time>
      </trkpt>
      <trkpt lat="48.98865" lon="1.12443">
        <ele>139.8</ele>
        <time>2015-07-09T16:39:01Z</time>
      </trkpt>
      <trkpt lat="48.98856" lon="1.12452">
        <ele>140.4</ele>
        <time>2015-07-09T16:39:04Z</time>
      </trkpt>
      <trkpt lat="48.98846" lon="1.12462">
        <ele>140.9</ele>
        <time>2015-07-09T16:39:07Z</time>
      </trkpt>
      <trkpt lat="48.98837" lon="1.12472">
        <ele>141.4</ele>
        <time>2015-07-09T16:39:10Z</time>
      </trkpt>
      <trkpt lat="48.98828" lon="1.12483">
        <ele>141.9</ele>
        <time>2015-07-09T16:39:13Z</time>
      </trkpt>
      <trkpt lat="48.98818" lon="1.12493">
        <ele>142.3</ele>
        <time>2015-07-09T16:39:16Z</time>
      </trkpt>
      <trkpt lat="48.9881" lon="1.125">
        <ele>142.5</ele>
        <time>2015-07-09T16:39:18Z</time>
      </trkpt>
      <trkpt lat="48.98799" lon="1.12511">
        <ele>142.8</ele>
        <time>2015-07-09T16:39:21Z</time>
      </trkpt>
      <trkpt lat="48.98788" lon="1.12522">
        <ele>143.2</ele>
        <time>2015-07-09T16:39:24Z</time>
      </trkpt>
      <trkpt lat="48.98778" lon="1.12533">
        <ele>143.6</ele>
        <time>2015-07-09T16:39:27Z</time>
      </trkpt>
      <trkpt lat="48.98767" lon="1.12542">
        <ele>143.9</ele>
        <time>2015-07-09T16:39:30Z</time>
      </trkpt>
      <trkpt lat="48.98757" lon="1.12552">
        <ele>144.2</ele>
        <time>2015-07-09T16:39:33Z</time>
      </trkpt>
      <trkpt lat="48.98746" lon="1.12563">
        <ele>144.4</ele>
        <time>2015-07-09T16:39:36Z</time>
      </trkpt>
      <trkpt lat="48.98736" lon="1.12576">
        <ele>144.8</ele>
        <time>2015-07-09T16:39:39Z</time>
      </trkpt>
      <trkpt lat="48.98728" lon="1.12583">
        <ele>145</ele>
        <time>2015-07-09T16:39:41Z</time>
      </trkpt>
      <trkpt lat="48.98716" lon="1.12593">
        <ele>145.3</ele>
        <time>2015-07-09T16:39:44Z</time>
      </trkpt>
      <trkpt lat="48.98709" lon="1.12602">
        <ele>145.5</ele>
        <time>2015-07-09T16:39:46Z</time>
      </trkpt>
      <trkpt lat="48.98701" lon="1.1261">
        <ele>145.7</ele>
        <time>2015-07-09T16:39:48Z</time>
      </trkpt>
      <trkpt lat="48.98694" lon="1.12618">
        <ele>146</ele>
        <time>2015-07-09T16:39:50Z</time>
      </trkpt>
      <trkpt lat="48.98682" lon="1.12628">
        <ele>146.3</ele>
        <time>2015-07-09T16:39:53Z</time>
      </trkpt>
      <trkpt lat="48.98674" lon="1.12637">
        <ele>146.5</ele>
        <time>2015-07-09T16:39:55Z</time>
      </trkpt>
      <trkpt lat="48.98666" lon="1.12645">
        <ele>146.6</ele>
        <time>2015-07-09T16:39:57Z</time>
      </trkpt>
      <trkpt lat="48.98658" lon="1.12652">
        <ele>146.8</ele>
        <time>2015-07-09T16:39:59Z</time>
      </trkpt>
      <trkpt lat="48.9865" lon="1.12659">
        <ele>146.9</ele>
        <time>2015-07-09T16:40:01Z</time>
      </trkpt>
      <trkpt lat="48.98638" lon="1.12664">
        <ele>147.1</ele>
        <time>2015-07-09T16:40:04Z</time>
      </trkpt>
      <trkpt lat="48.98626" lon="1.12666">
        <ele>147.2</ele>
        <time>2015-07-09T16:40:07Z</time>
      </trkpt>
      <trkpt lat="48.98616" lon="1.12667">
        <ele>147.3</ele>
        <time>2015-07-09T16:40:10Z</time>
      </trkpt>
      <trkpt lat="48.98605" lon="1.12669">
        <ele>147.4</ele>
        <time>2015-07-09T16:40:13Z</time>
      </trkpt>
      <trkpt lat="48.98594" lon="1.12669">
        <ele>147.5</ele>
        <time>2015-07-09T16:40:16Z</time>
      </trkpt>
      <trkpt lat="48.98583" lon="1.12668">
        <ele>147.5</ele>
        <time>2015-07-09T16:40:19Z</time>
      </trkpt>
      <trkpt lat="48.98572" lon="1.12668">
        <ele>147.5</ele>
        <time>2015-07-09T16:40:22Z</time>
      </trkpt>
      <trkpt lat="48.98559" lon="1.12667">
        <ele>147.5</ele>
        <time>2015-07-09T16:40:25Z</time>
      </trkpt>
      <trkpt lat="48.98547" lon="1.12667">
        <ele>147.6</ele>
        <time>2015-07-09T16:40:27Z</time>
      </trkpt>
      <trkpt lat="48.98535" lon="1.12666">
        <ele>147.5</ele>
        <time>2015-07-09T16:40:29Z</time>
      </trkpt>
      <trkpt lat="48.98522" lon="1.12666">
        <ele>147.5</ele>
        <time>2015-07-09T16:40:31Z</time>
      </trkpt>
      <trkpt lat="48.98509" lon="1.12665">
        <ele>147.2</ele>
        <time>2015-07-09T16:40:33Z</time>
      </trkpt>
      <trkpt lat="48.98496" lon="1.12666">
        <ele>147</ele>
        <time>2015-07-09T16:40:35Z</time>
      </trkpt>
      <trkpt lat="48.98483" lon="1.12664">
        <ele>146.8</ele>
        <time>2015-07-09T16:40:37Z</time>
      </trkpt>
      <trkpt lat="48.98471" lon="1.12663">
        <ele>146.5</ele>
        <time>2015-07-09T16:40:39Z</time>
      </trkpt>
      <trkpt lat="48.98459" lon="1.12662">
        <ele>146.4</ele>
        <time>2015-07-09T16:40:41Z</time>
      </trkpt>
      <trkpt lat="48.98448" lon="1.12661">
        <ele>146.1</ele>
        <time>2015-07-09T16:40:43Z</time>
      </trkpt>
      <trkpt lat="48.98438" lon="1.12661">
        <ele>145.9</ele>
        <time>2015-07-09T16:40:45Z</time>
      </trkpt>
      <trkpt lat="48.98427" lon="1.12659">
        <ele>145.7</ele>
        <time>2015-07-09T16:40:47Z</time>
      </trkpt>
      <trkpt lat="48.98418" lon="1.12659">
        <ele>145.6</ele>
        <time>2015-07-09T16:40:49Z</time>
      </trkpt>
      <trkpt lat="48.98408" lon="1.12659">
        <ele>145.4</ele>
        <time>2015-07-09T16:40:51Z</time>
      </trkpt>
      <trkpt lat="48.98398" lon="1.12658">
        <ele>145.3</ele>
        <time>2015-07-09T16:40:53Z</time>
      </trkpt>
      <trkpt lat="48.98388" lon="1.12657">
        <ele>145.2</ele>
        <time>2015-07-09T16:40:55Z</time>
      </trkpt>
      <trkpt lat="48.98378" lon="1.12657">
        <ele>145.2</ele>
        <time>2015-07-09T16:40:57Z</time>
      </trkpt>
      <trkpt lat="48.98368" lon="1.12655">
        <ele>145.1</ele>
        <time>2015-07-09T16:40:59Z</time>
      </trkpt>
      <trkpt lat="48.98359" lon="1.12654">
        <ele>145</ele>
        <time>2015-07-09T16:41:01Z</time>
      </trkpt>
      <trkpt lat="48.98345" lon="1.12652">
        <ele>144.9</ele>
        <time>2015-07-09T16:41:04Z</time>
      </trkpt>
      <trkpt lat="48.98335" lon="1.12651">
        <ele>144.9</ele>
        <time>2015-07-09T16:41:06Z</time>
      </trkpt>
      <trkpt lat="48.98324" lon="1.12649">
        <ele>145</ele>
        <time>2015-07-09T16:41:08Z</time>
      </trkpt>
      <trkpt lat="48.98315" lon="1.12649">
        <ele>145</ele>
        <time>2015-07-09T16:41:10Z</time>
      </trkpt>
      <trkpt lat="48.98305" lon="1.12649">
        <ele>145</ele>
        <time>2015-07-09T16:41:12Z</time>
      </trkpt>
      <trkpt lat="48.98293" lon="1.12649">
        <ele>145.1</ele>
        <time>2015-07-09T16:41:15Z</time>
      </trkpt>
      <trkpt lat="48.9828" lon="1.12649">
        <ele>145.1</ele>
        <time>2015-07-09T16:41:18Z</time>
      </trkpt>
      <trkpt lat="48.9827" lon="1.12649">
        <ele>145.2</ele>
        <time>2015-07-09T16:41:20Z</time>
      </trkpt>
      <trkpt lat="48.98261" lon="1.12648">
        <ele>145.2</ele>
        <time>2015-07-09T16:41:22Z</time>
      </trkpt>
      <trkpt lat="48.98251" lon="1.12646">
        <ele>145.2</ele>
        <time>2015-07-09T16:41:24Z</time>
      </trkpt>
      <trkpt lat="48.98241" lon="1.12644">
        <ele>145.3</ele>
        <time>2015-07-09T16:41:26Z</time>
      </trkpt>
      <trkpt lat="48.98232" lon="1.12641">
        <ele>145.4</ele>
        <time>2015-07-09T16:41:28Z</time>
      </trkpt>
      <trkpt lat="48.98223" lon="1.1264">
        <ele>145.5</ele>
        <time>2015-07-09T16:41:30Z</time>
      </trkpt>
      <trkpt lat="48.98213" lon="1.12639">
        <ele>145.5</ele>
        <time>2015-07-09T16:41:32Z</time>
      </trkpt>
      <trkpt lat="48.98203" lon="1.12638">
        <ele>145.8</ele>
        <time>2015-07-09T16:41:34Z</time>
      </trkpt>
      <trkpt lat="48.98194" lon="1.12637">
        <ele>145.9</ele>
        <time>2015-07-09T16:41:36Z</time>
      </trkpt>
      <trkpt lat="48.98185" lon="1.12636">
        <ele>145.9</ele>
        <time>2015-07-09T16:41:38Z</time>
      </trkpt>
      <trkpt lat="48.98175" lon="1.12635">
        <ele>146</ele>
        <time>2015-07-09T16:41:40Z</time>
      </trkpt>
      <trkpt lat="48.98165" lon="1.12634">
        <ele>146.2</ele>
        <time>2015-07-09T16:41:42Z</time>
      </trkpt>
      <trkpt lat="48.98156" lon="1.12633">
        <ele>146.3</ele>
        <time>2015-07-09T16:41:44Z</time>
      </trkpt>
      <trkpt lat="48.98146" lon="1.12632">
        <ele>146.5</ele>
        <time>2015-07-09T16:41:46Z</time>
      </trkpt>
      <trkpt lat="48.98137" lon="1.12632">
        <ele>146.6</ele>
        <time>2015-07-09T16:41:48Z</time>
      </trkpt>
      <trkpt lat="48.98127" lon="1.1263">
        <ele>146.7</ele>
        <time>2015-07-09T16:41:50Z</time>
      </trkpt>
      <trkpt lat="48.98117" lon="1.12629">
        <ele>146.8</ele>
        <time>2015-07-09T16:41:52Z</time>
      </trkpt>
      <trkpt lat="48.98107" lon="1.12628">
        <ele>146.8</ele>
        <time>2015-07-09T16:41:54Z</time>
      </trkpt>
      <trkpt lat="48.98098" lon="1.12627">
        <ele>146.9</ele>
        <time>2015-07-09T16:41:56Z</time>
      </trkpt>
      <trkpt lat="48.98088" lon="1.12625">
        <ele>147</ele>
        <time>2015-07-09T16:41:58Z</time>
      </trkpt>
      <trkpt lat="48.98078" lon="1.12624">
        <ele>147</ele>
        <time>2015-07-09T16:42:00Z</time>
      </trkpt>
      <trkpt lat="48.98069" lon="1.12622">
        <ele>147</ele>
        <time>2015-07-09T16:42:02Z</time>
      </trkpt>
      <trkpt lat="48.98059" lon="1.12621">
        <ele>147.1</ele>
        <time>2015-07-09T16:42:04Z</time>
      </trkpt>
      <trkpt lat="48.98049" lon="1.1262">
        <ele>147.1</ele>
        <time>2015-07-09T16:42:06Z</time>
      </trkpt>
      <trkpt lat="48.98039" lon="1.1262">
        <ele>147.1</ele>
        <time>2015-07-09T16:42:08Z</time>
      </trkpt>
      <trkpt lat="48.98029" lon="1.12619">
        <ele>147.2</ele>
        <time>2015-07-09T16:42:10Z</time>
      </trkpt>
      <trkpt lat="48.98019" lon="1.12618">
        <ele>147.2</ele>
        <time>2015-07-09T16:42:12Z</time>
      </trkpt>
      <trkpt lat="48.9801" lon="1.12617">
        <ele>147.4</ele>
        <time>2015-07-09T16:42:14Z</time>
      </trkpt>
      <trkpt lat="48.98" lon="1.12619">
        <ele>147.4</ele>
        <time>2015-07-09T16:42:16Z</time>
      </trkpt>
      <trkpt lat="48.97992" lon="1.12626">
        <ele>147.5</ele>
        <time>2015-07-09T16:42:18Z</time>
      </trkpt>
      <trkpt lat="48.97984" lon="1.12632">
        <ele>147.6</ele>
        <time>2015-07-09T16:42:20Z</time>
      </trkpt>
      <trkpt lat="48.97975" lon="1.12638">
        <ele>147.6</ele>
        <time>2015-07-09T16:42:22Z</time>
      </trkpt>
      <trkpt lat="48.97966" lon="1.12653">
        <ele>147.7</ele>
        <time>2015-07-09T16:42:25Z</time>
      </trkpt>
      <trkpt lat="48.97962" lon="1.12665">
        <ele>147.7</ele>
        <time>2015-07-09T16:42:27Z</time>
      </trkpt>
      <trkpt lat="48.97958" lon="1.12678">
        <ele>147.7</ele>
        <time>2015-07-09T16:42:29Z</time>
      </trkpt>
      <trkpt lat="48.97953" lon="1.1269">
        <ele>147.8</ele>
        <time>2015-07-09T16:42:31Z</time>
      </trkpt>
      <trkpt lat="48.97949" lon="1.12703">
        <ele>147.8</ele>
        <time>2015-07-09T16:42:33Z</time>
      </trkpt>
      <trkpt lat="48.97945" lon="1.12716">
        <ele>147.8</ele>
        <time>2015-07-09T16:42:35Z</time>
      </trkpt>
      <trkpt lat="48.97941" lon="1.12729">
        <ele>147.8</ele>
        <time>2015-07-09T16:42:37Z</time>
      </trkpt>
      <trkpt lat="48.97936" lon="1.12741">
        <ele>147.9</ele>
        <time>2015-07-09T16:42:39Z</time>
      </trkpt>
      <trkpt lat="48.9793" lon="1.12753">
        <ele>147.9</ele>
        <time>2015-07-09T16:42:41Z</time>
      </trkpt>
      <trkpt lat="48.97922" lon="1.12763">
        <ele>148</ele>
        <time>2015-07-09T16:42:43Z</time>
      </trkpt>
      <trkpt lat="48.97915" lon="1.12773">
        <ele>148</ele>
        <time>2015-07-09T16:42:45Z</time>
      </trkpt>
      <trkpt lat="48.97908" lon="1.12784">
        <ele>148.1</ele>
        <time>2015-07-09T16:42:47Z</time>
      </trkpt>
      <trkpt lat="48.97902" lon="1.12796">
        <ele>148.1</ele>
        <time>2015-07-09T16:42:49Z</time>
      </trkpt>
      <trkpt lat="48.97896" lon="1.12809">
        <ele>148.1</ele>
        <time>2015-07-09T16:42:51Z</time>
      </trkpt>
      <trkpt lat="48.97891" lon="1.12822">
        <ele>148.2</ele>
        <time>2015-07-09T16:42:53Z</time>
      </trkpt>
      <trkpt lat="48.97887" lon="1.12836">
        <ele>148.3</ele>
        <time>2015-07-09T16:42:55Z</time>
      </trkpt>
      <trkpt lat="48.97883" lon="1.1285">
        <ele>148.3</ele>
        <time>2015-07-09T16:42:57Z</time>
      </trkpt>
      <trkpt lat="48.97877" lon="1.12862">
        <ele>148.4</ele>
        <time>2015-07-09T16:42:59Z</time>
      </trkpt>
      <trkpt lat="48.97872" lon="1.12875">
        <ele>148.4</ele>
        <time>2015-07-09T16:43:01Z</time>
      </trkpt>
      <trkpt lat="48.97867" lon="1.12887">
        <ele>148.5</ele>
        <time>2015-07-09T16:43:03Z</time>
      </trkpt>
      <trkpt lat="48.97864" lon="1.12901">
        <ele>148.5</ele>
        <time>2015-07-09T16:43:05Z</time>
      </trkpt>
      <trkpt lat="48.97863" lon="1.12916">
        <ele>148.6</ele>
        <time>2015-07-09T16:43:07Z</time>
      </trkpt>
      <trkpt lat="48.97864" lon="1.12931">
        <ele>148.6</ele>
        <time>2015-07-09T16:43:09Z</time>
      </trkpt>
      <trkpt lat="48.97863" lon="1.12946">
        <ele>148.6</ele>
        <time>2015-07-09T16:43:11Z</time>
      </trkpt>
      <trkpt lat="48.97863" lon="1.12961">
        <ele>148.6</ele>
        <time>2015-07-09T16:43:13Z</time>
      </trkpt>
      <trkpt lat="48.97862" lon="1.12976">
        <ele>148.7</ele>
        <time>2015-07-09T16:43:15Z</time>
      </trkpt>
      <trkpt lat="48.97861" lon="1.12991">
        <ele>148.7</ele>
        <time>2015-07-09T16:43:17Z</time>
      </trkpt>
      <trkpt lat="48.97859" lon="1.1301">
        <ele>148.7</ele>
        <time>2015-07-09T16:43:20Z</time>
      </trkpt>
      <trkpt lat="48.97857" lon="1.1303">
        <ele>148.7</ele>
        <time>2015-07-09T16:43:23Z</time>
      </trkpt>
      <trkpt lat="48.97852" lon="1.1305">
        <ele>148.8</ele>
        <time>2015-07-09T16:43:26Z</time>
      </trkpt>
      <trkpt lat="48.97846" lon="1.13067">
        <ele>148.8</ele>
        <time>2015-07-09T16:43:29Z</time>
      </trkpt>
      <trkpt lat="48.97838" lon="1.13083">
        <ele>148.8</ele>
        <time>2015-07-09T16:43:32Z</time>
      </trkpt>
      <trkpt lat="48.97831" lon="1.13093">
        <ele>148.8</ele>
        <time>2015-07-09T16:43:34Z</time>
      </trkpt>
      <trkpt lat="48.97822" lon="1.13102">
        <ele>148.8</ele>
        <time>2015-07-09T16:43:36Z</time>
      </trkpt>
      <trkpt lat="48.97813" lon="1.13111">
        <ele>148.8</ele>
        <time>2015-07-09T16:43:38Z</time>
      </trkpt>
      <trkpt lat="48.97803" lon="1.13122">
        <ele>148.8</ele>
        <time>2015-07-09T16:43:40Z</time>
      </trkpt>
      <trkpt lat="48.97795" lon="1.13136">
        <ele>148.9</ele>
        <time>2015-07-09T16:43:42Z</time>
      </trkpt>
      <trkpt lat="48.97789" lon="1.13148">
        <ele>148.8</ele>
        <time>2015-07-09T16:43:44Z</time>
      </trkpt>
      <trkpt lat="48.97783" lon="1.1316">
        <ele>148.7</ele>
        <time>2015-07-09T16:43:46Z</time>
      </trkpt>
      <trkpt lat="48.97776" lon="1.13173">
        <ele>148.7</ele>
        <time>2015-07-09T16:43:48Z</time>
      </trkpt>
      <trkpt lat="48.97767" lon="1.13185">
        <ele>148.6</ele>
        <time>2015-07-09T16:43:50Z</time>
      </trkpt>
      <trkpt lat="48.97759" lon="1.13198">
        <ele>148.5</ele>
        <time>2015-07-09T16:43:52Z</time>
      </trkpt>
      <trkpt lat="48.97752" lon="1.13214">
        <ele>148.4</ele>
        <time>2015-07-09T16:43:54Z</time>
      </trkpt>
      <trkpt lat="48.97749" lon="1.13231">
        <ele>148.3</ele>
        <time>2015-07-09T16:43:56Z</time>
      </trkpt>
      <trkpt lat="48.97747" lon="1.13247">
        <ele>148.1</ele>
        <time>2015-07-09T16:43:58Z</time>
      </trkpt>
      <trkpt lat="48.97745" lon="1.13264">
        <ele>147.9</ele>
        <time>2015-07-09T16:44:00Z</time>
      </trkpt>
      <trkpt lat="48.97744" lon="1.13281">
        <ele>147.7</ele>
        <time>2015-07-09T16:44:02Z</time>
      </trkpt>
      <trkpt lat="48.97745" lon="1.13298">
        <ele>147.5</ele>
        <time>2015-07-09T16:44:04Z</time>
      </trkpt>
      <trkpt lat="48.97746" lon="1.13316">
        <ele>147.3</ele>
        <time>2015-07-09T16:44:06Z</time>
      </trkpt>
      <trkpt lat="48.97747" lon="1.13332">
        <ele>147.2</ele>
        <time>2015-07-09T16:44:08Z</time>
      </trkpt>
      <trkpt lat="48.97748" lon="1.13349">
        <ele>146.9</ele>
        <time>2015-07-09T16:44:10Z</time>
      </trkpt>
      <trkpt lat="48.9775" lon="1.13368">
        <ele>146.6</ele>
        <time>2015-07-09T16:44:12Z</time>
      </trkpt>
      <trkpt lat="48.97752" lon="1.13386">
        <ele>146.4</ele>
        <time>2015-07-09T16:44:14Z</time>
      </trkpt>
      <trkpt lat="48.97755" lon="1.13404">
        <ele>146.2</ele>
        <time>2015-07-09T16:44:16Z</time>
      </trkpt>
      <trkpt lat="48.97758" lon="1.13422">
        <ele>145.9</ele>
        <time>2015-07-09T16:44:18Z</time>
      </trkpt>
      <trkpt lat="48.97759" lon="1.1344">
        <ele>145.7</ele>
        <time>2015-07-09T16:44:20Z</time>
      </trkpt>
      <trkpt lat="48.9776" lon="1.13458">
        <ele>145.4</ele>
        <time>2015-07-09T16:44:22Z</time>
      </trkpt>
      <trkpt lat="48.97761" lon="1.13474">
        <ele>145.1</ele>
        <time>2015-07-09T16:44:24Z</time>
      </trkpt>
      <trkpt lat="48.97763" lon="1.13494">
        <ele>144.8</ele>
        <time>2015-07-09T16:44:27Z</time>
      </trkpt>
      <trkpt lat="48.97766" lon="1.13507">
        <ele>144.6</ele>
        <time>2015-07-09T16:44:29Z</time>
      </trkpt>
      <trkpt lat="48.9777" lon="1.13526">
        <ele>144.4</ele>
        <time>2015-07-09T16:44:31Z</time>
      </trkpt>
      <trkpt lat="48.97771" lon="1.13547">
        <ele>144</ele>
        <time>2015-07-09T16:44:33Z</time>
      </trkpt>
      <trkpt lat="48.97774" lon="1.13565">
        <ele>143.7</ele>
        <time>2015-07-09T16:44:35Z</time>
      </trkpt>
      <trkpt lat="48.97777" lon="1.13583">
        <ele>143.3</ele>
        <time>2015-07-09T16:44:37Z</time>
      </trkpt>
      <trkpt lat="48.9778" lon="1.136">
        <ele>143</ele>
        <time>2015-07-09T16:44:39Z</time>
      </trkpt>
      <trkpt lat="48.97783" lon="1.13619">
        <ele>142.6</ele>
        <time>2015-07-09T16:44:41Z</time>
      </trkpt>
      <trkpt lat="48.97785" lon="1.13638">
        <ele>142.4</ele>
        <time>2015-07-09T16:44:43Z</time>
      </trkpt>
      <trkpt lat="48.97784" lon="1.13656">
        <ele>142.1</ele>
        <time>2015-07-09T16:44:45Z</time>
      </trkpt>
      <trkpt lat="48.97784" lon="1.13672">
        <ele>141.8</ele>
        <time>2015-07-09T16:44:47Z</time>
      </trkpt>
      <trkpt lat="48.97784" lon="1.1369">
        <ele>141.6</ele>
        <time>2015-07-09T16:44:49Z</time>
      </trkpt>
      <trkpt lat="48.97785" lon="1.13705">
        <ele>141.4</ele>
        <time>2015-07-09T16:44:51Z</time>
      </trkpt>
      <trkpt lat="48.97785" lon="1.1372">
        <ele>141.1</ele>
        <time>2015-07-09T16:44:53Z</time>
      </trkpt>
      <trkpt lat="48.97788" lon="1.13734">
        <ele>140.8</ele>
        <time>2015-07-09T16:44:55Z</time>
      </trkpt>
      <trkpt lat="48.97788" lon="1.13751">
        <ele>140.6</ele>
        <time>2015-07-09T16:44:57Z</time>
      </trkpt>
      <trkpt lat="48.97789" lon="1.13765">
        <ele>140.4</ele>
        <time>2015-07-09T16:44:59Z</time>
      </trkpt>
      <trkpt lat="48.97788" lon="1.13783">
        <ele>140.1</ele>
        <time>2015-07-09T16:45:02Z</time>
      </trkpt>
      <trkpt lat="48.97787" lon="1.13797">
        <ele>139.9</ele>
        <time>2015-07-09T16:45:04Z</time>
      </trkpt>
      <trkpt lat="48.97787" lon="1.13812">
        <ele>139.8</ele>
        <time>2015-07-09T16:45:06Z</time>
      </trkpt>
      <trkpt lat="48.97786" lon="1.13827">
        <ele>139.7</ele>
        <time>2015-07-09T16:45:08Z</time>
      </trkpt>
      <trkpt lat="48.97784" lon="1.13844">
        <ele>139.6</ele>
        <time>2015-07-09T16:45:10Z</time>
      </trkpt>
      <trkpt lat="48.97783" lon="1.13861">
        <ele>139.5</ele>
        <time>2015-07-09T16:45:12Z</time>
      </trkpt>
      <trkpt lat="48.97781" lon="1.13877">
        <ele>139.4</ele>
        <time>2015-07-09T16:45:14Z</time>
      </trkpt>
      <trkpt lat="48.97777" lon="1.13892">
        <ele>139.4</ele>
        <time>2015-07-09T16:45:16Z</time>
      </trkpt>
      <trkpt lat="48.97771" lon="1.13903">
        <ele>139.3</ele>
        <time>2015-07-09T16:45:18Z</time>
      </trkpt>
      <trkpt lat="48.97764" lon="1.13915">
        <ele>139.3</ele>
        <time>2015-07-09T16:45:20Z</time>
      </trkpt>
      <trkpt lat="48.97756" lon="1.13927">
        <ele>139.3</ele>
        <time>2015-07-09T16:45:22Z</time>
      </trkpt>
      <trkpt lat="48.97748" lon="1.13938">
        <ele>139.2</ele>
        <time>2015-07-09T16:45:24Z</time>
      </trkpt>
      <trkpt lat="48.97739" lon="1.1395">
        <ele>139.1</ele>
        <time>2015-07-09T16:45:26Z</time>
      </trkpt>
      <trkpt lat="48.97732" lon="1.13961">
        <ele>139</ele>
        <time>2015-07-09T16:45:28Z</time>
      </trkpt>
      <trkpt lat="48.97726" lon="1.13974">
        <ele>139</ele>
        <time>2015-07-09T16:45:30Z</time>
      </trkpt>
      <trkpt lat="48.97721" lon="1.13989">
        <ele>139</ele>
        <time>2015-07-09T16:45:32Z</time>
      </trkpt>
      <trkpt lat="48.97717" lon="1.14004">
        <ele>139</ele>
        <time>2015-07-09T16:45:34Z</time>
      </trkpt>
      <trkpt lat="48.97714" lon="1.14019">
        <ele>139</ele>
        <time>2015-07-09T16:45:36Z</time>
      </trkpt>
      <trkpt lat="48.97713" lon="1.14037">
        <ele>139</ele>
        <time>2015-07-09T16:45:38Z</time>
      </trkpt>
      <trkpt lat="48.97712" lon="1.14053">
        <ele>139</ele>
        <time>2015-07-09T16:45:40Z</time>
      </trkpt>
      <trkpt lat="48.97713" lon="1.1407">
        <ele>139</ele>
        <time>2015-07-09T16:45:42Z</time>
      </trkpt>
      <trkpt lat="48.97713" lon="1.14087">
        <ele>139</ele>
        <time>2015-07-09T16:45:44Z</time>
      </trkpt>
      <trkpt lat="48.97712" lon="1.14104">
        <ele>139</ele>
        <time>2015-07-09T16:45:46Z</time>
      </trkpt>
      <trkpt lat="48.9771" lon="1.14121">
        <ele>139</ele>
        <time>2015-07-09T16:45:48Z</time>
      </trkpt>
      <trkpt lat="48.97708" lon="1.14137">
        <ele>138.9</ele>
        <time>2015-07-09T16:45:50Z</time>
      </trkpt>
      <trkpt lat="48.97705" lon="1.14154">
        <ele>138.9</ele>
        <time>2015-07-09T16:45:52Z</time>
      </trkpt>
      <trkpt lat="48.97702" lon="1.14172">
        <ele>138.8</ele>
        <time>2015-07-09T16:45:54Z</time>
      </trkpt>
      <trkpt lat="48.97702" lon="1.14192">
        <ele>138.7</ele>
        <time>2015-07-09T16:45:56Z</time>
      </trkpt>
      <trkpt lat="48.97703" lon="1.14212">
        <ele>138.7</ele>
        <time>2015-07-09T16:45:58Z</time>
      </trkpt>
      <trkpt lat="48.97703" lon="1.14234">
        <ele>138.5</ele>
        <time>2015-07-09T16:46:00Z</time>
      </trkpt>
      <trkpt lat="48.97703" lon="1.14255">
        <ele>138.4</ele>
        <time>2015-07-09T16:46:02Z</time>
      </trkpt>
      <trkpt lat="48.97702" lon="1.14275">
        <ele>138.3</ele>
        <time>2015-07-09T16:46:04Z</time>
      </trkpt>
      <trkpt lat="48.977" lon="1.14293">
        <ele>138.2</ele>
        <time>2015-07-09T16:46:06Z</time>
      </trkpt>
      <trkpt lat="48.977" lon="1.14311">
        <ele>138.1</ele>
        <time>2015-07-09T16:46:08Z</time>
      </trkpt>
      <trkpt lat="48.977" lon="1.14327">
        <ele>138.1</ele>
        <time>2015-07-09T16:46:10Z</time>
      </trkpt>
      <trkpt lat="48.97699" lon="1.14343">
        <ele>138</ele>
        <time>2015-07-09T16:46:12Z</time>
      </trkpt>
      <trkpt lat="48.97698" lon="1.14358">
        <ele>138</ele>
        <time>2015-07-09T16:46:14Z</time>
      </trkpt>
      <trkpt lat="48.97697" lon="1.14374">
        <ele>137.9</ele>
        <time>2015-07-09T16:46:16Z</time>
      </trkpt>
      <trkpt lat="48.97697" lon="1.1439">
        <ele>137.9</ele>
        <time>2015-07-09T16:46:18Z</time>
      </trkpt>
      <trkpt lat="48.97696" lon="1.14406">
        <ele>137.8</ele>
        <time>2015-07-09T16:46:20Z</time>
      </trkpt>
      <trkpt lat="48.97695" lon="1.14423">
        <ele>137.8</ele>
        <time>2015-07-09T16:46:22Z</time>
      </trkpt>
      <trkpt lat="48.97695" lon="1.1444">
        <ele>137.9</ele>
        <time>2015-07-09T16:46:24Z</time>
      </trkpt>
      <trkpt lat="48.97694" lon="1.14457">
        <ele>137.9</ele>
        <time>2015-07-09T16:46:26Z</time>
      </trkpt>
      <trkpt lat="48.97694" lon="1.14475">
        <ele>137.9</ele>
        <time>2015-07-09T16:46:28Z</time>
      </trkpt>
      <trkpt lat="48.97694" lon="1.14491">
        <ele>138</ele>
        <time>2015-07-09T16:46:30Z</time>
      </trkpt>
      <trkpt lat="48.97694" lon="1.14509">
        <ele>138</ele>
        <time>2015-07-09T16:46:32Z</time>
      </trkpt>
      <trkpt lat="48.97695" lon="1.14526">
        <ele>138</ele>
        <time>2015-07-09T16:46:34Z</time>
      </trkpt>
      <trkpt lat="48.97696" lon="1.14541">
        <ele>137.9</ele>
        <time>2015-07-09T16:46:36Z</time>
      </trkpt>
      <trkpt lat="48.97692" lon="1.14556">
        <ele>137.8</ele>
        <time>2015-07-09T16:46:40Z</time>
      </trkpt>
      <trkpt lat="48.97685" lon="1.14567">
        <ele>137.7</ele>
        <time>2015-07-09T16:46:46Z</time>
      </trkpt>
      <trkpt lat="48.97687" lon="1.14583">
        <ele>137.6</ele>
        <time>2015-07-09T16:46:52Z</time>
      </trkpt>
      <trkpt lat="48.97688" lon="1.14599">
        <ele>137.4</ele>
        <time>2015-07-09T16:46:58Z</time>
      </trkpt>
      <trkpt lat="48.97687" lon="1.14616">
        <ele>137.3</ele>
        <time>2015-07-09T16:47:01Z</time>
      </trkpt>
      <trkpt lat="48.97685" lon="1.14635">
        <ele>137.3</ele>
        <time>2015-07-09T16:47:04Z</time>
      </trkpt>
      <trkpt lat="48.97682" lon="1.14655">
        <ele>137.3</ele>
        <time>2015-07-09T16:47:07Z</time>
      </trkpt>
      <trkpt lat="48.9768" lon="1.1467">
        <ele>137.2</ele>
        <time>2015-07-09T16:47:09Z</time>
      </trkpt>
      <trkpt lat="48.97679" lon="1.14684">
        <ele>137.2</ele>
        <time>2015-07-09T16:47:11Z</time>
      </trkpt>
      <trkpt lat="48.97677" lon="1.14698">
        <ele>137.2</ele>
        <time>2015-07-09T16:47:13Z</time>
      </trkpt>
      <trkpt lat="48.97675" lon="1.14712">
        <ele>137.2</ele>
        <time>2015-07-09T16:47:15Z</time>
      </trkpt>
      <trkpt lat="48.97674" lon="1.14726">
        <ele>137.2</ele>
        <time>2015-07-09T16:47:17Z</time>
      </trkpt>
      <trkpt lat="48.97672" lon="1.14741">
        <ele>137.1</ele>
        <time>2015-07-09T16:47:19Z</time>
      </trkpt>
      <trkpt lat="48.97671" lon="1.14755">
        <ele>137.1</ele>
        <time>2015-07-09T16:47:21Z</time>
      </trkpt>
      <trkpt lat="48.97669" lon="1.14768">
        <ele>137.1</ele>
        <time>2015-07-09T16:47:23Z</time>
      </trkpt>
      <trkpt lat="48.97667" lon="1.14783">
        <ele>137</ele>
        <time>2015-07-09T16:47:25Z</time>
      </trkpt>
      <trkpt lat="48.97665" lon="1.14797">
        <ele>137</ele>
        <time>2015-07-09T16:47:27Z</time>
      </trkpt>
      <trkpt lat="48.97663" lon="1.14811">
        <ele>136.9</ele>
        <time>2015-07-09T16:47:29Z</time>
      </trkpt>
      <trkpt lat="48.97661" lon="1.14825">
        <ele>136.8</ele>
        <time>2015-07-09T16:47:31Z</time>
      </trkpt>
      <trkpt lat="48.97659" lon="1.1484">
        <ele>136.7</ele>
        <time>2015-07-09T16:47:33Z</time>
      </trkpt>
      <trkpt lat="48.97657" lon="1.14857">
        <ele>136.6</ele>
        <time>2015-07-09T16:47:36Z</time>
      </trkpt>
      <trkpt lat="48.97656" lon="1.14872">
        <ele>136.4</ele>
        <time>2015-07-09T16:47:41Z</time>
      </trkpt>
      <trkpt lat="48.97654" lon="1.14886">
        <ele>136.3</ele>
        <time>2015-07-09T16:47:56Z</time>
      </trkpt>
      <trkpt lat="48.97658" lon="1.14899">
        <ele>136.3</ele>
        <time>2015-07-09T16:47:59Z</time>
      </trkpt>
      <trkpt lat="48.97667" lon="1.14913">
        <ele>136.3</ele>
        <time>2015-07-09T16:48:02Z</time>
      </trkpt>
      <trkpt lat="48.97673" lon="1.14924">
        <ele>136.3</ele>
        <time>2015-07-09T16:48:04Z</time>
      </trkpt>
      <trkpt lat="48.97678" lon="1.14936">
        <ele>136.3</ele>
        <time>2015-07-09T16:48:06Z</time>
      </trkpt>
      <trkpt lat="48.97682" lon="1.14949">
        <ele>136.4</ele>
        <time>2015-07-09T16:48:08Z</time>
      </trkpt>
      <trkpt lat="48.97688" lon="1.14961">
        <ele>136.4</ele>
        <time>2015-07-09T16:48:10Z</time>
      </trkpt>
      <trkpt lat="48.97693" lon="1.14972">
        <ele>136.4</ele>
        <time>2015-07-09T16:48:12Z</time>
      </trkpt>
      <trkpt lat="48.97698" lon="1.14985">
        <ele>136.5</ele>
        <time>2015-07-09T16:48:14Z</time>
      </trkpt>
      <trkpt lat="48.97703" lon="1.14998">
        <ele>136.6</ele>
        <time>2015-07-09T16:48:16Z</time>
      </trkpt>
      <trkpt lat="48.97706" lon="1.15012">
        <ele>136.7</ele>
        <time>2015-07-09T16:48:18Z</time>
      </trkpt>
      <trkpt lat="48.97708" lon="1.15032">
        <ele>136.9</ele>
        <time>2015-07-09T16:48:21Z</time>
      </trkpt>
      <trkpt lat="48.97705" lon="1.15052">
        <ele>137.1</ele>
        <time>2015-07-09T16:48:24Z</time>
      </trkpt>
      <trkpt lat="48.97701" lon="1.15071">
        <ele>137.4</ele>
        <time>2015-07-09T16:48:27Z</time>
      </trkpt>
      <trkpt lat="48.97698" lon="1.15084">
        <ele>137.5</ele>
        <time>2015-07-09T16:48:29Z</time>
      </trkpt>
      <trkpt lat="48.97695" lon="1.15103">
        <ele>137.7</ele>
        <time>2015-07-09T16:48:32Z</time>
      </trkpt>
      <trkpt lat="48.97693" lon="1.15122">
        <ele>137.9</ele>
        <time>2015-07-09T16:48:35Z</time>
      </trkpt>
      <trkpt lat="48.9769" lon="1.15138">
        <ele>138.1</ele>
        <time>2015-07-09T16:48:38Z</time>
      </trkpt>
      <trkpt lat="48.97688" lon="1.15155">
        <ele>138.4</ele>
        <time>2015-07-09T16:48:41Z</time>
      </trkpt>
      <trkpt lat="48.97685" lon="1.15171">
        <ele>138.7</ele>
        <time>2015-07-09T16:48:44Z</time>
      </trkpt>
      <trkpt lat="48.97682" lon="1.15186">
        <ele>139.1</ele>
        <time>2015-07-09T16:48:47Z</time>
      </trkpt>
      <trkpt lat="48.97679" lon="1.15204">
        <ele>139.5</ele>
        <time>2015-07-09T16:48:50Z</time>
      </trkpt>
      <trkpt lat="48.97675" lon="1.15222">
        <ele>139.9</ele>
        <time>2015-07-09T16:48:53Z</time>
      </trkpt>
      <trkpt lat="48.97672" lon="1.15241">
        <ele>140.3</ele>
        <time>2015-07-09T16:48:56Z</time>
      </trkpt>
      <trkpt lat="48.97669" lon="1.1526">
        <ele>140.7</ele>
        <time>2015-07-09T16:48:59Z</time>
      </trkpt>
      <trkpt lat="48.97665" lon="1.15278">
        <ele>141.1</ele>
        <time>2015-07-09T16:49:02Z</time>
      </trkpt>
      <trkpt lat="48.97661" lon="1.15291">
        <ele>141.5</ele>
        <time>2015-07-09T16:49:05Z</time>
      </trkpt>
      <trkpt lat="48.9765" lon="1.15298">
        <ele>142</ele>
        <time>2015-07-09T16:49:09Z</time>
      </trkpt>
      <trkpt lat="48.97637" lon="1.15302">
        <ele>142.3</ele>
        <time>2015-07-09T16:49:12Z</time>
      </trkpt>
      <trkpt lat="48.97625" lon="1.15306">
        <ele>142.6</ele>
        <time>2015-07-09T16:49:15Z</time>
      </trkpt>
      <trkpt lat="48.97612" lon="1.15309">
        <ele>143</ele>
        <time>2015-07-09T16:49:18Z</time>
      </trkpt>
      <trkpt lat="48.97599" lon="1.15311">
        <ele>143.3</ele>
        <time>2015-07-09T16:49:21Z</time>
      </trkpt>
      <trkpt lat="48.97587" lon="1.15312">
        <ele>143.6</ele>
        <time>2015-07-09T16:49:24Z</time>
      </trkpt>
      <trkpt lat="48.97574" lon="1.15312">
        <ele>144</ele>
        <time>2015-07-09T16:49:27Z</time>
      </trkpt>
      <trkpt lat="48.97561" lon="1.15311">
        <ele>144.4</ele>
        <time>2015-07-09T16:49:30Z</time>
      </trkpt>
      <trkpt lat="48.97548" lon="1.15309">
        <ele>144.6</ele>
        <time>2015-07-09T16:49:33Z</time>
      </trkpt>
      <trkpt lat="48.97536" lon="1.15308">
        <ele>145.1</ele>
        <time>2015-07-09T16:49:36Z</time>
      </trkpt>
      <trkpt lat="48.97524" lon="1.15305">
        <ele>145.5</ele>
        <time>2015-07-09T16:49:39Z</time>
      </trkpt>
      <trkpt lat="48.97511" lon="1.15301">
        <ele>145.8</ele>
        <time>2015-07-09T16:49:42Z</time>
      </trkpt>
      <trkpt lat="48.97499" lon="1.15296">
        <ele>146.1</ele>
        <time>2015-07-09T16:49:45Z</time>
      </trkpt>
      <trkpt lat="48.97485" lon="1.15293">
        <ele>146.3</ele>
        <time>2015-07-09T16:49:48Z</time>
      </trkpt>
      <trkpt lat="48.97472" lon="1.15291">
        <ele>146.5</ele>
        <time>2015-07-09T16:49:51Z</time>
      </trkpt>
      <trkpt lat="48.97463" lon="1.15295">
        <ele>146.6</ele>
        <time>2015-07-09T16:49:53Z</time>
      </trkpt>
      <trkpt lat="48.97453" lon="1.153">
        <ele>146.8</ele>
        <time>2015-07-09T16:49:55Z</time>
      </trkpt>
      <trkpt lat="48.97444" lon="1.15306">
        <ele>146.9</ele>
        <time>2015-07-09T16:49:57Z</time>
      </trkpt>
      <trkpt lat="48.97434" lon="1.15311">
        <ele>147.1</ele>
        <time>2015-07-09T16:49:59Z</time>
      </trkpt>
      <trkpt lat="48.97425" lon="1.15317">
        <ele>147.2</ele>
        <time>2015-07-09T16:50:01Z</time>
      </trkpt>
      <trkpt lat="48.97415" lon="1.15323">
        <ele>147.3</ele>
        <time>2015-07-09T16:50:03Z</time>
      </trkpt>
      <trkpt lat="48.97405" lon="1.15329">
        <ele>147.4</ele>
        <time>2015-07-09T16:50:05Z</time>
      </trkpt>
      <trkpt lat="48.97395" lon="1.15333">
        <ele>147.5</ele>
        <time>2015-07-09T16:50:07Z</time>
      </trkpt>
      <trkpt lat="48.97385" lon="1.15337">
        <ele>147.5</ele>
        <time>2015-07-09T16:50:09Z</time>
      </trkpt>
      <trkpt lat="48.97374" lon="1.1534">
        <ele>147.6</ele>
        <time>2015-07-09T16:50:11Z</time>
      </trkpt>
      <trkpt lat="48.97363" lon="1.15342">
        <ele>147.6</ele>
        <time>2015-07-09T16:50:13Z</time>
      </trkpt>
      <trkpt lat="48.97352" lon="1.15344">
        <ele>147.5</ele>
        <time>2015-07-09T16:50:15Z</time>
      </trkpt>
      <trkpt lat="48.97341" lon="1.15346">
        <ele>147.5</ele>
        <time>2015-07-09T16:50:17Z</time>
      </trkpt>
      <trkpt lat="48.9733" lon="1.15347">
        <ele>147.5</ele>
        <time>2015-07-09T16:50:19Z</time>
      </trkpt>
      <trkpt lat="48.97319" lon="1.1535">
        <ele>147.5</ele>
        <time>2015-07-09T16:50:21Z</time>
      </trkpt>
      <trkpt lat="48.97308" lon="1.15353">
        <ele>147.5</ele>
        <time>2015-07-09T16:50:23Z</time>
      </trkpt>
      <trkpt lat="48.97297" lon="1.15357">
        <ele>147.4</ele>
        <time>2015-07-09T16:50:25Z</time>
      </trkpt>
      <trkpt lat="48.97286" lon="1.15363">
        <ele>147.3</ele>
        <time>2015-07-09T16:50:27Z</time>
      </trkpt>
      <trkpt lat="48.97275" lon="1.15366">
        <ele>147.3</ele>
        <time>2015-07-09T16:50:29Z</time>
      </trkpt>
      <trkpt lat="48.97262" lon="1.15368">
        <ele>147.2</ele>
        <time>2015-07-09T16:50:31Z</time>
      </trkpt>
      <trkpt lat="48.97249" lon="1.15367">
        <ele>147</ele>
        <time>2015-07-09T16:50:33Z</time>
      </trkpt>
      <trkpt lat="48.97236" lon="1.15363">
        <ele>146.8</ele>
        <time>2015-07-09T16:50:35Z</time>
      </trkpt>
      <trkpt lat="48.97224" lon="1.15355">
        <ele>146.6</ele>
        <time>2015-07-09T16:50:37Z</time>
      </trkpt>
      <trkpt lat="48.97213" lon="1.15346">
        <ele>146.4</ele>
        <time>2015-07-09T16:50:39Z</time>
      </trkpt>
      <trkpt lat="48.97202" lon="1.15335">
        <ele>146.2</ele>
        <time>2015-07-09T16:50:41Z</time>
      </trkpt>
      <trkpt lat="48.97193" lon="1.15322">
        <ele>145.9</ele>
        <time>2015-07-09T16:50:43Z</time>
      </trkpt>
      <trkpt lat="48.97184" lon="1.1531">
        <ele>145.6</ele>
        <time>2015-07-09T16:50:45Z</time>
      </trkpt>
      <trkpt lat="48.97175" lon="1.15299">
        <ele>145.4</ele>
        <time>2015-07-09T16:50:47Z</time>
      </trkpt>
      <trkpt lat="48.97167" lon="1.15288">
        <ele>145.1</ele>
        <time>2015-07-09T16:50:49Z</time>
      </trkpt>
      <trkpt lat="48.97159" lon="1.15277">
        <ele>144.9</ele>
        <time>2015-07-09T16:50:51Z</time>
      </trkpt>
      <trkpt lat="48.97152" lon="1.15264">
        <ele>144.7</ele>
        <time>2015-07-09T16:50:53Z</time>
      </trkpt>
      <trkpt lat="48.97143" lon="1.15251">
        <ele>144.5</ele>
        <time>2015-07-09T16:50:55Z</time>
      </trkpt>
      <trkpt lat="48.97135" lon="1.15242">
        <ele>144.3</ele>
        <time>2015-07-09T16:50:57Z</time>
      </trkpt>
      <trkpt lat="48.97126" lon="1.15239">
        <ele>144.1</ele>
        <time>2015-07-09T16:50:59Z</time>
      </trkpt>
      <trkpt lat="48.97113" lon="1.15238">
        <ele>143.9</ele>
        <time>2015-07-09T16:51:01Z</time>
      </trkpt>
      <trkpt lat="48.97102" lon="1.15239">
        <ele>143.5</ele>
        <time>2015-07-09T16:51:03Z</time>
      </trkpt>
      <trkpt lat="48.97091" lon="1.1524">
        <ele>143.2</ele>
        <time>2015-07-09T16:51:05Z</time>
      </trkpt>
      <trkpt lat="48.97079" lon="1.15241">
        <ele>143</ele>
        <time>2015-07-09T16:51:07Z</time>
      </trkpt>
      <trkpt lat="48.97068" lon="1.15244">
        <ele>142.7</ele>
        <time>2015-07-09T16:51:09Z</time>
      </trkpt>
      <trkpt lat="48.97057" lon="1.15244">
        <ele>142.4</ele>
        <time>2015-07-09T16:51:11Z</time>
      </trkpt>
      <trkpt lat="48.97047" lon="1.15241">
        <ele>142.2</ele>
        <time>2015-07-09T16:51:13Z</time>
      </trkpt>
      <trkpt lat="48.97035" lon="1.15234">
        <ele>141.9</ele>
        <time>2015-07-09T16:51:15Z</time>
      </trkpt>
      <trkpt lat="48.97022" lon="1.15223">
        <ele>141.5</ele>
        <time>2015-07-09T16:51:17Z</time>
      </trkpt>
      <trkpt lat="48.9701" lon="1.15212">
        <ele>141.1</ele>
        <time>2015-07-09T16:51:19Z</time>
      </trkpt>
      <trkpt lat="48.96998" lon="1.15199">
        <ele>140.5</ele>
        <time>2015-07-09T16:51:21Z</time>
      </trkpt>
      <trkpt lat="48.96989" lon="1.1519">
        <ele>139.7</ele>
        <time>2015-07-09T16:51:23Z</time>
      </trkpt>
      <trkpt lat="48.96979" lon="1.15197">
        <ele>138.4</ele>
        <time>2015-07-09T16:51:26Z</time>
      </trkpt>
      <trkpt lat="48.96976" lon="1.15212">
        <ele>137.3</ele>
        <time>2015-07-09T16:51:29Z</time>
      </trkpt>
      <trkpt lat="48.96979" lon="1.15228">
        <ele>136.4</ele>
        <time>2015-07-09T16:51:32Z</time>
      </trkpt>
      <trkpt lat="48.96981" lon="1.15243">
        <ele>135.7</ele>
        <time>2015-07-09T16:51:35Z</time>
      </trkpt>
      <trkpt lat="48.96987" lon="1.15259">
        <ele>135</ele>
        <time>2015-07-09T16:51:38Z</time>
      </trkpt>
      <trkpt lat="48.96991" lon="1.15277">
        <ele>134.5</ele>
        <time>2015-07-09T16:51:41Z</time>
      </trkpt>
      <trkpt lat="48.96996" lon="1.15295">
        <ele>134.1</ele>
        <time>2015-07-09T16:51:44Z</time>
      </trkpt>
      <trkpt lat="48.97" lon="1.15308">
        <ele>133.9</ele>
        <time>2015-07-09T16:51:46Z</time>
      </trkpt>
      <trkpt lat="48.97005" lon="1.15322">
        <ele>133.7</ele>
        <time>2015-07-09T16:51:48Z</time>
      </trkpt>
      <trkpt lat="48.97009" lon="1.15337">
        <ele>133.5</ele>
        <time>2015-07-09T16:51:50Z</time>
      </trkpt>
      <trkpt lat="48.97012" lon="1.15351">
        <ele>133.3</ele>
        <time>2015-07-09T16:51:52Z</time>
      </trkpt>
      <trkpt lat="48.97015" lon="1.15366">
        <ele>133.2</ele>
        <time>2015-07-09T16:51:54Z</time>
      </trkpt>
      <trkpt lat="48.97018" lon="1.15381">
        <ele>133.1</ele>
        <time>2015-07-09T16:51:56Z</time>
      </trkpt>
      <trkpt lat="48.97021" lon="1.15396">
        <ele>132.9</ele>
        <time>2015-07-09T16:51:58Z</time>
      </trkpt>
      <trkpt lat="48.97024" lon="1.15411">
        <ele>132.9</ele>
        <time>2015-07-09T16:52:00Z</time>
      </trkpt>
      <trkpt lat="48.97028" lon="1.15425">
        <ele>132.9</ele>
        <time>2015-07-09T16:52:02Z</time>
      </trkpt>
      <trkpt lat="48.97033" lon="1.15437">
        <ele>132.9</ele>
        <time>2015-07-09T16:52:04Z</time>
      </trkpt>
      <trkpt lat="48.97039" lon="1.1545">
        <ele>133</ele>
        <time>2015-07-09T16:52:06Z</time>
      </trkpt>
      <trkpt lat="48.97046" lon="1.1546">
        <ele>133</ele>
        <time>2015-07-09T16:52:08Z</time>
      </trkpt>
      <trkpt lat="48.97054" lon="1.15468">
        <ele>133.1</ele>
        <time>2015-07-09T16:52:10Z</time>
      </trkpt>
      <trkpt lat="48.97065" lon="1.15478">
        <ele>133.3</ele>
        <time>2015-07-09T16:52:13Z</time>
      </trkpt>
      <trkpt lat="48.97074" lon="1.15486">
        <ele>133.5</ele>
        <time>2015-07-09T16:52:16Z</time>
      </trkpt>
      <trkpt lat="48.97084" lon="1.15495">
        <ele>133.7</ele>
        <time>2015-07-09T16:52:19Z</time>
      </trkpt>
      <trkpt lat="48.97075" lon="1.15507">
        <ele>133.9</ele>
        <time>2015-07-09T16:52:24Z</time>
      </trkpt>
      <trkpt lat="48.97062" lon="1.15511">
        <ele>134.1</ele>
        <time>2015-07-09T16:52:27Z</time>
      </trkpt>
      <trkpt lat="48.97053" lon="1.15515">
        <ele>134.1</ele>
        <time>2015-07-09T16:52:29Z</time>
      </trkpt>
      <trkpt lat="48.9704" lon="1.15519">
        <ele>134.2</ele>
        <time>2015-07-09T16:52:32Z</time>
      </trkpt>
      <trkpt lat="48.97028" lon="1.15524">
        <ele>134.3</ele>
        <time>2015-07-09T16:52:35Z</time>
      </trkpt>
      <trkpt lat="48.97018" lon="1.15528">
        <ele>134.4</ele>
        <time>2015-07-09T16:52:38Z</time>
      </trkpt>
      <trkpt lat="48.97007" lon="1.15532">
        <ele>134.6</ele>
        <time>2015-07-09T16:52:41Z</time>
      </trkpt>
      <trkpt lat="48.96995" lon="1.15535">
        <ele>135</ele>
        <time>2015-07-09T16:52:44Z</time>
      </trkpt>
      <trkpt lat="48.96982" lon="1.15534">
        <ele>135.3</ele>
        <time>2015-07-09T16:52:47Z</time>
      </trkpt>
      <trkpt lat="48.96968" lon="1.15532">
        <ele>135.7</ele>
        <time>2015-07-09T16:52:50Z</time>
      </trkpt>
      <trkpt lat="48.96959" lon="1.15531">
        <ele>135.9</ele>
        <time>2015-07-09T16:52:52Z</time>
      </trkpt>
      <trkpt lat="48.9695" lon="1.15529">
        <ele>136.1</ele>
        <time>2015-07-09T16:52:54Z</time>
      </trkpt>
      <trkpt lat="48.96941" lon="1.15528">
        <ele>136.3</ele>
        <time>2015-07-09T16:52:56Z</time>
      </trkpt>
      <trkpt lat="48.96931" lon="1.15526">
        <ele>136.4</ele>
        <time>2015-07-09T16:52:58Z</time>
      </trkpt>
      <trkpt lat="48.96921" lon="1.15523">
        <ele>136.6</ele>
        <time>2015-07-09T16:53:00Z</time>
      </trkpt>
      <trkpt lat="48.96912" lon="1.15521">
        <ele>136.8</ele>
        <time>2015-07-09T16:53:02Z</time>
      </trkpt>
      <trkpt lat="48.96902" lon="1.15516">
        <ele>136.9</ele>
        <time>2015-07-09T16:53:04Z</time>
      </trkpt>
      <trkpt lat="48.96892" lon="1.15509">
        <ele>137.1</ele>
        <time>2015-07-09T16:53:06Z</time>
      </trkpt>
      <trkpt lat="48.96883" lon="1.15502">
        <ele>137.3</ele>
        <time>2015-07-09T16:53:08Z</time>
      </trkpt>
      <trkpt lat="48.96873" lon="1.15496">
        <ele>137.4</ele>
        <time>2015-07-09T16:53:10Z</time>
      </trkpt>
      <trkpt lat="48.96863" lon="1.15491">
        <ele>137.5</ele>
        <time>2015-07-09T16:53:12Z</time>
      </trkpt>
      <trkpt lat="48.96853" lon="1.15489">
        <ele>137.7</ele>
        <time>2015-07-09T16:53:14Z</time>
      </trkpt>
      <trkpt lat="48.96843" lon="1.15489">
        <ele>137.9</ele>
        <time>2015-07-09T16:53:16Z</time>
      </trkpt>
      <trkpt lat="48.96832" lon="1.1549">
        <ele>138</ele>
        <time>2015-07-09T16:53:18Z</time>
      </trkpt>
      <trkpt lat="48.96822" lon="1.15492">
        <ele>138.2</ele>
        <time>2015-07-09T16:53:20Z</time>
      </trkpt>
      <trkpt lat="48.96812" lon="1.15495">
        <ele>138.4</ele>
        <time>2015-07-09T16:53:22Z</time>
      </trkpt>
      <trkpt lat="48.96803" lon="1.15499">
        <ele>138.6</ele>
        <time>2015-07-09T16:53:24Z</time>
      </trkpt>
      <trkpt lat="48.96793" lon="1.15503">
        <ele>138.8</ele>
        <time>2015-07-09T16:53:26Z</time>
      </trkpt>
      <trkpt lat="48.96783" lon="1.15506">
        <ele>138.9</ele>
        <time>2015-07-09T16:53:28Z</time>
      </trkpt>
      <trkpt lat="48.96773" lon="1.15507">
        <ele>139.1</ele>
        <time>2015-07-09T16:53:30Z</time>
      </trkpt>
      <trkpt lat="48.96763" lon="1.15509">
        <ele>139.3</ele>
        <time>2015-07-09T16:53:32Z</time>
      </trkpt>
      <trkpt lat="48.96754" lon="1.15511">
        <ele>139.5</ele>
        <time>2015-07-09T16:53:34Z</time>
      </trkpt>
      <trkpt lat="48.96745" lon="1.15512">
        <ele>139.7</ele>
        <time>2015-07-09T16:53:36Z</time>
      </trkpt>
      <trkpt lat="48.96735" lon="1.15513">
        <ele>140</ele>
        <time>2015-07-09T16:53:38Z</time>
      </trkpt>
      <trkpt lat="48.96725" lon="1.15514">
        <ele>140.2</ele>
        <time>2015-07-09T16:53:40Z</time>
      </trkpt>
      <trkpt lat="48.96716" lon="1.15516">
        <ele>140.4</ele>
        <time>2015-07-09T16:53:42Z</time>
      </trkpt>
      <trkpt lat="48.96706" lon="1.15519">
        <ele>140.6</ele>
        <time>2015-07-09T16:53:44Z</time>
      </trkpt>
      <trkpt lat="48.96697" lon="1.15521">
        <ele>140.8</ele>
        <time>2015-07-09T16:53:46Z</time>
      </trkpt>
      <trkpt lat="48.96688" lon="1.15525">
        <ele>141</ele>
        <time>2015-07-09T16:53:48Z</time>
      </trkpt>
      <trkpt lat="48.96675" lon="1.15529">
        <ele>141.2</ele>
        <time>2015-07-09T16:53:51Z</time>
      </trkpt>
      <trkpt lat="48.96665" lon="1.15531">
        <ele>141.4</ele>
        <time>2015-07-09T16:53:53Z</time>
      </trkpt>
      <trkpt lat="48.96651" lon="1.15537">
        <ele>141.6</ele>
        <time>2015-07-09T16:53:56Z</time>
      </trkpt>
      <trkpt lat="48.96638" lon="1.15546">
        <ele>141.8</ele>
        <time>2015-07-09T16:53:59Z</time>
      </trkpt>
      <trkpt lat="48.9663" lon="1.15552">
        <ele>142</ele>
        <time>2015-07-09T16:54:01Z</time>
      </trkpt>
      <trkpt lat="48.96621" lon="1.15557">
        <ele>142.1</ele>
        <time>2015-07-09T16:54:03Z</time>
      </trkpt>
      <trkpt lat="48.96608" lon="1.15566">
        <ele>142.3</ele>
        <time>2015-07-09T16:54:06Z</time>
      </trkpt>
      <trkpt lat="48.96599" lon="1.1557">
        <ele>142.5</ele>
        <time>2015-07-09T16:54:08Z</time>
      </trkpt>
      <trkpt lat="48.96589" lon="1.15576">
        <ele>142.8</ele>
        <time>2015-07-09T16:54:10Z</time>
      </trkpt>
      <trkpt lat="48.96581" lon="1.15581">
        <ele>143</ele>
        <time>2015-07-09T16:54:12Z</time>
      </trkpt>
      <trkpt lat="48.96572" lon="1.15589">
        <ele>143.1</ele>
        <time>2015-07-09T16:54:14Z</time>
      </trkpt>
      <trkpt lat="48.96565" lon="1.15599">
        <ele>143.3</ele>
        <time>2015-07-09T16:54:16Z</time>
      </trkpt>
      <trkpt lat="48.96557" lon="1.15616">
        <ele>143.5</ele>
        <time>2015-07-09T16:54:19Z</time>
      </trkpt>
      <trkpt lat="48.96552" lon="1.1563">
        <ele>143.6</ele>
        <time>2015-07-09T16:54:21Z</time>
      </trkpt>
      <trkpt lat="48.96546" lon="1.15641">
        <ele>143.8</ele>
        <time>2015-07-09T16:54:23Z</time>
      </trkpt>
      <trkpt lat="48.96538" lon="1.1565">
        <ele>143.9</ele>
        <time>2015-07-09T16:54:25Z</time>
      </trkpt>
      <trkpt lat="48.9653" lon="1.15656">
        <ele>144</ele>
        <time>2015-07-09T16:54:27Z</time>
      </trkpt>
      <trkpt lat="48.9652" lon="1.1566">
        <ele>144.2</ele>
        <time>2015-07-09T16:54:29Z</time>
      </trkpt>
      <trkpt lat="48.96507" lon="1.15667">
        <ele>144.5</ele>
        <time>2015-07-09T16:54:32Z</time>
      </trkpt>
      <trkpt lat="48.96498" lon="1.15671">
        <ele>144.6</ele>
        <time>2015-07-09T16:54:34Z</time>
      </trkpt>
      <trkpt lat="48.96485" lon="1.15672">
        <ele>144.7</ele>
        <time>2015-07-09T16:54:36Z</time>
      </trkpt>
      <trkpt lat="48.96475" lon="1.15674">
        <ele>144.9</ele>
        <time>2015-07-09T16:54:38Z</time>
      </trkpt>
      <trkpt lat="48.96464" lon="1.15679">
        <ele>145</ele>
        <time>2015-07-09T16:54:40Z</time>
      </trkpt>
      <trkpt lat="48.96452" lon="1.1568">
        <ele>145.1</ele>
        <time>2015-07-09T16:54:42Z</time>
      </trkpt>
      <trkpt lat="48.96441" lon="1.15683">
        <ele>145.2</ele>
        <time>2015-07-09T16:54:44Z</time>
      </trkpt>
      <trkpt lat="48.96429" lon="1.15685">
        <ele>145.3</ele>
        <time>2015-07-09T16:54:46Z</time>
      </trkpt>
      <trkpt lat="48.96418" lon="1.15687">
        <ele>145.4</ele>
        <time>2015-07-09T16:54:48Z</time>
      </trkpt>
      <trkpt lat="48.96408" lon="1.15688">
        <ele>145.5</ele>
        <time>2015-07-09T16:54:50Z</time>
      </trkpt>
      <trkpt lat="48.96396" lon="1.15691">
        <ele>145.6</ele>
        <time>2015-07-09T16:54:52Z</time>
      </trkpt>
      <trkpt lat="48.96385" lon="1.15693">
        <ele>145.8</ele>
        <time>2015-07-09T16:54:54Z</time>
      </trkpt>
      <trkpt lat="48.96373" lon="1.15694">
        <ele>146.1</ele>
        <time>2015-07-09T16:54:56Z</time>
      </trkpt>
      <trkpt lat="48.96362" lon="1.15696">
        <ele>146.3</ele>
        <time>2015-07-09T16:54:58Z</time>
      </trkpt>
      <trkpt lat="48.96351" lon="1.15696">
        <ele>146.5</ele>
        <time>2015-07-09T16:55:00Z</time>
      </trkpt>
      <trkpt lat="48.96339" lon="1.15698">
        <ele>146.7</ele>
        <time>2015-07-09T16:55:02Z</time>
      </trkpt>
      <trkpt lat="48.96328" lon="1.157">
        <ele>146.9</ele>
        <time>2015-07-09T16:55:04Z</time>
      </trkpt>
      <trkpt lat="48.96316" lon="1.15704">
        <ele>147</ele>
        <time>2015-07-09T16:55:06Z</time>
      </trkpt>
      <trkpt lat="48.96304" lon="1.15708">
        <ele>147.1</ele>
        <time>2015-07-09T16:55:08Z</time>
      </trkpt>
      <trkpt lat="48.96293" lon="1.15709">
        <ele>147.3</ele>
        <time>2015-07-09T16:55:10Z</time>
      </trkpt>
      <trkpt lat="48.96282" lon="1.15712">
        <ele>147.5</ele>
        <time>2015-07-09T16:55:12Z</time>
      </trkpt>
      <trkpt lat="48.96271" lon="1.15714">
        <ele>147.5</ele>
        <time>2015-07-09T16:55:14Z</time>
      </trkpt>
      <trkpt lat="48.96258" lon="1.15717">
        <ele>147.6</ele>
        <time>2015-07-09T16:55:16Z</time>
      </trkpt>
      <trkpt lat="48.96246" lon="1.15718">
        <ele>147.6</ele>
        <time>2015-07-09T16:55:18Z</time>
      </trkpt>
      <trkpt lat="48.96233" lon="1.1572">
        <ele>147.7</ele>
        <time>2015-07-09T16:55:20Z</time>
      </trkpt>
      <trkpt lat="48.96219" lon="1.15721">
        <ele>147.7</ele>
        <time>2015-07-09T16:55:22Z</time>
      </trkpt>
      <trkpt lat="48.96205" lon="1.15723">
        <ele>147.8</ele>
        <time>2015-07-09T16:55:24Z</time>
      </trkpt>
      <trkpt lat="48.96192" lon="1.15724">
        <ele>147.8</ele>
        <time>2015-07-09T16:55:26Z</time>
      </trkpt>
      <trkpt lat="48.96177" lon="1.15727">
        <ele>147.8</ele>
        <time>2015-07-09T16:55:28Z</time>
      </trkpt>
      <trkpt lat="48.96162" lon="1.15729">
        <ele>147.9</ele>
        <time>2015-07-09T16:55:30Z</time>
      </trkpt>
      <trkpt lat="48.96149" lon="1.1573">
        <ele>148</ele>
        <time>2015-07-09T16:55:32Z</time>
      </trkpt>
      <trkpt lat="48.96135" lon="1.15732">
        <ele>148</ele>
        <time>2015-07-09T16:55:34Z</time>
      </trkpt>
      <trkpt lat="48.96121" lon="1.15734">
        <ele>148.1</ele>
        <time>2015-07-09T16:55:36Z</time>
      </trkpt>
      <trkpt lat="48.96107" lon="1.15736">
        <ele>148.1</ele>
        <time>2015-07-09T16:55:38Z</time>
      </trkpt>
      <trkpt lat="48.96093" lon="1.15738">
        <ele>148.2</ele>
        <time>2015-07-09T16:55:40Z</time>
      </trkpt>
      <trkpt lat="48.9608" lon="1.1574">
        <ele>148.2</ele>
        <time>2015-07-09T16:55:42Z</time>
      </trkpt>
      <trkpt lat="48.96066" lon="1.15743">
        <ele>148.2</ele>
        <time>2015-07-09T16:55:44Z</time>
      </trkpt>
      <trkpt lat="48.96053" lon="1.15745">
        <ele>148.3</ele>
        <time>2015-07-09T16:55:46Z</time>
      </trkpt>
      <trkpt lat="48.9604" lon="1.15747">
        <ele>148.3</ele>
        <time>2015-07-09T16:55:48Z</time>
      </trkpt>
      <trkpt lat="48.96029" lon="1.1575">
        <ele>148.3</ele>
        <time>2015-07-09T16:55:50Z</time>
      </trkpt>
      <trkpt lat="48.96019" lon="1.15752">
        <ele>148.3</ele>
        <time>2015-07-09T16:55:52Z</time>
      </trkpt>
      <trkpt lat="48.96006" lon="1.15755">
        <ele>148.3</ele>
        <time>2015-07-09T16:55:55Z</time>
      </trkpt>
      <trkpt lat="48.95995" lon="1.15747">
        <ele>148.3</ele>
        <time>2015-07-09T16:55:58Z</time>
      </trkpt>
      <trkpt lat="48.95982" lon="1.15746">
        <ele>148.3</ele>
        <time>2015-07-09T16:56:01Z</time>
      </trkpt>
      <trkpt lat="48.95972" lon="1.1575">
        <ele>148.3</ele>
        <time>2015-07-09T16:56:04Z</time>
      </trkpt>
      <trkpt lat="48.95962" lon="1.15754">
        <ele>148.3</ele>
        <time>2015-07-09T16:56:06Z</time>
      </trkpt>
      <trkpt lat="48.95953" lon="1.15759">
        <ele>148.4</ele>
        <time>2015-07-09T16:56:08Z</time>
      </trkpt>
      <trkpt lat="48.95941" lon="1.15764">
        <ele>148.5</ele>
        <time>2015-07-09T16:56:11Z</time>
      </trkpt>
      <trkpt lat="48.95929" lon="1.15768">
        <ele>148.5</ele>
        <time>2015-07-09T16:56:14Z</time>
      </trkpt>
      <trkpt lat="48.95917" lon="1.15771">
        <ele>148.6</ele>
        <time>2015-07-09T16:56:17Z</time>
      </trkpt>
      <trkpt lat="48.95904" lon="1.15776">
        <ele>148.6</ele>
        <time>2015-07-09T16:56:20Z</time>
      </trkpt>
      <trkpt lat="48.95891" lon="1.1578">
        <ele>148.7</ele>
        <time>2015-07-09T16:56:23Z</time>
      </trkpt>
      <trkpt lat="48.95878" lon="1.15783">
        <ele>148.7</ele>
        <time>2015-07-09T16:56:26Z</time>
      </trkpt>
      <trkpt lat="48.95869" lon="1.15785">
        <ele>148.7</ele>
        <time>2015-07-09T16:56:28Z</time>
      </trkpt>
      <trkpt lat="48.9586" lon="1.15786">
        <ele>148.8</ele>
        <time>2015-07-09T16:56:30Z</time>
      </trkpt>
      <trkpt lat="48.95846" lon="1.15788">
        <ele>148.8</ele>
        <time>2015-07-09T16:56:33Z</time>
      </trkpt>
      <trkpt lat="48.95837" lon="1.1579">
        <ele>148.8</ele>
        <time>2015-07-09T16:56:35Z</time>
      </trkpt>
      <trkpt lat="48.95828" lon="1.15793">
        <ele>148.8</ele>
        <time>2015-07-09T16:56:37Z</time>
      </trkpt>
      <trkpt lat="48.95819" lon="1.15795">
        <ele>148.8</ele>
        <time>2015-07-09T16:56:39Z</time>
      </trkpt>
      <trkpt lat="48.95809" lon="1.15798">
        <ele>148.8</ele>
        <time>2015-07-09T16:56:41Z</time>
      </trkpt>
      <trkpt lat="48.95799" lon="1.15801">
        <ele>148.9</ele>
        <time>2015-07-09T16:56:43Z</time>
      </trkpt>
      <trkpt lat="48.95788" lon="1.15803">
        <ele>148.9</ele>
        <time>2015-07-09T16:56:45Z</time>
      </trkpt>
      <trkpt lat="48.95778" lon="1.15806">
        <ele>148.9</ele>
        <time>2015-07-09T16:56:47Z</time>
      </trkpt>
      <trkpt lat="48.95768" lon="1.15811">
        <ele>149</ele>
        <time>2015-07-09T16:56:49Z</time>
      </trkpt>
      <trkpt lat="48.95758" lon="1.15817">
        <ele>149</ele>
        <time>2015-07-09T16:56:51Z</time>
      </trkpt>
      <trkpt lat="48.95749" lon="1.15823">
        <ele>149</ele>
        <time>2015-07-09T16:56:53Z</time>
      </trkpt>
      <trkpt lat="48.9574" lon="1.15829">
        <ele>149</ele>
        <time>2015-07-09T16:56:55Z</time>
      </trkpt>
      <trkpt lat="48.9573" lon="1.15835">
        <ele>149</ele>
        <time>2015-07-09T16:56:57Z</time>
      </trkpt>
      <trkpt lat="48.9572" lon="1.1584">
        <ele>149</ele>
        <time>2015-07-09T16:56:59Z</time>
      </trkpt>
      <trkpt lat="48.9571" lon="1.15848">
        <ele>149</ele>
        <time>2015-07-09T16:57:01Z</time>
      </trkpt>
      <trkpt lat="48.957" lon="1.15856">
        <ele>149</ele>
        <time>2015-07-09T16:57:03Z</time>
      </trkpt>
      <trkpt lat="48.95689" lon="1.15863">
        <ele>149.1</ele>
        <time>2015-07-09T16:57:05Z</time>
      </trkpt>
      <trkpt lat="48.95677" lon="1.15869">
        <ele>149.1</ele>
        <time>2015-07-09T16:57:07Z</time>
      </trkpt>
      <trkpt lat="48.95665" lon="1.15876">
        <ele>149.1</ele>
        <time>2015-07-09T16:57:09Z</time>
      </trkpt>
      <trkpt lat="48.95653" lon="1.15882">
        <ele>149.1</ele>
        <time>2015-07-09T16:57:11Z</time>
      </trkpt>
      <trkpt lat="48.95642" lon="1.15887">
        <ele>149</ele>
        <time>2015-07-09T16:57:13Z</time>
      </trkpt>
      <trkpt lat="48.9563" lon="1.15892">
        <ele>149</ele>
        <time>2015-07-09T16:57:15Z</time>
      </trkpt>
      <trkpt lat="48.95617" lon="1.15898">
        <ele>148.9</ele>
        <time>2015-07-09T16:57:17Z</time>
      </trkpt>
      <trkpt lat="48.95605" lon="1.15903">
        <ele>148.7</ele>
        <time>2015-07-09T16:57:19Z</time>
      </trkpt>
      <trkpt lat="48.95592" lon="1.1591">
        <ele>148.6</ele>
        <time>2015-07-09T16:57:21Z</time>
      </trkpt>
      <trkpt lat="48.9558" lon="1.15915">
        <ele>148.4</ele>
        <time>2015-07-09T16:57:23Z</time>
      </trkpt>
      <trkpt lat="48.95568" lon="1.1592">
        <ele>148.3</ele>
        <time>2015-07-09T16:57:25Z</time>
      </trkpt>
      <trkpt lat="48.95555" lon="1.15925">
        <ele>148.2</ele>
        <time>2015-07-09T16:57:27Z</time>
      </trkpt>
      <trkpt lat="48.95543" lon="1.15929">
        <ele>148</ele>
        <time>2015-07-09T16:57:29Z</time>
      </trkpt>
      <trkpt lat="48.95531" lon="1.15933">
        <ele>147.9</ele>
        <time>2015-07-09T16:57:31Z</time>
      </trkpt>
      <trkpt lat="48.95519" lon="1.15937">
        <ele>147.7</ele>
        <time>2015-07-09T16:57:33Z</time>
      </trkpt>
      <trkpt lat="48.95507" lon="1.15942">
        <ele>147.6</ele>
        <time>2015-07-09T16:57:35Z</time>
      </trkpt>
      <trkpt lat="48.95496" lon="1.15949">
        <ele>147.4</ele>
        <time>2015-07-09T16:57:37Z</time>
      </trkpt>
      <trkpt lat="48.95485" lon="1.15957">
        <ele>147.2</ele>
        <time>2015-07-09T16:57:39Z</time>
      </trkpt>
      <trkpt lat="48.95475" lon="1.15966">
        <ele>147.1</ele>
        <time>2015-07-09T16:57:41Z</time>
      </trkpt>
      <trkpt lat="48.95465" lon="1.15975">
        <ele>146.9</ele>
        <time>2015-07-09T16:57:43Z</time>
      </trkpt>
      <trkpt lat="48.95454" lon="1.15985">
        <ele>146.7</ele>
        <time>2015-07-09T16:57:45Z</time>
      </trkpt>
      <trkpt lat="48.95445" lon="1.15997">
        <ele>146.5</ele>
        <time>2015-07-09T16:57:47Z</time>
      </trkpt>
      <trkpt lat="48.95437" lon="1.16011">
        <ele>146.4</ele>
        <time>2015-07-09T16:57:49Z</time>
      </trkpt>
      <trkpt lat="48.95429" lon="1.16025">
        <ele>146.2</ele>
        <time>2015-07-09T16:57:51Z</time>
      </trkpt>
      <trkpt lat="48.95422" lon="1.1604">
        <ele>146.1</ele>
        <time>2015-07-09T16:57:53Z</time>
      </trkpt>
      <trkpt lat="48.95415" lon="1.16055">
        <ele>146</ele>
        <time>2015-07-09T16:57:55Z</time>
      </trkpt>
      <trkpt lat="48.95408" lon="1.16071">
        <ele>145.9</ele>
        <time>2015-07-09T16:57:57Z</time>
      </trkpt>
      <trkpt lat="48.95402" lon="1.16087">
        <ele>145.8</ele>
        <time>2015-07-09T16:57:59Z</time>
      </trkpt>
      <trkpt lat="48.95397" lon="1.16102">
        <ele>145.7</ele>
        <time>2015-07-09T16:58:01Z</time>
      </trkpt>
      <trkpt lat="48.95392" lon="1.16116">
        <ele>145.6</ele>
        <time>2015-07-09T16:58:03Z</time>
      </trkpt>
      <trkpt lat="48.95388" lon="1.1613">
        <ele>145.4</ele>
        <time>2015-07-09T16:58:05Z</time>
      </trkpt>
      <trkpt lat="48.95384" lon="1.16145">
        <ele>145.3</ele>
        <time>2015-07-09T16:58:07Z</time>
      </trkpt>
      <trkpt lat="48.95381" lon="1.16161">
        <ele>145.2</ele>
        <time>2015-07-09T16:58:09Z</time>
      </trkpt>
      <trkpt lat="48.95379" lon="1.16177">
        <ele>145.1</ele>
        <time>2015-07-09T16:58:11Z</time>
      </trkpt>
      <trkpt lat="48.95377" lon="1.16192">
        <ele>145</ele>
        <time>2015-07-09T16:58:13Z</time>
      </trkpt>
      <trkpt lat="48.95376" lon="1.16207">
        <ele>144.9</ele>
        <time>2015-07-09T16:58:16Z</time>
      </trkpt>
      <trkpt lat="48.95374" lon="1.16221">
        <ele>144.9</ele>
        <time>2015-07-09T16:58:34Z</time>
      </trkpt>
      <trkpt lat="48.9537" lon="1.1624">
        <ele>144.9</ele>
        <time>2015-07-09T16:58:37Z</time>
      </trkpt>
      <trkpt lat="48.95365" lon="1.16253">
        <ele>144.9</ele>
        <time>2015-07-09T16:58:39Z</time>
      </trkpt>
      <trkpt lat="48.95361" lon="1.16266">
        <ele>144.9</ele>
        <time>2015-07-09T16:58:41Z</time>
      </trkpt>
      <trkpt lat="48.95356" lon="1.16279">
        <ele>144.9</ele>
        <time>2015-07-09T16:58:43Z</time>
      </trkpt>
      <trkpt lat="48.95352" lon="1.16291">
        <ele>145</ele>
        <time>2015-07-09T16:58:45Z</time>
      </trkpt>
      <trkpt lat="48.95347" lon="1.16304">
        <ele>145</ele>
        <time>2015-07-09T16:58:47Z</time>
      </trkpt>
      <trkpt lat="48.95344" lon="1.16317">
        <ele>145</ele>
        <time>2015-07-09T16:58:49Z</time>
      </trkpt>
      <trkpt lat="48.95348" lon="1.16335">
        <ele>145</ele>
        <time>2015-07-09T16:58:52Z</time>
      </trkpt>
      <trkpt lat="48.95356" lon="1.16351">
        <ele>145.1</ele>
        <time>2015-07-09T16:58:55Z</time>
      </trkpt>
      <trkpt lat="48.95362" lon="1.16362">
        <ele>145.1</ele>
        <time>2015-07-09T16:58:57Z</time>
      </trkpt>
      <trkpt lat="48.95367" lon="1.16374">
        <ele>145.1</ele>
        <time>2015-07-09T16:58:59Z</time>
      </trkpt>
      <trkpt lat="48.95373" lon="1.16386">
        <ele>145.2</ele>
        <time>2015-07-09T16:59:01Z</time>
      </trkpt>
      <trkpt lat="48.95379" lon="1.16398">
        <ele>145.3</ele>
        <time>2015-07-09T16:59:03Z</time>
      </trkpt>
      <trkpt lat="48.95385" lon="1.16409">
        <ele>145.4</ele>
        <time>2015-07-09T16:59:05Z</time>
      </trkpt>
      <trkpt lat="48.95391" lon="1.16421">
        <ele>145.5</ele>
        <time>2015-07-09T16:59:07Z</time>
      </trkpt>
      <trkpt lat="48.95397" lon="1.16433">
        <ele>145.6</ele>
        <time>2015-07-09T16:59:09Z</time>
      </trkpt>
      <trkpt lat="48.95404" lon="1.16443">
        <ele>145.7</ele>
        <time>2015-07-09T16:59:11Z</time>
      </trkpt>
      <trkpt lat="48.95412" lon="1.16448">
        <ele>145.7</ele>
        <time>2015-07-09T16:59:13Z</time>
      </trkpt>
      <trkpt lat="48.95421" lon="1.16446">
        <ele>145.8</ele>
        <time>2015-07-09T16:59:15Z</time>
      </trkpt>
      <trkpt lat="48.9543" lon="1.1644">
        <ele>145.9</ele>
        <time>2015-07-09T16:59:17Z</time>
      </trkpt>
      <trkpt lat="48.95439" lon="1.16434">
        <ele>146</ele>
        <time>2015-07-09T16:59:19Z</time>
      </trkpt>
      <trkpt lat="48.95449" lon="1.16429">
        <ele>146.1</ele>
        <time>2015-07-09T16:59:21Z</time>
      </trkpt>
      <trkpt lat="48.95459" lon="1.16426">
        <ele>146.2</ele>
        <time>2015-07-09T16:59:23Z</time>
      </trkpt>
      <trkpt lat="48.95469" lon="1.16423">
        <ele>146.3</ele>
        <time>2015-07-09T16:59:25Z</time>
      </trkpt>
      <trkpt lat="48.95479" lon="1.1642">
        <ele>146.4</ele>
        <time>2015-07-09T16:59:27Z</time>
      </trkpt>
      <trkpt lat="48.95489" lon="1.16417">
        <ele>146.4</ele>
        <time>2015-07-09T16:59:29Z</time>
      </trkpt>
      <trkpt lat="48.955" lon="1.16416">
        <ele>146.5</ele>
        <time>2015-07-09T16:59:31Z</time>
      </trkpt>
      <trkpt lat="48.9551" lon="1.16416">
        <ele>146.6</ele>
        <time>2015-07-09T16:59:33Z</time>
      </trkpt>
      <trkpt lat="48.9552" lon="1.16419">
        <ele>146.6</ele>
        <time>2015-07-09T16:59:35Z</time>
      </trkpt>
      <trkpt lat="48.9553" lon="1.16425">
        <ele>146.7</ele>
        <time>2015-07-09T16:59:37Z</time>
      </trkpt>
      <trkpt lat="48.95537" lon="1.16436">
        <ele>146.8</ele>
        <time>2015-07-09T16:59:39Z</time>
      </trkpt>
      <trkpt lat="48.95542" lon="1.16449">
        <ele>146.9</ele>
        <time>2015-07-09T16:59:41Z</time>
      </trkpt>
      <trkpt lat="48.95547" lon="1.16463">
        <ele>147</ele>
        <time>2015-07-09T16:59:43Z</time>
      </trkpt>
      <trkpt lat="48.95553" lon="1.16477">
        <ele>147</ele>
        <time>2015-07-09T16:59:45Z</time>
      </trkpt>
      <trkpt lat="48.95558" lon="1.16492">
        <ele>147.1</ele>
        <time>2015-07-09T16:59:47Z</time>
      </trkpt>
      <trkpt lat="48.95563" lon="1.16506">
        <ele>147.1</ele>
        <time>2015-07-09T16:59:49Z</time>
      </trkpt>
      <trkpt lat="48.95569" lon="1.16521">
        <ele>147.2</ele>
        <time>2015-07-09T16:59:51Z</time>
      </trkpt>
      <trkpt lat="48.95574" lon="1.16536">
        <ele>147.2</ele>
        <time>2015-07-09T16:59:53Z</time>
      </trkpt>
      <trkpt lat="48.95579" lon="1.16551">
        <ele>147.3</ele>
        <time>2015-07-09T16:59:55Z</time>
      </trkpt>
      <trkpt lat="48.95584" lon="1.16566">
        <ele>147.3</ele>
        <time>2015-07-09T16:59:57Z</time>
      </trkpt>
      <trkpt lat="48.95588" lon="1.16582">
        <ele>147.4</ele>
        <time>2015-07-09T16:59:59Z</time>
      </trkpt>
      <trkpt lat="48.95592" lon="1.16598">
        <ele>147.6</ele>
        <time>2015-07-09T17:00:01Z</time>
      </trkpt>
      <trkpt lat="48.95597" lon="1.16614">
        <ele>147.6</ele>
        <time>2015-07-09T17:00:03Z</time>
      </trkpt>
      <trkpt lat="48.95601" lon="1.16631">
        <ele>147.7</ele>
        <time>2015-07-09T17:00:05Z</time>
      </trkpt>
      <trkpt lat="48.95605" lon="1.16647">
        <ele>147.8</ele>
        <time>2015-07-09T17:00:07Z</time>
      </trkpt>
      <trkpt lat="48.95609" lon="1.16664">
        <ele>147.8</ele>
        <time>2015-07-09T17:00:09Z</time>
      </trkpt>
      <trkpt lat="48.95612" lon="1.1668">
        <ele>147.9</ele>
        <time>2015-07-09T17:00:11Z</time>
      </trkpt>
      <trkpt lat="48.95616" lon="1.16697">
        <ele>148</ele>
        <time>2015-07-09T17:00:13Z</time>
      </trkpt>
      <trkpt lat="48.95621" lon="1.16712">
        <ele>148.1</ele>
        <time>2015-07-09T17:00:15Z</time>
      </trkpt>
      <trkpt lat="48.95625" lon="1.16728">
        <ele>148.2</ele>
        <time>2015-07-09T17:00:17Z</time>
      </trkpt>
      <trkpt lat="48.9563" lon="1.16744">
        <ele>148.3</ele>
        <time>2015-07-09T17:00:19Z</time>
      </trkpt>
      <trkpt lat="48.95636" lon="1.16759">
        <ele>148.4</ele>
        <time>2015-07-09T17:00:21Z</time>
      </trkpt>
      <trkpt lat="48.95641" lon="1.16775">
        <ele>148.4</ele>
        <time>2015-07-09T17:00:23Z</time>
      </trkpt>
      <trkpt lat="48.95646" lon="1.1679">
        <ele>148.5</ele>
        <time>2015-07-09T17:00:25Z</time>
      </trkpt>
      <trkpt lat="48.95652" lon="1.16805">
        <ele>148.5</ele>
        <time>2015-07-09T17:00:27Z</time>
      </trkpt>
      <trkpt lat="48.95657" lon="1.16821">
        <ele>148.6</ele>
        <time>2015-07-09T17:00:29Z</time>
      </trkpt>
      <trkpt lat="48.95662" lon="1.16836">
        <ele>148.6</ele>
        <time>2015-07-09T17:00:31Z</time>
      </trkpt>
      <trkpt lat="48.95667" lon="1.16851">
        <ele>148.7</ele>
        <time>2015-07-09T17:00:33Z</time>
      </trkpt>
      <trkpt lat="48.95672" lon="1.16866">
        <ele>148.7</ele>
        <time>2015-07-09T17:00:35Z</time>
      </trkpt>
      <trkpt lat="48.95676" lon="1.16881">
        <ele>148.7</ele>
        <time>2015-07-09T17:00:37Z</time>
      </trkpt>
      <trkpt lat="48.95681" lon="1.16896">
        <ele>148.7</ele>
        <time>2015-07-09T17:00:39Z</time>
      </trkpt>
      <trkpt lat="48.95686" lon="1.16911">
        <ele>148.8</ele>
        <time>2015-07-09T17:00:41Z</time>
      </trkpt>
      <trkpt lat="48.95691" lon="1.16926">
        <ele>148.8</ele>
        <time>2015-07-09T17:00:43Z</time>
      </trkpt>
      <trkpt lat="48.95696" lon="1.16941">
        <ele>148.9</ele>
        <time>2015-07-09T17:00:45Z</time>
      </trkpt>
      <trkpt lat="48.95702" lon="1.16957">
        <ele>149</ele>
        <time>2015-07-09T17:00:47Z</time>
      </trkpt>
      <trkpt lat="48.95707" lon="1.16972">
        <ele>149</ele>
        <time>2015-07-09T17:00:49Z</time>
      </trkpt>
      <trkpt lat="48.95712" lon="1.16987">
        <ele>149.1</ele>
        <time>2015-07-09T17:00:51Z</time>
      </trkpt>
      <trkpt lat="48.95717" lon="1.17002">
        <ele>149.1</ele>
        <time>2015-07-09T17:00:53Z</time>
      </trkpt>
      <trkpt lat="48.95722" lon="1.17016">
        <ele>149.2</ele>
        <time>2015-07-09T17:00:55Z</time>
      </trkpt>
      <trkpt lat="48.95727" lon="1.17031">
        <ele>149.2</ele>
        <time>2015-07-09T17:00:57Z</time>
      </trkpt>
      <trkpt lat="48.95732" lon="1.17047">
        <ele>149.2</ele>
        <time>2015-07-09T17:00:59Z</time>
      </trkpt>
      <trkpt lat="48.95737" lon="1.17063">
        <ele>149.3</ele>
        <time>2015-07-09T17:01:01Z</time>
      </trkpt>
      <trkpt lat="48.95742" lon="1.17079">
        <ele>149.3</ele>
        <time>2015-07-09T17:01:03Z</time>
      </trkpt>
      <trkpt lat="48.95747" lon="1.17095">
        <ele>149.3</ele>
        <time>2015-07-09T17:01:05Z</time>
      </trkpt>
      <trkpt lat="48.95753" lon="1.17111">
        <ele>149.3</ele>
        <time>2015-07-09T17:01:07Z</time>
      </trkpt>
      <trkpt lat="48.95758" lon="1.17127">
        <ele>149.4</ele>
        <time>2015-07-09T17:01:09Z</time>
      </trkpt>
      <trkpt lat="48.95764" lon="1.17144">
        <ele>149.3</ele>
        <time>2015-07-09T17:01:11Z</time>
      </trkpt>
      <trkpt lat="48.95769" lon="1.1716">
        <ele>149.3</ele>
        <time>2015-07-09T17:01:13Z</time>
      </trkpt>
      <trkpt lat="48.95775" lon="1.17176">
        <ele>149.3</ele>
        <time>2015-07-09T17:01:15Z</time>
      </trkpt>
      <trkpt lat="48.9578" lon="1.17193">
        <ele>149.3</ele>
        <time>2015-07-09T17:01:17Z</time>
      </trkpt>
      <trkpt lat="48.95786" lon="1.17209">
        <ele>149.3</ele>
        <time>2015-07-09T17:01:19Z</time>
      </trkpt>
      <trkpt lat="48.95792" lon="1.17226">
        <ele>149.3</ele>
        <time>2015-07-09T17:01:21Z</time>
      </trkpt>
      <trkpt lat="48.95797" lon="1.17243">
        <ele>149.3</ele>
        <time>2015-07-09T17:01:23Z</time>
      </trkpt>
      <trkpt lat="48.95803" lon="1.1726">
        <ele>149.3</ele>
        <time>2015-07-09T17:01:25Z</time>
      </trkpt>
      <trkpt lat="48.95808" lon="1.17277">
        <ele>149.3</ele>
        <time>2015-07-09T17:01:27Z</time>
      </trkpt>
      <trkpt lat="48.95814" lon="1.17294">
        <ele>149.3</ele>
        <time>2015-07-09T17:01:29Z</time>
      </trkpt>
      <trkpt lat="48.9582" lon="1.17311">
        <ele>149.3</ele>
        <time>2015-07-09T17:01:31Z</time>
      </trkpt>
      <trkpt lat="48.95826" lon="1.17329">
        <ele>149.3</ele>
        <time>2015-07-09T17:01:33Z</time>
      </trkpt>
      <trkpt lat="48.95831" lon="1.17346">
        <ele>149.3</ele>
        <time>2015-07-09T17:01:35Z</time>
      </trkpt>
      <trkpt lat="48.95837" lon="1.17364">
        <ele>149.3</ele>
        <time>2015-07-09T17:01:37Z</time>
      </trkpt>
      <trkpt lat="48.95843" lon="1.17382">
        <ele>149.3</ele>
        <time>2015-07-09T17:01:39Z</time>
      </trkpt>
      <trkpt lat="48.95849" lon="1.17399">
        <ele>149.3</ele>
        <time>2015-07-09T17:01:41Z</time>
      </trkpt>
      <trkpt lat="48.95855" lon="1.17417">
        <ele>149.2</ele>
        <time>2015-07-09T17:01:43Z</time>
      </trkpt>
      <trkpt lat="48.95862" lon="1.17435">
        <ele>149.2</ele>
        <time>2015-07-09T17:01:45Z</time>
      </trkpt>
      <trkpt lat="48.95869" lon="1.17452">
        <ele>149.1</ele>
        <time>2015-07-09T17:01:47Z</time>
      </trkpt>
      <trkpt lat="48.95876" lon="1.17469">
        <ele>149.1</ele>
        <time>2015-07-09T17:01:49Z</time>
      </trkpt>
      <trkpt lat="48.95885" lon="1.17485">
        <ele>149.1</ele>
        <time>2015-07-09T17:01:51Z</time>
      </trkpt>
      <trkpt lat="48.95893" lon="1.17501">
        <ele>149</ele>
        <time>2015-07-09T17:01:53Z</time>
      </trkpt>
      <trkpt lat="48.95901" lon="1.17517">
        <ele>149</ele>
        <time>2015-07-09T17:01:55Z</time>
      </trkpt>
      <trkpt lat="48.95911" lon="1.17532">
        <ele>149</ele>
        <time>2015-07-09T17:01:57Z</time>
      </trkpt>
      <trkpt lat="48.95922" lon="1.17546">
        <ele>149</ele>
        <time>2015-07-09T17:01:59Z</time>
      </trkpt>
      <trkpt lat="48.95933" lon="1.1756">
        <ele>148.9</ele>
        <time>2015-07-09T17:02:01Z</time>
      </trkpt>
      <trkpt lat="48.95944" lon="1.17574">
        <ele>148.9</ele>
        <time>2015-07-09T17:02:03Z</time>
      </trkpt>
      <trkpt lat="48.95956" lon="1.17587">
        <ele>148.9</ele>
        <time>2015-07-09T17:02:05Z</time>
      </trkpt>
      <trkpt lat="48.95967" lon="1.176">
        <ele>148.9</ele>
        <time>2015-07-09T17:02:07Z</time>
      </trkpt>
      <trkpt lat="48.95979" lon="1.17613">
        <ele>148.9</ele>
        <time>2015-07-09T17:02:09Z</time>
      </trkpt>
      <trkpt lat="48.9599" lon="1.17626">
        <ele>148.9</ele>
        <time>2015-07-09T17:02:11Z</time>
      </trkpt>
      <trkpt lat="48.96002" lon="1.17638">
        <ele>148.9</ele>
        <time>2015-07-09T17:02:13Z</time>
      </trkpt>
      <trkpt lat="48.96014" lon="1.17651">
        <ele>148.9</ele>
        <time>2015-07-09T17:02:15Z</time>
      </trkpt>
      <trkpt lat="48.96025" lon="1.17663">
        <ele>148.9</ele>
        <time>2015-07-09T17:02:17Z</time>
      </trkpt>
      <trkpt lat="48.96037" lon="1.17677">
        <ele>148.8</ele>
        <time>2015-07-09T17:02:19Z</time>
      </trkpt>
      <trkpt lat="48.96048" lon="1.17689">
        <ele>148.8</ele>
        <time>2015-07-09T17:02:21Z</time>
      </trkpt>
      <trkpt lat="48.9606" lon="1.17702">
        <ele>148.8</ele>
        <time>2015-07-09T17:02:23Z</time>
      </trkpt>
      <trkpt lat="48.96071" lon="1.17715">
        <ele>148.7</ele>
        <time>2015-07-09T17:02:25Z</time>
      </trkpt>
      <trkpt lat="48.96083" lon="1.17729">
        <ele>148.7</ele>
        <time>2015-07-09T17:02:27Z</time>
      </trkpt>
      <trkpt lat="48.96094" lon="1.17744">
        <ele>148.6</ele>
        <time>2015-07-09T17:02:29Z</time>
      </trkpt>
      <trkpt lat="48.96106" lon="1.17758">
        <ele>148.6</ele>
        <time>2015-07-09T17:02:31Z</time>
      </trkpt>
      <trkpt lat="48.96117" lon="1.17773">
        <ele>148.5</ele>
        <time>2015-07-09T17:02:33Z</time>
      </trkpt>
      <trkpt lat="48.96126" lon="1.17789">
        <ele>148.5</ele>
        <time>2015-07-09T17:02:35Z</time>
      </trkpt>
      <trkpt lat="48.96134" lon="1.17805">
        <ele>148.5</ele>
        <time>2015-07-09T17:02:37Z</time>
      </trkpt>
      <trkpt lat="48.9614" lon="1.17819">
        <ele>148.4</ele>
        <time>2015-07-09T17:02:39Z</time>
      </trkpt>
      <trkpt lat="48.96147" lon="1.17806">
        <ele>148.2</ele>
        <time>2015-07-09T17:02:43Z</time>
      </trkpt>
      <trkpt lat="48.96147" lon="1.17785">
        <ele>148.1</ele>
        <time>2015-07-09T17:02:46Z</time>
      </trkpt>
      <trkpt lat="48.96148" lon="1.17769">
        <ele>148</ele>
        <time>2015-07-09T17:02:48Z</time>
      </trkpt>
      <trkpt lat="48.96151" lon="1.17752">
        <ele>147.9</ele>
        <time>2015-07-09T17:02:50Z</time>
      </trkpt>
      <trkpt lat="48.96154" lon="1.17736">
        <ele>147.8</ele>
        <time>2015-07-09T17:02:52Z</time>
      </trkpt>
      <trkpt lat="48.9616" lon="1.1772">
        <ele>147.7</ele>
        <time>2015-07-09T17:02:54Z</time>
      </trkpt>
      <trkpt lat="48.96167" lon="1.17706">
        <ele>147.6</ele>
        <time>2015-07-09T17:02:56Z</time>
      </trkpt>
      <trkpt lat="48.96175" lon="1.17692">
        <ele>147.6</ele>
        <time>2015-07-09T17:02:58Z</time>
      </trkpt>
      <trkpt lat="48.96183" lon="1.17679">
        <ele>147.5</ele>
        <time>2015-07-09T17:03:00Z</time>
      </trkpt>
      <trkpt lat="48.9619" lon="1.17665">
        <ele>147.4</ele>
        <time>2015-07-09T17:03:02Z</time>
      </trkpt>
      <trkpt lat="48.96198" lon="1.17651">
        <ele>147.4</ele>
        <time>2015-07-09T17:03:04Z</time>
      </trkpt>
      <trkpt lat="48.96206" lon="1.17636">
        <ele>147.3</ele>
        <time>2015-07-09T17:03:06Z</time>
      </trkpt>
      <trkpt lat="48.96213" lon="1.17621">
        <ele>147.2</ele>
        <time>2015-07-09T17:03:08Z</time>
      </trkpt>
      <trkpt lat="48.9622" lon="1.17606">
        <ele>147.1</ele>
        <time>2015-07-09T17:03:10Z</time>
      </trkpt>
      <trkpt lat="48.96227" lon="1.17591">
        <ele>147.1</ele>
        <time>2015-07-09T17:03:12Z</time>
      </trkpt>
      <trkpt lat="48.96234" lon="1.17577">
        <ele>147</ele>
        <time>2015-07-09T17:03:14Z</time>
      </trkpt>
      <trkpt lat="48.96242" lon="1.17564">
        <ele>147</ele>
        <time>2015-07-09T17:03:16Z</time>
      </trkpt>
      <trkpt lat="48.96251" lon="1.17552">
        <ele>146.9</ele>
        <time>2015-07-09T17:03:18Z</time>
      </trkpt>
      <trkpt lat="48.9626" lon="1.17541">
        <ele>146.7</ele>
        <time>2015-07-09T17:03:20Z</time>
      </trkpt>
      <trkpt lat="48.9627" lon="1.1753">
        <ele>146.6</ele>
        <time>2015-07-09T17:03:22Z</time>
      </trkpt>
      <trkpt lat="48.96281" lon="1.17518">
        <ele>146.6</ele>
        <time>2015-07-09T17:03:24Z</time>
      </trkpt>
      <trkpt lat="48.9629" lon="1.17506">
        <ele>146.5</ele>
        <time>2015-07-09T17:03:26Z</time>
      </trkpt>
      <trkpt lat="48.96299" lon="1.17492">
        <ele>146.4</ele>
        <time>2015-07-09T17:03:28Z</time>
      </trkpt>
      <trkpt lat="48.96307" lon="1.17478">
        <ele>146.3</ele>
        <time>2015-07-09T17:03:30Z</time>
      </trkpt>
      <trkpt lat="48.96314" lon="1.17463">
        <ele>146.3</ele>
        <time>2015-07-09T17:03:32Z</time>
      </trkpt>
      <trkpt lat="48.96321" lon="1.17446">
        <ele>146.2</ele>
        <time>2015-07-09T17:03:34Z</time>
      </trkpt>
      <trkpt lat="48.96326" lon="1.17428">
        <ele>146.2</ele>
        <time>2015-07-09T17:03:36Z</time>
      </trkpt>
      <trkpt lat="48.96331" lon="1.17411">
        <ele>146.2</ele>
        <time>2015-07-09T17:03:38Z</time>
      </trkpt>
      <trkpt lat="48.96336" lon="1.17393">
        <ele>146.1</ele>
        <time>2015-07-09T17:03:40Z</time>
      </trkpt>
      <trkpt lat="48.96341" lon="1.17375">
        <ele>146.1</ele>
        <time>2015-07-09T17:03:42Z</time>
      </trkpt>
      <trkpt lat="48.96346" lon="1.17357">
        <ele>146</ele>
        <time>2015-07-09T17:03:44Z</time>
      </trkpt>
      <trkpt lat="48.96351" lon="1.17338">
        <ele>146</ele>
        <time>2015-07-09T17:03:46Z</time>
      </trkpt>
      <trkpt lat="48.96355" lon="1.1732">
        <ele>146</ele>
        <time>2015-07-09T17:03:48Z</time>
      </trkpt>
      <trkpt lat="48.9636" lon="1.17301">
        <ele>145.9</ele>
        <time>2015-07-09T17:03:50Z</time>
      </trkpt>
      <trkpt lat="48.96364" lon="1.17282">
        <ele>145.8</ele>
        <time>2015-07-09T17:03:52Z</time>
      </trkpt>
      <trkpt lat="48.96368" lon="1.17263">
        <ele>145.7</ele>
        <time>2015-07-09T17:03:54Z</time>
      </trkpt>
      <trkpt lat="48.96371" lon="1.17243">
        <ele>145.7</ele>
        <time>2015-07-09T17:03:56Z</time>
      </trkpt>
      <trkpt lat="48.96374" lon="1.17224">
        <ele>145.6</ele>
        <time>2015-07-09T17:03:58Z</time>
      </trkpt>
      <trkpt lat="48.96376" lon="1.17205">
        <ele>145.6</ele>
        <time>2015-07-09T17:04:00Z</time>
      </trkpt>
      <trkpt lat="48.96378" lon="1.17186">
        <ele>145.5</ele>
        <time>2015-07-09T17:04:02Z</time>
      </trkpt>
      <trkpt lat="48.9638" lon="1.17166">
        <ele>145.5</ele>
        <time>2015-07-09T17:04:04Z</time>
      </trkpt>
      <trkpt lat="48.96382" lon="1.17146">
        <ele>145.5</ele>
        <time>2015-07-09T17:04:06Z</time>
      </trkpt>
      <trkpt lat="48.96384" lon="1.17126">
        <ele>145.4</ele>
        <time>2015-07-09T17:04:08Z</time>
      </trkpt>
      <trkpt lat="48.96387" lon="1.17107">
        <ele>145.3</ele>
        <time>2015-07-09T17:04:10Z</time>
      </trkpt>
      <trkpt lat="48.96392" lon="1.17088">
        <ele>145.2</ele>
        <time>2015-07-09T17:04:12Z</time>
      </trkpt>
      <trkpt lat="48.96401" lon="1.17073">
        <ele>145.1</ele>
        <time>2015-07-09T17:04:14Z</time>
      </trkpt>
      <trkpt lat="48.96413" lon="1.17062">
        <ele>145</ele>
        <time>2015-07-09T17:04:16Z</time>
      </trkpt>
      <trkpt lat="48.96424" lon="1.17053">
        <ele>144.9</ele>
        <time>2015-07-09T17:04:18Z</time>
      </trkpt>
      <trkpt lat="48.96437" lon="1.17045">
        <ele>144.8</ele>
        <time>2015-07-09T17:04:20Z</time>
      </trkpt>
      <trkpt lat="48.9645" lon="1.17038">
        <ele>144.7</ele>
        <time>2015-07-09T17:04:22Z</time>
      </trkpt>
      <trkpt lat="48.96463" lon="1.17033">
        <ele>144.5</ele>
        <time>2015-07-09T17:04:24Z</time>
      </trkpt>
      <trkpt lat="48.96477" lon="1.17032">
        <ele>144.4</ele>
        <time>2015-07-09T17:04:26Z</time>
      </trkpt>
      <trkpt lat="48.96489" lon="1.17033">
        <ele>144.3</ele>
        <time>2015-07-09T17:04:28Z</time>
      </trkpt>
      <trkpt lat="48.96504" lon="1.17034">
        <ele>144.2</ele>
        <time>2015-07-09T17:04:30Z</time>
      </trkpt>
      <trkpt lat="48.96517" lon="1.17037">
        <ele>144.1</ele>
        <time>2015-07-09T17:04:32Z</time>
      </trkpt>
      <trkpt lat="48.96533" lon="1.17043">
        <ele>144</ele>
        <time>2015-07-09T17:04:34Z</time>
      </trkpt>
      <trkpt lat="48.96547" lon="1.17053">
        <ele>143.8</ele>
        <time>2015-07-09T17:04:36Z</time>
      </trkpt>
      <trkpt lat="48.96558" lon="1.17064">
        <ele>143.7</ele>
        <time>2015-07-09T17:04:38Z</time>
      </trkpt>
      <trkpt lat="48.96569" lon="1.17075">
        <ele>143.6</ele>
        <time>2015-07-09T17:04:40Z</time>
      </trkpt>
      <trkpt lat="48.96579" lon="1.17086">
        <ele>143.6</ele>
        <time>2015-07-09T17:04:42Z</time>
      </trkpt>
      <trkpt lat="48.96588" lon="1.17098">
        <ele>143.6</ele>
        <time>2015-07-09T17:04:44Z</time>
      </trkpt>
      <trkpt lat="48.96597" lon="1.1711">
        <ele>143.5</ele>
        <time>2015-07-09T17:04:46Z</time>
      </trkpt>
      <trkpt lat="48.96607" lon="1.1712">
        <ele>143.5</ele>
        <time>2015-07-09T17:04:48Z</time>
      </trkpt>
      <trkpt lat="48.96617" lon="1.17131">
        <ele>143.5</ele>
        <time>2015-07-09T17:04:50Z</time>
      </trkpt>
      <trkpt lat="48.96627" lon="1.17141">
        <ele>143.5</ele>
        <time>2015-07-09T17:04:52Z</time>
      </trkpt>
      <trkpt lat="48.96636" lon="1.17152">
        <ele>143.5</ele>
        <time>2015-07-09T17:04:54Z</time>
      </trkpt>
      <trkpt lat="48.96643" lon="1.17163">
        <ele>143.5</ele>
        <time>2015-07-09T17:04:56Z</time>
      </trkpt>
      <trkpt lat="48.96655" lon="1.17174">
        <ele>143.5</ele>
        <time>2015-07-09T17:04:58Z</time>
      </trkpt>
      <trkpt lat="48.96665" lon="1.17186">
        <ele>143.6</ele>
        <time>2015-07-09T17:05:00Z</time>
      </trkpt>
      <trkpt lat="48.96675" lon="1.17197">
        <ele>143.7</ele>
        <time>2015-07-09T17:05:02Z</time>
      </trkpt>
      <trkpt lat="48.96683" lon="1.17207">
        <ele>143.8</ele>
        <time>2015-07-09T17:05:04Z</time>
      </trkpt>
      <trkpt lat="48.96692" lon="1.17217">
        <ele>143.9</ele>
        <time>2015-07-09T17:05:06Z</time>
      </trkpt>
      <trkpt lat="48.96699" lon="1.17227">
        <ele>143.9</ele>
        <time>2015-07-09T17:05:08Z</time>
      </trkpt>
      <trkpt lat="48.96708" lon="1.1724">
        <ele>144</ele>
        <time>2015-07-09T17:05:10Z</time>
      </trkpt>
      <trkpt lat="48.96715" lon="1.17252">
        <ele>144</ele>
        <time>2015-07-09T17:05:12Z</time>
      </trkpt>
      <trkpt lat="48.96725" lon="1.17265">
        <ele>144</ele>
        <time>2015-07-09T17:05:14Z</time>
      </trkpt>
      <trkpt lat="48.96737" lon="1.17274">
        <ele>144</ele>
        <time>2015-07-09T17:05:16Z</time>
      </trkpt>
      <trkpt lat="48.96749" lon="1.1728">
        <ele>144</ele>
        <time>2015-07-09T17:05:18Z</time>
      </trkpt>
      <trkpt lat="48.96764" lon="1.17285">
        <ele>143.9</ele>
        <time>2015-07-09T17:05:20Z</time>
      </trkpt>
      <trkpt lat="48.96777" lon="1.17289">
        <ele>143.9</ele>
        <time>2015-07-09T17:05:22Z</time>
      </trkpt>
      <trkpt lat="48.9679" lon="1.17293">
        <ele>143.8</ele>
        <time>2015-07-09T17:05:24Z</time>
      </trkpt>
      <trkpt lat="48.96804" lon="1.17297">
        <ele>143.8</ele>
        <time>2015-07-09T17:05:26Z</time>
      </trkpt>
      <trkpt lat="48.96818" lon="1.17301">
        <ele>143.8</ele>
        <time>2015-07-09T17:05:28Z</time>
      </trkpt>
      <trkpt lat="48.96831" lon="1.17306">
        <ele>143.7</ele>
        <time>2015-07-09T17:05:30Z</time>
      </trkpt>
      <trkpt lat="48.96844" lon="1.17311">
        <ele>143.7</ele>
        <time>2015-07-09T17:05:32Z</time>
      </trkpt>
      <trkpt lat="48.96857" lon="1.17316">
        <ele>143.6</ele>
        <time>2015-07-09T17:05:34Z</time>
      </trkpt>
      <trkpt lat="48.96869" lon="1.17322">
        <ele>143.6</ele>
        <time>2015-07-09T17:05:36Z</time>
      </trkpt>
      <trkpt lat="48.9688" lon="1.17329">
        <ele>143.5</ele>
        <time>2015-07-09T17:05:38Z</time>
      </trkpt>
      <trkpt lat="48.96892" lon="1.17337">
        <ele>143.5</ele>
        <time>2015-07-09T17:05:40Z</time>
      </trkpt>
      <trkpt lat="48.96903" lon="1.17347">
        <ele>143.4</ele>
        <time>2015-07-09T17:05:42Z</time>
      </trkpt>
      <trkpt lat="48.96913" lon="1.17357">
        <ele>143.4</ele>
        <time>2015-07-09T17:05:44Z</time>
      </trkpt>
      <trkpt lat="48.96923" lon="1.17369">
        <ele>143.3</ele>
        <time>2015-07-09T17:05:46Z</time>
      </trkpt>
      <trkpt lat="48.96934" lon="1.17379">
        <ele>143.3</ele>
        <time>2015-07-09T17:05:48Z</time>
      </trkpt>
      <trkpt lat="48.96945" lon="1.17388">
        <ele>143.3</ele>
        <time>2015-07-09T17:05:50Z</time>
      </trkpt>
      <trkpt lat="48.96952" lon="1.17398">
        <ele>143.2</ele>
        <time>2015-07-09T17:05:52Z</time>
      </trkpt>
      <trkpt lat="48.9696" lon="1.17407">
        <ele>143.2</ele>
        <time>2015-07-09T17:05:54Z</time>
      </trkpt>
      <trkpt lat="48.96973" lon="1.17406">
        <ele>143.3</ele>
        <time>2015-07-09T17:05:57Z</time>
      </trkpt>
      <trkpt lat="48.96987" lon="1.17399">
        <ele>143.4</ele>
        <time>2015-07-09T17:06:00Z</time>
      </trkpt>
      <trkpt lat="48.96999" lon="1.17397">
        <ele>143.4</ele>
        <time>2015-07-09T17:06:02Z</time>
      </trkpt>
      <trkpt lat="48.97008" lon="1.17393">
        <ele>143.5</ele>
        <time>2015-07-09T17:06:04Z</time>
      </trkpt>
      <trkpt lat="48.97018" lon="1.17392">
        <ele>143.7</ele>
        <time>2015-07-09T17:06:06Z</time>
      </trkpt>
      <trkpt lat="48.97028" lon="1.17388">
        <ele>143.8</ele>
        <time>2015-07-09T17:06:08Z</time>
      </trkpt>
      <trkpt lat="48.97042" lon="1.17386">
        <ele>143.9</ele>
        <time>2015-07-09T17:06:10Z</time>
      </trkpt>
      <trkpt lat="48.97053" lon="1.17384">
        <ele>144.1</ele>
        <time>2015-07-09T17:06:12Z</time>
      </trkpt>
      <trkpt lat="48.97064" lon="1.17381">
        <ele>144.3</ele>
        <time>2015-07-09T17:06:14Z</time>
      </trkpt>
      <trkpt lat="48.97076" lon="1.17378">
        <ele>144.5</ele>
        <time>2015-07-09T17:06:16Z</time>
      </trkpt>
      <trkpt lat="48.97087" lon="1.17376">
        <ele>144.7</ele>
        <time>2015-07-09T17:06:18Z</time>
      </trkpt>
      <trkpt lat="48.97099" lon="1.17373">
        <ele>144.8</ele>
        <time>2015-07-09T17:06:20Z</time>
      </trkpt>
      <trkpt lat="48.9711" lon="1.17371">
        <ele>145</ele>
        <time>2015-07-09T17:06:22Z</time>
      </trkpt>
      <trkpt lat="48.97123" lon="1.17369">
        <ele>145.1</ele>
        <time>2015-07-09T17:06:24Z</time>
      </trkpt>
      <trkpt lat="48.97134" lon="1.17366">
        <ele>145.3</ele>
        <time>2015-07-09T17:06:26Z</time>
      </trkpt>
      <trkpt lat="48.97146" lon="1.17364">
        <ele>145.5</ele>
        <time>2015-07-09T17:06:28Z</time>
      </trkpt>
      <trkpt lat="48.97158" lon="1.17363">
        <ele>145.6</ele>
        <time>2015-07-09T17:06:30Z</time>
      </trkpt>
      <trkpt lat="48.9717" lon="1.17364">
        <ele>145.8</ele>
        <time>2015-07-09T17:06:32Z</time>
      </trkpt>
      <trkpt lat="48.97182" lon="1.17364">
        <ele>145.9</ele>
        <time>2015-07-09T17:06:34Z</time>
      </trkpt>
      <trkpt lat="48.97194" lon="1.17366">
        <ele>146</ele>
        <time>2015-07-09T17:06:36Z</time>
      </trkpt>
      <trkpt lat="48.97206" lon="1.17366">
        <ele>146.1</ele>
        <time>2015-07-09T17:06:38Z</time>
      </trkpt>
      <trkpt lat="48.97218" lon="1.17366">
        <ele>146.2</ele>
        <time>2015-07-09T17:06:40Z</time>
      </trkpt>
      <trkpt lat="48.9723" lon="1.17368">
        <ele>146.3</ele>
        <time>2015-07-09T17:06:42Z</time>
      </trkpt>
      <trkpt lat="48.97242" lon="1.1737">
        <ele>146.3</ele>
        <time>2015-07-09T17:06:44Z</time>
      </trkpt>
      <trkpt lat="48.97254" lon="1.17372">
        <ele>146.4</ele>
        <time>2015-07-09T17:06:46Z</time>
      </trkpt>
      <trkpt lat="48.97267" lon="1.17374">
        <ele>146.4</ele>
        <time>2015-07-09T17:06:48Z</time>
      </trkpt>
      <trkpt lat="48.97279" lon="1.17375">
        <ele>146.5</ele>
        <time>2015-07-09T17:06:50Z</time>
      </trkpt>
      <trkpt lat="48.97291" lon="1.17376">
        <ele>146.5</ele>
        <time>2015-07-09T17:06:52Z</time>
      </trkpt>
      <trkpt lat="48.97303" lon="1.17378">
        <ele>146.6</ele>
        <time>2015-07-09T17:06:54Z</time>
      </trkpt>
      <trkpt lat="48.97315" lon="1.17379">
        <ele>146.6</ele>
        <time>2015-07-09T17:06:56Z</time>
      </trkpt>
      <trkpt lat="48.97327" lon="1.1738">
        <ele>146.7</ele>
        <time>2015-07-09T17:06:58Z</time>
      </trkpt>
      <trkpt lat="48.97339" lon="1.17381">
        <ele>146.7</ele>
        <time>2015-07-09T17:07:00Z</time>
      </trkpt>
      <trkpt lat="48.9735" lon="1.17382">
        <ele>146.8</ele>
        <time>2015-07-09T17:07:02Z</time>
      </trkpt>
      <trkpt lat="48.97363" lon="1.17383">
        <ele>146.9</ele>
        <time>2015-07-09T17:07:04Z</time>
      </trkpt>
      <trkpt lat="48.97376" lon="1.17384">
        <ele>147</ele>
        <time>2015-07-09T17:07:06Z</time>
      </trkpt>
      <trkpt lat="48.97388" lon="1.17385">
        <ele>147</ele>
        <time>2015-07-09T17:07:08Z</time>
      </trkpt>
      <trkpt lat="48.97401" lon="1.17386">
        <ele>147.1</ele>
        <time>2015-07-09T17:07:10Z</time>
      </trkpt>
      <trkpt lat="48.97413" lon="1.17387">
        <ele>147.2</ele>
        <time>2015-07-09T17:07:12Z</time>
      </trkpt>
      <trkpt lat="48.97426" lon="1.17388">
        <ele>147.3</ele>
        <time>2015-07-09T17:07:14Z</time>
      </trkpt>
      <trkpt lat="48.97438" lon="1.17389">
        <ele>147.4</ele>
        <time>2015-07-09T17:07:16Z</time>
      </trkpt>
      <trkpt lat="48.9745" lon="1.17389">
        <ele>147.4</ele>
        <time>2015-07-09T17:07:18Z</time>
      </trkpt>
      <trkpt lat="48.97461" lon="1.1739">
        <ele>147.5</ele>
        <time>2015-07-09T17:07:20Z</time>
      </trkpt>
      <trkpt lat="48.97471" lon="1.1739">
        <ele>147.6</ele>
        <time>2015-07-09T17:07:22Z</time>
      </trkpt>
      <trkpt lat="48.97484" lon="1.17388">
        <ele>147.7</ele>
        <time>2015-07-09T17:07:25Z</time>
      </trkpt>
      <trkpt lat="48.97494" lon="1.17384">
        <ele>147.7</ele>
        <time>2015-07-09T17:07:27Z</time>
      </trkpt>
      <trkpt lat="48.97505" lon="1.17381">
        <ele>147.8</ele>
        <time>2015-07-09T17:07:29Z</time>
      </trkpt>
      <trkpt lat="48.97516" lon="1.17379">
        <ele>147.8</ele>
        <time>2015-07-09T17:07:31Z</time>
      </trkpt>
      <trkpt lat="48.97528" lon="1.17377">
        <ele>147.9</ele>
        <time>2015-07-09T17:07:33Z</time>
      </trkpt>
      <trkpt lat="48.97539" lon="1.17374">
        <ele>147.9</ele>
        <time>2015-07-09T17:07:35Z</time>
      </trkpt>
      <trkpt lat="48.97551" lon="1.17371">
        <ele>148</ele>
        <time>2015-07-09T17:07:37Z</time>
      </trkpt>
      <trkpt lat="48.97562" lon="1.17369">
        <ele>148.1</ele>
        <time>2015-07-09T17:07:39Z</time>
      </trkpt>
      <trkpt lat="48.97574" lon="1.17366">
        <ele>148.2</ele>
        <time>2015-07-09T17:07:41Z</time>
      </trkpt>
      <trkpt lat="48.97586" lon="1.17364">
        <ele>148.3</ele>
        <time>2015-07-09T17:07:43Z</time>
      </trkpt>
      <trkpt lat="48.97597" lon="1.17361">
        <ele>148.4</ele>
        <time>2015-07-09T17:07:45Z</time>
      </trkpt>
      <trkpt lat="48.97609" lon="1.17359">
        <ele>148.4</ele>
        <time>2015-07-09T17:07:47Z</time>
      </trkpt>
      <trkpt lat="48.97621" lon="1.17356">
        <ele>148.5</ele>
        <time>2015-07-09T17:07:49Z</time>
      </trkpt>
      <trkpt lat="48.97633" lon="1.17354">
        <ele>148.6</ele>
        <time>2015-07-09T17:07:51Z</time>
      </trkpt>
      <trkpt lat="48.97645" lon="1.17352">
        <ele>148.7</ele>
        <time>2015-07-09T17:07:53Z</time>
      </trkpt>
      <trkpt lat="48.97658" lon="1.17351">
        <ele>148.8</ele>
        <time>2015-07-09T17:07:55Z</time>
      </trkpt>
      <trkpt lat="48.9767" lon="1.17349">
        <ele>148.9</ele>
        <time>2015-07-09T17:07:57Z</time>
      </trkpt>
      <trkpt lat="48.97682" lon="1.17347">
        <ele>149.1</ele>
        <time>2015-07-09T17:07:59Z</time>
      </trkpt>
      <trkpt lat="48.97693" lon="1.17344">
        <ele>149.2</ele>
        <time>2015-07-09T17:08:01Z</time>
      </trkpt>
      <trkpt lat="48.97705" lon="1.17342">
        <ele>149.2</ele>
        <time>2015-07-09T17:08:03Z</time>
      </trkpt>
      <trkpt lat="48.97717" lon="1.17339">
        <ele>149.3</ele>
        <time>2015-07-09T17:08:05Z</time>
      </trkpt>
      <trkpt lat="48.97728" lon="1.17337">
        <ele>149.6</ele>
        <time>2015-07-09T17:08:07Z</time>
      </trkpt>
      <trkpt lat="48.9774" lon="1.17334">
        <ele>149.8</ele>
        <time>2015-07-09T17:08:09Z</time>
      </trkpt>
      <trkpt lat="48.97751" lon="1.17333">
        <ele>150</ele>
        <time>2015-07-09T17:08:11Z</time>
      </trkpt>
      <trkpt lat="48.97763" lon="1.17331">
        <ele>150.2</ele>
        <time>2015-07-09T17:08:13Z</time>
      </trkpt>
      <trkpt lat="48.97774" lon="1.17329">
        <ele>150.4</ele>
        <time>2015-07-09T17:08:15Z</time>
      </trkpt>
      <trkpt lat="48.97786" lon="1.17327">
        <ele>150.6</ele>
        <time>2015-07-09T17:08:17Z</time>
      </trkpt>
      <trkpt lat="48.97798" lon="1.17325">
        <ele>150.7</ele>
        <time>2015-07-09T17:08:19Z</time>
      </trkpt>
      <trkpt lat="48.97809" lon="1.17324">
        <ele>150.8</ele>
        <time>2015-07-09T17:08:21Z</time>
      </trkpt>
      <trkpt lat="48.97821" lon="1.17322">
        <ele>150.9</ele>
        <time>2015-07-09T17:08:23Z</time>
      </trkpt>
      <trkpt lat="48.97833" lon="1.17321">
        <ele>151</ele>
        <time>2015-07-09T17:08:25Z</time>
      </trkpt>
      <trkpt lat="48.97844" lon="1.1732">
        <ele>151.1</ele>
        <time>2015-07-09T17:08:27Z</time>
      </trkpt>
      <trkpt lat="48.97856" lon="1.17319">
        <ele>151.1</ele>
        <time>2015-07-09T17:08:29Z</time>
      </trkpt>
      <trkpt lat="48.97868" lon="1.17318">
        <ele>151.2</ele>
        <time>2015-07-09T17:08:31Z</time>
      </trkpt>
      <trkpt lat="48.97879" lon="1.17316">
        <ele>151.3</ele>
        <time>2015-07-09T17:08:33Z</time>
      </trkpt>
      <trkpt lat="48.97891" lon="1.17315">
        <ele>151.4</ele>
        <time>2015-07-09T17:08:35Z</time>
      </trkpt>
      <trkpt lat="48.97903" lon="1.17314">
        <ele>151.5</ele>
        <time>2015-07-09T17:08:37Z</time>
      </trkpt>
      <trkpt lat="48.97915" lon="1.17313">
        <ele>151.5</ele>
        <time>2015-07-09T17:08:39Z</time>
      </trkpt>
      <trkpt lat="48.97927" lon="1.17312">
        <ele>151.6</ele>
        <time>2015-07-09T17:08:41Z</time>
      </trkpt>
      <trkpt lat="48.97939" lon="1.1731">
        <ele>151.7</ele>
        <time>2015-07-09T17:08:43Z</time>
      </trkpt>
      <trkpt lat="48.97951" lon="1.17309">
        <ele>151.7</ele>
        <time>2015-07-09T17:08:45Z</time>
      </trkpt>
      <trkpt lat="48.97963" lon="1.17307">
        <ele>151.8</ele>
        <time>2015-07-09T17:08:47Z</time>
      </trkpt>
      <trkpt lat="48.97975" lon="1.17305">
        <ele>151.8</ele>
        <time>2015-07-09T17:08:49Z</time>
      </trkpt>
      <trkpt lat="48.97987" lon="1.17302">
        <ele>151.8</ele>
        <time>2015-07-09T17:08:51Z</time>
      </trkpt>
      <trkpt lat="48.98" lon="1.17299">
        <ele>151.9</ele>
        <time>2015-07-09T17:08:53Z</time>
      </trkpt>
      <trkpt lat="48.98013" lon="1.17296">
        <ele>151.9</ele>
        <time>2015-07-09T17:08:55Z</time>
      </trkpt>
      <trkpt lat="48.98025" lon="1.17293">
        <ele>151.9</ele>
        <time>2015-07-09T17:08:57Z</time>
      </trkpt>
      <trkpt lat="48.98038" lon="1.17289">
        <ele>151.9</ele>
        <time>2015-07-09T17:08:59Z</time>
      </trkpt>
      <trkpt lat="48.9805" lon="1.17285">
        <ele>151.9</ele>
        <time>2015-07-09T17:09:01Z</time>
      </trkpt>
      <trkpt lat="48.98063" lon="1.17282">
        <ele>151.9</ele>
        <time>2015-07-09T17:09:03Z</time>
      </trkpt>
      <trkpt lat="48.98075" lon="1.17277">
        <ele>151.9</ele>
        <time>2015-07-09T17:09:05Z</time>
      </trkpt>
      <trkpt lat="48.98088" lon="1.17274">
        <ele>151.9</ele>
        <time>2015-07-09T17:09:07Z</time>
      </trkpt>
      <trkpt lat="48.98101" lon="1.1727">
        <ele>151.9</ele>
        <time>2015-07-09T17:09:09Z</time>
      </trkpt>
      <trkpt lat="48.98114" lon="1.17266">
        <ele>151.8</ele>
        <time>2015-07-09T17:09:11Z</time>
      </trkpt>
      <trkpt lat="48.98126" lon="1.17262">
        <ele>151.7</ele>
        <time>2015-07-09T17:09:13Z</time>
      </trkpt>
      <trkpt lat="48.98139" lon="1.17258">
        <ele>151.6</ele>
        <time>2015-07-09T17:09:15Z</time>
      </trkpt>
      <trkpt lat="48.98153" lon="1.17253">
        <ele>151.5</ele>
        <time>2015-07-09T17:09:17Z</time>
      </trkpt>
      <trkpt lat="48.98166" lon="1.17248">
        <ele>151.4</ele>
        <time>2015-07-09T17:09:19Z</time>
      </trkpt>
      <trkpt lat="48.98179" lon="1.17243">
        <ele>151.2</ele>
        <time>2015-07-09T17:09:21Z</time>
      </trkpt>
      <trkpt lat="48.98192" lon="1.17237">
        <ele>151.1</ele>
        <time>2015-07-09T17:09:23Z</time>
      </trkpt>
      <trkpt lat="48.98205" lon="1.1723">
        <ele>151</ele>
        <time>2015-07-09T17:09:25Z</time>
      </trkpt>
      <trkpt lat="48.98218" lon="1.17223">
        <ele>151</ele>
        <time>2015-07-09T17:09:27Z</time>
      </trkpt>
      <trkpt lat="48.98231" lon="1.17216">
        <ele>150.9</ele>
        <time>2015-07-09T17:09:29Z</time>
      </trkpt>
      <trkpt lat="48.98244" lon="1.17208">
        <ele>150.8</ele>
        <time>2015-07-09T17:09:31Z</time>
      </trkpt>
      <trkpt lat="48.98256" lon="1.172">
        <ele>150.8</ele>
        <time>2015-07-09T17:09:33Z</time>
      </trkpt>
      <trkpt lat="48.98269" lon="1.17191">
        <ele>150.7</ele>
        <time>2015-07-09T17:09:35Z</time>
      </trkpt>
      <trkpt lat="48.98281" lon="1.17182">
        <ele>150.5</ele>
        <time>2015-07-09T17:09:37Z</time>
      </trkpt>
      <trkpt lat="48.98293" lon="1.17172">
        <ele>150.3</ele>
        <time>2015-07-09T17:09:39Z</time>
      </trkpt>
      <trkpt lat="48.98305" lon="1.17162">
        <ele>150.2</ele>
        <time>2015-07-09T17:09:41Z</time>
      </trkpt>
      <trkpt lat="48.98317" lon="1.17151">
        <ele>150</ele>
        <time>2015-07-09T17:09:43Z</time>
      </trkpt>
      <trkpt lat="48.9833" lon="1.17141">
        <ele>149.9</ele>
        <time>2015-07-09T17:09:45Z</time>
      </trkpt>
      <trkpt lat="48.98342" lon="1.1713">
        <ele>149.8</ele>
        <time>2015-07-09T17:09:47Z</time>
      </trkpt>
      <trkpt lat="48.98354" lon="1.1712">
        <ele>149.7</ele>
        <time>2015-07-09T17:09:49Z</time>
      </trkpt>
      <trkpt lat="48.98366" lon="1.17109">
        <ele>149.5</ele>
        <time>2015-07-09T17:09:51Z</time>
      </trkpt>
      <trkpt lat="48.98378" lon="1.17098">
        <ele>149.4</ele>
        <time>2015-07-09T17:09:53Z</time>
      </trkpt>
      <trkpt lat="48.9839" lon="1.17088">
        <ele>149.2</ele>
        <time>2015-07-09T17:09:55Z</time>
      </trkpt>
      <trkpt lat="48.98403" lon="1.17077">
        <ele>149.1</ele>
        <time>2015-07-09T17:09:57Z</time>
      </trkpt>
      <trkpt lat="48.98415" lon="1.17066">
        <ele>148.9</ele>
        <time>2015-07-09T17:09:59Z</time>
      </trkpt>
      <trkpt lat="48.98428" lon="1.17055">
        <ele>148.7</ele>
        <time>2015-07-09T17:10:01Z</time>
      </trkpt>
      <trkpt lat="48.9844" lon="1.17044">
        <ele>148.5</ele>
        <time>2015-07-09T17:10:03Z</time>
      </trkpt>
      <trkpt lat="48.98453" lon="1.17033">
        <ele>148.4</ele>
        <time>2015-07-09T17:10:05Z</time>
      </trkpt>
      <trkpt lat="48.98465" lon="1.17022">
        <ele>148.2</ele>
        <time>2015-07-09T17:10:07Z</time>
      </trkpt>
      <trkpt lat="48.98477" lon="1.1701">
        <ele>148.1</ele>
        <time>2015-07-09T17:10:09Z</time>
      </trkpt>
      <trkpt lat="48.98489" lon="1.16997">
        <ele>147.8</ele>
        <time>2015-07-09T17:10:11Z</time>
      </trkpt>
      <trkpt lat="48.98501" lon="1.16985">
        <ele>147.6</ele>
        <time>2015-07-09T17:10:13Z</time>
      </trkpt>
      <trkpt lat="48.98512" lon="1.16971">
        <ele>147.4</ele>
        <time>2015-07-09T17:10:15Z</time>
      </trkpt>
      <trkpt lat="48.98524" lon="1.16958">
        <ele>147.3</ele>
        <time>2015-07-09T17:10:17Z</time>
      </trkpt>
      <trkpt lat="48.98534" lon="1.16946">
        <ele>147</ele>
        <time>2015-07-09T17:10:19Z</time>
      </trkpt>
      <trkpt lat="48.98546" lon="1.16935">
        <ele>146.8</ele>
        <time>2015-07-09T17:10:21Z</time>
      </trkpt>
      <trkpt lat="48.98556" lon="1.16925">
        <ele>146.6</ele>
        <time>2015-07-09T17:10:23Z</time>
      </trkpt>
      <trkpt lat="48.98568" lon="1.16926">
        <ele>146.2</ele>
        <time>2015-07-09T17:10:26Z</time>
      </trkpt>
      <trkpt lat="48.98572" lon="1.16942">
        <ele>145.8</ele>
        <time>2015-07-09T17:10:29Z</time>
      </trkpt>
      <trkpt lat="48.98571" lon="1.16956">
        <ele>145.5</ele>
        <time>2015-07-09T17:10:31Z</time>
      </trkpt>
      <trkpt lat="48.9857" lon="1.16971">
        <ele>145.3</ele>
        <time>2015-07-09T17:10:33Z</time>
      </trkpt>
      <trkpt lat="48.98568" lon="1.16988">
        <ele>145.1</ele>
        <time>2015-07-09T17:10:35Z</time>
      </trkpt>
      <trkpt lat="48.98567" lon="1.17005">
        <ele>145</ele>
        <time>2015-07-09T17:10:37Z</time>
      </trkpt>
      <trkpt lat="48.98567" lon="1.17024">
        <ele>144.8</ele>
        <time>2015-07-09T17:10:39Z</time>
      </trkpt>
      <trkpt lat="48.98566" lon="1.17043">
        <ele>144.7</ele>
        <time>2015-07-09T17:10:41Z</time>
      </trkpt>
      <trkpt lat="48.98563" lon="1.17063">
        <ele>144.6</ele>
        <time>2015-07-09T17:10:43Z</time>
      </trkpt>
      <trkpt lat="48.98561" lon="1.17083">
        <ele>144.5</ele>
        <time>2015-07-09T17:10:45Z</time>
      </trkpt>
      <trkpt lat="48.98558" lon="1.17104">
        <ele>144.4</ele>
        <time>2015-07-09T17:10:47Z</time>
      </trkpt>
      <trkpt lat="48.98556" lon="1.17124">
        <ele>144.3</ele>
        <time>2015-07-09T17:10:49Z</time>
      </trkpt>
      <trkpt lat="48.98553" lon="1.17144">
        <ele>144.2</ele>
        <time>2015-07-09T17:10:51Z</time>
      </trkpt>
      <trkpt lat="48.9855" lon="1.17165">
        <ele>144.1</ele>
        <time>2015-07-09T17:10:53Z</time>
      </trkpt>
      <trkpt lat="48.98546" lon="1.17185">
        <ele>144.1</ele>
        <time>2015-07-09T17:10:55Z</time>
      </trkpt>
      <trkpt lat="48.98543" lon="1.17206">
        <ele>144</ele>
        <time>2015-07-09T17:10:57Z</time>
      </trkpt>
      <trkpt lat="48.98539" lon="1.17227">
        <ele>144</ele>
        <time>2015-07-09T17:10:59Z</time>
      </trkpt>
      <trkpt lat="48.98536" lon="1.17248">
        <ele>143.9</ele>
        <time>2015-07-09T17:11:01Z</time>
      </trkpt>
      <trkpt lat="48.98533" lon="1.17269">
        <ele>143.9</ele>
        <time>2015-07-09T17:11:03Z</time>
      </trkpt>
      <trkpt lat="48.98529" lon="1.1729">
        <ele>143.8</ele>
        <time>2015-07-09T17:11:05Z</time>
      </trkpt>
      <trkpt lat="48.98526" lon="1.17311">
        <ele>143.8</ele>
        <time>2015-07-09T17:11:07Z</time>
      </trkpt>
      <trkpt lat="48.98522" lon="1.17333">
        <ele>143.7</ele>
        <time>2015-07-09T17:11:09Z</time>
      </trkpt>
      <trkpt lat="48.98519" lon="1.17354">
        <ele>143.7</ele>
        <time>2015-07-09T17:11:11Z</time>
      </trkpt>
      <trkpt lat="48.98515" lon="1.17374">
        <ele>143.7</ele>
        <time>2015-07-09T17:11:13Z</time>
      </trkpt>
      <trkpt lat="48.98512" lon="1.17395">
        <ele>143.7</ele>
        <time>2015-07-09T17:11:15Z</time>
      </trkpt>
      <trkpt lat="48.98509" lon="1.17416">
        <ele>143.7</ele>
        <time>2015-07-09T17:11:17Z</time>
      </trkpt>
      <trkpt lat="48.98506" lon="1.17437">
        <ele>143.8</ele>
        <time>2015-07-09T17:11:19Z</time>
      </trkpt>
      <trkpt lat="48.98503" lon="1.17458">
        <ele>143.8</ele>
        <time>2015-07-09T17:11:21Z</time>
      </trkpt>
      <trkpt lat="48.98499" lon="1.17479">
        <ele>143.9</ele>
        <time>2015-07-09T17:11:23Z</time>
      </trkpt>
      <trkpt lat="48.98496" lon="1.17501">
        <ele>144</ele>
        <time>2015-07-09T17:11:25Z</time>
      </trkpt>
      <trkpt lat="48.98492" lon="1.17522">
        <ele>144</ele>
        <time>2015-07-09T17:11:27Z</time>
      </trkpt>
      <trkpt lat="48.98489" lon="1.17544">
        <ele>144.1</ele>
        <time>2015-07-09T17:11:29Z</time>
      </trkpt>
      <trkpt lat="48.98485" lon="1.17564">
        <ele>144.1</ele>
        <time>2015-07-09T17:11:31Z</time>
      </trkpt>
      <trkpt lat="48.98493" lon="1.17575">
        <ele>144.2</ele>
        <time>2015-07-09T17:11:34Z</time>
      </trkpt>
      <trkpt lat="48.98507" lon="1.17569">
        <ele>144.3</ele>
        <time>2015-07-09T17:11:37Z</time>
      </trkpt>
      <trkpt lat="48.98517" lon="1.17565">
        <ele>144.3</ele>
        <time>2015-07-09T17:11:39Z</time>
      </trkpt>
      <trkpt lat="48.98528" lon="1.17559">
        <ele>144.3</ele>
        <time>2015-07-09T17:11:41Z</time>
      </trkpt>
      <trkpt lat="48.9854" lon="1.17554">
        <ele>144.2</ele>
        <time>2015-07-09T17:11:43Z</time>
      </trkpt>
      <trkpt lat="48.98552" lon="1.17548">
        <ele>144.2</ele>
        <time>2015-07-09T17:11:45Z</time>
      </trkpt>
      <trkpt lat="48.98564" lon="1.17542">
        <ele>144.2</ele>
        <time>2015-07-09T17:11:47Z</time>
      </trkpt>
      <trkpt lat="48.98577" lon="1.17536">
        <ele>144.1</ele>
        <time>2015-07-09T17:11:49Z</time>
      </trkpt>
      <trkpt lat="48.98589" lon="1.17529">
        <ele>144.1</ele>
        <time>2015-07-09T17:11:51Z</time>
      </trkpt>
      <trkpt lat="48.98602" lon="1.17523">
        <ele>144</ele>
        <time>2015-07-09T17:11:53Z</time>
      </trkpt>
      <trkpt lat="48.98615" lon="1.17516">
        <ele>143.9</ele>
        <time>2015-07-09T17:11:55Z</time>
      </trkpt>
      <trkpt lat="48.98628" lon="1.1751">
        <ele>143.8</ele>
        <time>2015-07-09T17:11:57Z</time>
      </trkpt>
      <trkpt lat="48.98641" lon="1.17503">
        <ele>143.8</ele>
        <time>2015-07-09T17:11:59Z</time>
      </trkpt>
      <trkpt lat="48.98654" lon="1.17495">
        <ele>143.6</ele>
        <time>2015-07-09T17:12:01Z</time>
      </trkpt>
      <trkpt lat="48.98668" lon="1.17488">
        <ele>143.5</ele>
        <time>2015-07-09T17:12:03Z</time>
      </trkpt>
      <trkpt lat="48.98683" lon="1.17481">
        <ele>143.4</ele>
        <time>2015-07-09T17:12:05Z</time>
      </trkpt>
      <trkpt lat="48.98696" lon="1.17474">
        <ele>143.2</ele>
        <time>2015-07-09T17:12:07Z</time>
      </trkpt>
      <trkpt lat="48.98709" lon="1.17467">
        <ele>143</ele>
        <time>2015-07-09T17:12:09Z</time>
      </trkpt>
      <trkpt lat="48.98722" lon="1.17461">
        <ele>142.7</ele>
        <time>2015-07-09T17:12:11Z</time>
      </trkpt>
      <trkpt lat="48.98736" lon="1.17455">
        <ele>142.5</ele>
        <time>2015-07-09T17:12:13Z</time>
      </trkpt>
      <trkpt lat="48.9875" lon="1.17448">
        <ele>142.3</ele>
        <time>2015-07-09T17:12:15Z</time>
      </trkpt>
      <trkpt lat="48.98763" lon="1.17441">
        <ele>142</ele>
        <time>2015-07-09T17:12:17Z</time>
      </trkpt>
      <trkpt lat="48.98777" lon="1.17434">
        <ele>141.7</ele>
        <time>2015-07-09T17:12:19Z</time>
      </trkpt>
      <trkpt lat="48.98791" lon="1.17427">
        <ele>141.4</ele>
        <time>2015-07-09T17:12:21Z</time>
      </trkpt>
      <trkpt lat="48.98805" lon="1.17421">
        <ele>141.1</ele>
        <time>2015-07-09T17:12:23Z</time>
      </trkpt>
      <trkpt lat="48.98818" lon="1.17415">
        <ele>140.8</ele>
        <time>2015-07-09T17:12:25Z</time>
      </trkpt>
      <trkpt lat="48.98831" lon="1.17409">
        <ele>140.6</ele>
        <time>2015-07-09T17:12:27Z</time>
      </trkpt>
      <trkpt lat="48.98843" lon="1.17403">
        <ele>140.4</ele>
        <time>2015-07-09T17:12:29Z</time>
      </trkpt>
      <trkpt lat="48.98855" lon="1.17397">
        <ele>140.2</ele>
        <time>2015-07-09T17:12:31Z</time>
      </trkpt>
      <trkpt lat="48.98867" lon="1.17392">
        <ele>140</ele>
        <time>2015-07-09T17:12:33Z</time>
      </trkpt>
      <trkpt lat="48.98878" lon="1.17386">
        <ele>139.8</ele>
        <time>2015-07-09T17:12:35Z</time>
      </trkpt>
      <trkpt lat="48.9889" lon="1.1738">
        <ele>139.6</ele>
        <time>2015-07-09T17:12:37Z</time>
      </trkpt>
      <trkpt lat="48.98901" lon="1.17374">
        <ele>139.4</ele>
        <time>2015-07-09T17:12:39Z</time>
      </trkpt>
      <trkpt lat="48.98911" lon="1.17369">
        <ele>139.3</ele>
        <time>2015-07-09T17:12:41Z</time>
      </trkpt>
      <trkpt lat="48.98921" lon="1.17364">
        <ele>139.1</ele>
        <time>2015-07-09T17:12:43Z</time>
      </trkpt>
      <trkpt lat="48.98932" lon="1.17358">
        <ele>139</ele>
        <time>2015-07-09T17:12:45Z</time>
      </trkpt>
      <trkpt lat="48.98942" lon="1.17352">
        <ele>138.8</ele>
        <time>2015-07-09T17:12:47Z</time>
      </trkpt>
      <trkpt lat="48.98953" lon="1.17346">
        <ele>138.7</ele>
        <time>2015-07-09T17:12:49Z</time>
      </trkpt>
      <trkpt lat="48.98963" lon="1.1734">
        <ele>138.6</ele>
        <time>2015-07-09T17:12:51Z</time>
      </trkpt>
      <trkpt lat="48.98974" lon="1.17333">
        <ele>138.5</ele>
        <time>2015-07-09T17:12:53Z</time>
      </trkpt>
      <trkpt lat="48.98984" lon="1.17327">
        <ele>138.4</ele>
        <time>2015-07-09T17:12:55Z</time>
      </trkpt>
      <trkpt lat="48.98994" lon="1.17322">
        <ele>138.3</ele>
        <time>2015-07-09T17:12:57Z</time>
      </trkpt>
      <trkpt lat="48.99004" lon="1.17316">
        <ele>138.3</ele>
        <time>2015-07-09T17:12:59Z</time>
      </trkpt>
      <trkpt lat="48.99014" lon="1.1731">
        <ele>138.2</ele>
        <time>2015-07-09T17:13:01Z</time>
      </trkpt>
      <trkpt lat="48.99024" lon="1.17305">
        <ele>138.2</ele>
        <time>2015-07-09T17:13:03Z</time>
      </trkpt>
      <trkpt lat="48.99035" lon="1.173">
        <ele>138.2</ele>
        <time>2015-07-09T17:13:05Z</time>
      </trkpt>
      <trkpt lat="48.99044" lon="1.17294">
        <ele>138.3</ele>
        <time>2015-07-09T17:13:07Z</time>
      </trkpt>
      <trkpt lat="48.99054" lon="1.1729">
        <ele>138.3</ele>
        <time>2015-07-09T17:13:09Z</time>
      </trkpt>
      <trkpt lat="48.99064" lon="1.17286">
        <ele>138.3</ele>
        <time>2015-07-09T17:13:11Z</time>
      </trkpt>
      <trkpt lat="48.99075" lon="1.17282">
        <ele>138.4</ele>
        <time>2015-07-09T17:13:13Z</time>
      </trkpt>
      <trkpt lat="48.99085" lon="1.17278">
        <ele>138.4</ele>
        <time>2015-07-09T17:13:15Z</time>
      </trkpt>
      <trkpt lat="48.99096" lon="1.17273">
        <ele>138.6</ele>
        <time>2015-07-09T17:13:17Z</time>
      </trkpt>
      <trkpt lat="48.99106" lon="1.17268">
        <ele>138.7</ele>
        <time>2015-07-09T17:13:19Z</time>
      </trkpt>
      <trkpt lat="48.99116" lon="1.17263">
        <ele>138.8</ele>
        <time>2015-07-09T17:13:21Z</time>
      </trkpt>
      <trkpt lat="48.99126" lon="1.17258">
        <ele>138.9</ele>
        <time>2015-07-09T17:13:23Z</time>
      </trkpt>
      <trkpt lat="48.99136" lon="1.17253">
        <ele>139</ele>
        <time>2015-07-09T17:13:25Z</time>
      </trkpt>
      <trkpt lat="48.99146" lon="1.17246">
        <ele>139.2</ele>
        <time>2015-07-09T17:13:27Z</time>
      </trkpt>
      <trkpt lat="48.99156" lon="1.1724">
        <ele>139.4</ele>
        <time>2015-07-09T17:13:29Z</time>
      </trkpt>
      <trkpt lat="48.99165" lon="1.17235">
        <ele>139.6</ele>
        <time>2015-07-09T17:13:31Z</time>
      </trkpt>
      <trkpt lat="48.99175" lon="1.1723">
        <ele>139.7</ele>
        <time>2015-07-09T17:13:33Z</time>
      </trkpt>
      <trkpt lat="48.99185" lon="1.17224">
        <ele>139.9</ele>
        <time>2015-07-09T17:13:35Z</time>
      </trkpt>
      <trkpt lat="48.99195" lon="1.17219">
        <ele>140</ele>
        <time>2015-07-09T17:13:37Z</time>
      </trkpt>
      <trkpt lat="48.99204" lon="1.17214">
        <ele>140.1</ele>
        <time>2015-07-09T17:13:39Z</time>
      </trkpt>
      <trkpt lat="48.99214" lon="1.17209">
        <ele>140.2</ele>
        <time>2015-07-09T17:13:41Z</time>
      </trkpt>
      <trkpt lat="48.99225" lon="1.17205">
        <ele>140.3</ele>
        <time>2015-07-09T17:13:43Z</time>
      </trkpt>
      <trkpt lat="48.99235" lon="1.172">
        <ele>140.3</ele>
        <time>2015-07-09T17:13:45Z</time>
      </trkpt>
      <trkpt lat="48.99245" lon="1.17195">
        <ele>140.5</ele>
        <time>2015-07-09T17:13:47Z</time>
      </trkpt>
      <trkpt lat="48.99255" lon="1.17188">
        <ele>140.6</ele>
        <time>2015-07-09T17:13:49Z</time>
      </trkpt>
      <trkpt lat="48.99264" lon="1.17182">
        <ele>140.7</ele>
        <time>2015-07-09T17:13:51Z</time>
      </trkpt>
      <trkpt lat="48.99274" lon="1.17175">
        <ele>141</ele>
        <time>2015-07-09T17:13:53Z</time>
      </trkpt>
      <trkpt lat="48.99284" lon="1.1717">
        <ele>141.2</ele>
        <time>2015-07-09T17:13:55Z</time>
      </trkpt>
      <trkpt lat="48.99294" lon="1.17166">
        <ele>141.4</ele>
        <time>2015-07-09T17:13:57Z</time>
      </trkpt>
      <trkpt lat="48.99304" lon="1.17162">
        <ele>141.6</ele>
        <time>2015-07-09T17:13:59Z</time>
      </trkpt>
      <trkpt lat="48.99314" lon="1.17159">
        <ele>141.8</ele>
        <time>2015-07-09T17:14:01Z</time>
      </trkpt>
      <trkpt lat="48.99324" lon="1.17155">
        <ele>142</ele>
        <time>2015-07-09T17:14:03Z</time>
      </trkpt>
      <trkpt lat="48.99334" lon="1.17153">
        <ele>142.2</ele>
        <time>2015-07-09T17:14:05Z</time>
      </trkpt>
      <trkpt lat="48.99343" lon="1.17149">
        <ele>142.4</ele>
        <time>2015-07-09T17:14:07Z</time>
      </trkpt>
      <trkpt lat="48.99353" lon="1.17145">
        <ele>142.7</ele>
        <time>2015-07-09T17:14:09Z</time>
      </trkpt>
      <trkpt lat="48.99363" lon="1.17141">
        <ele>142.9</ele>
        <time>2015-07-09T17:14:11Z</time>
      </trkpt>
      <trkpt lat="48.99373" lon="1.17137">
        <ele>143.1</ele>
        <time>2015-07-09T17:14:13Z</time>
      </trkpt>
      <trkpt lat="48.99383" lon="1.17132">
        <ele>143.3</ele>
        <time>2015-07-09T17:14:15Z</time>
      </trkpt>
      <trkpt lat="48.99393" lon="1.17128">
        <ele>143.5</ele>
        <time>2015-07-09T17:14:17Z</time>
      </trkpt>
      <trkpt lat="48.99402" lon="1.17123">
        <ele>143.7</ele>
        <time>2015-07-09T17:14:19Z</time>
      </trkpt>
      <trkpt lat="48.99412" lon="1.17119">
        <ele>143.9</ele>
        <time>2015-07-09T17:14:21Z</time>
      </trkpt>
      <trkpt lat="48.99422" lon="1.17114">
        <ele>144</ele>
        <time>2015-07-09T17:14:23Z</time>
      </trkpt>
      <trkpt lat="48.99433" lon="1.17109">
        <ele>144.2</ele>
        <time>2015-07-09T17:14:25Z</time>
      </trkpt>
      <trkpt lat="48.99443" lon="1.17104">
        <ele>144.4</ele>
        <time>2015-07-09T17:14:27Z</time>
      </trkpt>
      <trkpt lat="48.99454" lon="1.17099">
        <ele>144.6</ele>
        <time>2015-07-09T17:14:29Z</time>
      </trkpt>
      <trkpt lat="48.99465" lon="1.17094">
        <ele>144.7</ele>
        <time>2015-07-09T17:14:31Z</time>
      </trkpt>
      <trkpt lat="48.99475" lon="1.17089">
        <ele>144.9</ele>
        <time>2015-07-09T17:14:33Z</time>
      </trkpt>
      <trkpt lat="48.99486" lon="1.17084">
        <ele>145</ele>
        <time>2015-07-09T17:14:35Z</time>
      </trkpt>
      <trkpt lat="48.99498" lon="1.17079">
        <ele>145.1</ele>
        <time>2015-07-09T17:14:37Z</time>
      </trkpt>
      <trkpt lat="48.9951" lon="1.17074">
        <ele>145.2</ele>
        <time>2015-07-09T17:14:39Z</time>
      </trkpt>
      <trkpt lat="48.99521" lon="1.17068">
        <ele>145.2</ele>
        <time>2015-07-09T17:14:41Z</time>
      </trkpt>
      <trkpt lat="48.99533" lon="1.17063">
        <ele>145.2</ele>
        <time>2015-07-09T17:14:43Z</time>
      </trkpt>
      <trkpt lat="48.99544" lon="1.17058">
        <ele>145.3</ele>
        <time>2015-07-09T17:14:45Z</time>
      </trkpt>
      <trkpt lat="48.99556" lon="1.17052">
        <ele>145.3</ele>
        <time>2015-07-09T17:14:47Z</time>
      </trkpt>
      <trkpt lat="48.99568" lon="1.17046">
        <ele>145.3</ele>
        <time>2015-07-09T17:14:49Z</time>
      </trkpt>
      <trkpt lat="48.9958" lon="1.17041">
        <ele>145.2</ele>
        <time>2015-07-09T17:14:51Z</time>
      </trkpt>
      <trkpt lat="48.99593" lon="1.17036">
        <ele>145.2</ele>
        <time>2015-07-09T17:14:53Z</time>
      </trkpt>
      <trkpt lat="48.99605" lon="1.1703">
        <ele>145.1</ele>
        <time>2015-07-09T17:14:55Z</time>
      </trkpt>
      <trkpt lat="48.99617" lon="1.17024">
        <ele>145.1</ele>
        <time>2015-07-09T17:14:57Z</time>
      </trkpt>
      <trkpt lat="48.99629" lon="1.17018">
        <ele>145</ele>
        <time>2015-07-09T17:14:59Z</time>
      </trkpt>
      <trkpt lat="48.99642" lon="1.17012">
        <ele>144.9</ele>
        <time>2015-07-09T17:15:01Z</time>
      </trkpt>
      <trkpt lat="48.99654" lon="1.17006">
        <ele>144.7</ele>
        <time>2015-07-09T17:15:03Z</time>
      </trkpt>
      <trkpt lat="48.99667" lon="1.17">
        <ele>144.6</ele>
        <time>2015-07-09T17:15:05Z</time>
      </trkpt>
      <trkpt lat="48.99679" lon="1.16993">
        <ele>144.5</ele>
        <time>2015-07-09T17:15:07Z</time>
      </trkpt>
      <trkpt lat="48.99688" lon="1.16985">
        <ele>144.5</ele>
        <time>2015-07-09T17:15:09Z</time>
      </trkpt>
      <trkpt lat="48.99695" lon="1.16974">
        <ele>144.3</ele>
        <time>2015-07-09T17:15:12Z</time>
      </trkpt>
      <trkpt lat="48.99701" lon="1.16963">
        <ele>143.1</ele>
        <time>2015-07-09T17:15:57Z</time>
      </trkpt>
      <trkpt lat="48.9971" lon="1.16969">
        <ele>144.1</ele>
        <time>2015-07-09T17:16:06Z</time>
      </trkpt>
      <trkpt lat="48.9972" lon="1.16973">
        <ele>144.8</ele>
        <time>2015-07-09T17:16:14Z</time>
      </trkpt>
      <trkpt lat="48.99729" lon="1.16978">
        <ele>145.3</ele>
        <time>2015-07-09T17:16:22Z</time>
      </trkpt>
      <trkpt lat="48.99737" lon="1.16969">
        <ele>144</ele>
        <time>2015-07-09T17:16:43Z</time>
      </trkpt>
      <trkpt lat="48.99747" lon="1.16962">
        <ele>142.5</ele>
        <time>2015-07-09T17:16:58Z</time>
      </trkpt>
      <trkpt lat="48.99757" lon="1.16957">
        <ele>142.4</ele>
        <time>2015-07-09T17:17:01Z</time>
      </trkpt>
      <trkpt lat="48.99768" lon="1.16952">
        <ele>142.3</ele>
        <time>2015-07-09T17:17:04Z</time>
      </trkpt>
      <trkpt lat="48.9978" lon="1.16946">
        <ele>142.1</ele>
        <time>2015-07-09T17:17:07Z</time>
      </trkpt>
      <trkpt lat="48.99793" lon="1.1694">
        <ele>142.1</ele>
        <time>2015-07-09T17:17:10Z</time>
      </trkpt>
      <trkpt lat="48.99806" lon="1.16933">
        <ele>142</ele>
        <time>2015-07-09T17:17:13Z</time>
      </trkpt>
      <trkpt lat="48.99815" lon="1.16929">
        <ele>141.9</ele>
        <time>2015-07-09T17:17:15Z</time>
      </trkpt>
      <trkpt lat="48.99824" lon="1.16924">
        <ele>141.9</ele>
        <time>2015-07-09T17:17:17Z</time>
      </trkpt>
      <trkpt lat="48.99832" lon="1.1692">
        <ele>141.9</ele>
        <time>2015-07-09T17:17:19Z</time>
      </trkpt>
      <trkpt lat="48.99841" lon="1.16915">
        <ele>141.8</ele>
        <time>2015-07-09T17:17:21Z</time>
      </trkpt>
      <trkpt lat="48.9985" lon="1.16911">
        <ele>141.8</ele>
        <time>2015-07-09T17:17:23Z</time>
      </trkpt>
      <trkpt lat="48.99859" lon="1.16907">
        <ele>141.7</ele>
        <time>2015-07-09T17:17:25Z</time>
      </trkpt>
      <trkpt lat="48.99868" lon="1.16902">
        <ele>141.6</ele>
        <time>2015-07-09T17:17:27Z</time>
      </trkpt>
      <trkpt lat="48.99877" lon="1.16898">
        <ele>141.6</ele>
        <time>2015-07-09T17:17:29Z</time>
      </trkpt>
      <trkpt lat="48.99886" lon="1.16893">
        <ele>141.5</ele>
        <time>2015-07-09T17:17:31Z</time>
      </trkpt>
      <trkpt lat="48.99896" lon="1.16888">
        <ele>141.5</ele>
        <time>2015-07-09T17:17:33Z</time>
      </trkpt>
      <trkpt lat="48.99905" lon="1.16884">
        <ele>141.4</ele>
        <time>2015-07-09T17:17:35Z</time>
      </trkpt>
      <trkpt lat="48.99914" lon="1.16879">
        <ele>141.4</ele>
        <time>2015-07-09T17:17:37Z</time>
      </trkpt>
      <trkpt lat="48.99924" lon="1.16875">
        <ele>141.4</ele>
        <time>2015-07-09T17:17:39Z</time>
      </trkpt>
      <trkpt lat="48.99933" lon="1.1687">
        <ele>141.3</ele>
        <time>2015-07-09T17:17:41Z</time>
      </trkpt>
      <trkpt lat="48.99942" lon="1.16865">
        <ele>141.3</ele>
        <time>2015-07-09T17:17:43Z</time>
      </trkpt>
      <trkpt lat="48.99952" lon="1.16861">
        <ele>141.3</ele>
        <time>2015-07-09T17:17:45Z</time>
      </trkpt>
      <trkpt lat="48.99962" lon="1.16856">
        <ele>141.3</ele>
        <time>2015-07-09T17:17:47Z</time>
      </trkpt>
      <trkpt lat="48.99971" lon="1.16851">
        <ele>141.3</ele>
        <time>2015-07-09T17:17:49Z</time>
      </trkpt>
      <trkpt lat="48.99981" lon="1.16846">
        <ele>141.2</ele>
        <time>2015-07-09T17:17:51Z</time>
      </trkpt>
      <trkpt lat="48.99991" lon="1.16841">
        <ele>141.2</ele>
        <time>2015-07-09T17:17:53Z</time>
      </trkpt>
      <trkpt lat="49.00001" lon="1.16836">
        <ele>141.2</ele>
        <time>2015-07-09T17:17:55Z</time>
      </trkpt>
      <trkpt lat="49.00011" lon="1.16831">
        <ele>141.2</ele>
        <time>2015-07-09T17:17:57Z</time>
      </trkpt>
      <trkpt lat="49.00021" lon="1.16826">
        <ele>141.2</ele>
        <time>2015-07-09T17:17:59Z</time>
      </trkpt>
      <trkpt lat="49.0003" lon="1.16821">
        <ele>141.1</ele>
        <time>2015-07-09T17:18:01Z</time>
      </trkpt>
      <trkpt lat="49.0004" lon="1.16816">
        <ele>141.1</ele>
        <time>2015-07-09T17:18:03Z</time>
      </trkpt>
      <trkpt lat="49.00049" lon="1.16812">
        <ele>141</ele>
        <time>2015-07-09T17:18:05Z</time>
      </trkpt>
      <trkpt lat="49.0006" lon="1.16802">
        <ele>140.9</ele>
        <time>2015-07-09T17:18:08Z</time>
      </trkpt>
      <trkpt lat="49.0006" lon="1.16786">
        <ele>140.8</ele>
        <time>2015-07-09T17:18:11Z</time>
      </trkpt>
      <trkpt lat="49.00055" lon="1.1677">
        <ele>140.7</ele>
        <time>2015-07-09T17:18:14Z</time>
      </trkpt>
      <trkpt lat="49.0005" lon="1.16753">
        <ele>140.6</ele>
        <time>2015-07-09T17:18:17Z</time>
      </trkpt>
      <trkpt lat="49.00045" lon="1.16735">
        <ele>140.6</ele>
        <time>2015-07-09T17:18:20Z</time>
      </trkpt>
      <trkpt lat="49.0004" lon="1.16717">
        <ele>140.5</ele>
        <time>2015-07-09T17:18:23Z</time>
      </trkpt>
      <trkpt lat="49.00035" lon="1.16698">
        <ele>140.5</ele>
        <time>2015-07-09T17:18:26Z</time>
      </trkpt>
      <trkpt lat="49.00031" lon="1.16685">
        <ele>140.5</ele>
        <time>2015-07-09T17:18:28Z</time>
      </trkpt>
      <trkpt lat="49.00028" lon="1.16672">
        <ele>140.4</ele>
        <time>2015-07-09T17:18:30Z</time>
      </trkpt>
      <trkpt lat="49.00024" lon="1.16659">
        <ele>140.4</ele>
        <time>2015-07-09T17:18:32Z</time>
      </trkpt>
      <trkpt lat="49.00021" lon="1.16646">
        <ele>140.4</ele>
        <time>2015-07-09T17:18:34Z</time>
      </trkpt>
      <trkpt lat="49.00017" lon="1.16633">
        <ele>140.4</ele>
        <time>2015-07-09T17:18:36Z</time>
      </trkpt>
      <trkpt lat="49.00013" lon="1.16619">
        <ele>140.4</ele>
        <time>2015-07-09T17:18:38Z</time>
      </trkpt>
      <trkpt lat="49.00009" lon="1.16606">
        <ele>140.4</ele>
        <time>2015-07-09T17:18:40Z</time>
      </trkpt>
      <trkpt lat="49.00005" lon="1.16593">
        <ele>140.4</ele>
        <time>2015-07-09T17:18:42Z</time>
      </trkpt>
      <trkpt lat="49.00001" lon="1.1658">
        <ele>140.4</ele>
        <time>2015-07-09T17:18:44Z</time>
      </trkpt>
      <trkpt lat="48.99998" lon="1.16566">
        <ele>140.4</ele>
        <time>2015-07-09T17:18:46Z</time>
      </trkpt>
      <trkpt lat="48.99994" lon="1.16552">
        <ele>140.4</ele>
        <time>2015-07-09T17:18:48Z</time>
      </trkpt>
      <trkpt lat="48.99992" lon="1.16538">
        <ele>140.5</ele>
        <time>2015-07-09T17:18:50Z</time>
      </trkpt>
      <trkpt lat="48.9999" lon="1.16524">
        <ele>140.5</ele>
        <time>2015-07-09T17:18:52Z</time>
      </trkpt>
      <trkpt lat="48.99988" lon="1.1651">
        <ele>140.5</ele>
        <time>2015-07-09T17:18:54Z</time>
      </trkpt>
      <trkpt lat="48.99988" lon="1.16496">
        <ele>140.5</ele>
        <time>2015-07-09T17:18:56Z</time>
      </trkpt>
      <trkpt lat="48.99987" lon="1.16482">
        <ele>140.5</ele>
        <time>2015-07-09T17:18:58Z</time>
      </trkpt>
      <trkpt lat="48.99988" lon="1.16467">
        <ele>140.5</ele>
        <time>2015-07-09T17:19:00Z</time>
      </trkpt>
      <trkpt lat="48.99988" lon="1.16453">
        <ele>140.5</ele>
        <time>2015-07-09T17:19:02Z</time>
      </trkpt>
      <trkpt lat="48.99989" lon="1.16439">
        <ele>140.6</ele>
        <time>2015-07-09T17:19:04Z</time>
      </trkpt>
      <trkpt lat="48.9999" lon="1.16424">
        <ele>140.6</ele>
        <time>2015-07-09T17:19:06Z</time>
      </trkpt>
      <trkpt lat="48.99991" lon="1.16409">
        <ele>140.7</ele>
        <time>2015-07-09T17:19:08Z</time>
      </trkpt>
      <trkpt lat="48.99992" lon="1.16394">
        <ele>140.7</ele>
        <time>2015-07-09T17:19:10Z</time>
      </trkpt>
      <trkpt lat="48.99993" lon="1.16378">
        <ele>140.8</ele>
        <time>2015-07-09T17:19:12Z</time>
      </trkpt>
      <trkpt lat="48.99994" lon="1.16363">
        <ele>140.8</ele>
        <time>2015-07-09T17:19:14Z</time>
      </trkpt>
      <trkpt lat="48.99995" lon="1.16347">
        <ele>140.9</ele>
        <time>2015-07-09T17:19:16Z</time>
      </trkpt>
      <trkpt lat="48.99996" lon="1.16332">
        <ele>140.9</ele>
        <time>2015-07-09T17:19:18Z</time>
      </trkpt>
      <trkpt lat="48.99997" lon="1.16316">
        <ele>141</ele>
        <time>2015-07-09T17:19:20Z</time>
      </trkpt>
      <trkpt lat="48.99999" lon="1.16299">
        <ele>141</ele>
        <time>2015-07-09T17:19:22Z</time>
      </trkpt>
      <trkpt lat="48.99999" lon="1.16283">
        <ele>141.1</ele>
        <time>2015-07-09T17:19:24Z</time>
      </trkpt>
      <trkpt lat="48.99998" lon="1.16267">
        <ele>141.2</ele>
        <time>2015-07-09T17:19:26Z</time>
      </trkpt>
      <trkpt lat="48.99996" lon="1.16252">
        <ele>141.2</ele>
        <time>2015-07-09T17:19:28Z</time>
      </trkpt>
      <trkpt lat="48.99993" lon="1.16238">
        <ele>141.4</ele>
        <time>2015-07-09T17:19:30Z</time>
      </trkpt>
      <trkpt lat="48.99989" lon="1.16223">
        <ele>141.5</ele>
        <time>2015-07-09T17:19:32Z</time>
      </trkpt>
      <trkpt lat="48.99985" lon="1.16209">
        <ele>141.6</ele>
        <time>2015-07-09T17:19:34Z</time>
      </trkpt>
      <trkpt lat="48.9998" lon="1.16195">
        <ele>141.7</ele>
        <time>2015-07-09T17:19:36Z</time>
      </trkpt>
      <trkpt lat="48.99975" lon="1.16181">
        <ele>141.9</ele>
        <time>2015-07-09T17:19:38Z</time>
      </trkpt>
      <trkpt lat="48.9997" lon="1.16167">
        <ele>142</ele>
        <time>2015-07-09T17:19:40Z</time>
      </trkpt>
      <trkpt lat="48.99965" lon="1.16153">
        <ele>142.1</ele>
        <time>2015-07-09T17:19:42Z</time>
      </trkpt>
      <trkpt lat="48.9996" lon="1.16139">
        <ele>142.3</ele>
        <time>2015-07-09T17:19:44Z</time>
      </trkpt>
      <trkpt lat="48.99955" lon="1.16124">
        <ele>142.4</ele>
        <time>2015-07-09T17:19:46Z</time>
      </trkpt>
      <trkpt lat="48.9995" lon="1.1611">
        <ele>142.6</ele>
        <time>2015-07-09T17:19:48Z</time>
      </trkpt>
      <trkpt lat="48.99945" lon="1.16096">
        <ele>142.8</ele>
        <time>2015-07-09T17:19:50Z</time>
      </trkpt>
      <trkpt lat="48.99939" lon="1.16082">
        <ele>142.9</ele>
        <time>2015-07-09T17:19:52Z</time>
      </trkpt>
      <trkpt lat="48.99934" lon="1.16068">
        <ele>143.1</ele>
        <time>2015-07-09T17:19:54Z</time>
      </trkpt>
      <trkpt lat="48.99933" lon="1.16054">
        <ele>143.2</ele>
        <time>2015-07-09T17:19:56Z</time>
      </trkpt>
      <trkpt lat="48.99936" lon="1.1604">
        <ele>143.4</ele>
        <time>2015-07-09T17:19:58Z</time>
      </trkpt>
      <trkpt lat="48.99939" lon="1.16027">
        <ele>143.6</ele>
        <time>2015-07-09T17:20:00Z</time>
      </trkpt>
      <trkpt lat="48.99944" lon="1.16015">
        <ele>143.8</ele>
        <time>2015-07-09T17:20:02Z</time>
      </trkpt>
      <trkpt lat="48.99953" lon="1.16002">
        <ele>144</ele>
        <time>2015-07-09T17:20:05Z</time>
      </trkpt>
      <trkpt lat="48.99963" lon="1.15995">
        <ele>144.3</ele>
        <time>2015-07-09T17:20:08Z</time>
      </trkpt>
      <trkpt lat="48.99971" lon="1.15988">
        <ele>144.5</ele>
        <time>2015-07-09T17:20:12Z</time>
      </trkpt>
      <trkpt lat="48.99973" lon="1.15975">
        <ele>144.9</ele>
        <time>2015-07-09T17:20:23Z</time>
      </trkpt>
      <trkpt lat="48.99968" lon="1.15962">
        <ele>145.4</ele>
        <time>2015-07-09T17:20:37Z</time>
      </trkpt>
      <trkpt lat="48.99964" lon="1.15949">
        <ele>145.7</ele>
        <time>2015-07-09T17:20:44Z</time>
      </trkpt>
      <trkpt lat="48.99961" lon="1.15934">
        <ele>146</ele>
        <time>2015-07-09T17:20:48Z</time>
      </trkpt>
      <trkpt lat="48.99957" lon="1.15919">
        <ele>146.2</ele>
        <time>2015-07-09T17:20:52Z</time>
      </trkpt>
      <trkpt lat="48.99957" lon="1.159">
        <ele>146.4</ele>
        <time>2015-07-09T17:20:56Z</time>
      </trkpt>
      <trkpt lat="48.99958" lon="1.15884">
        <ele>146.6</ele>
        <time>2015-07-09T17:20:59Z</time>
      </trkpt>
      <trkpt lat="48.9996" lon="1.15868">
        <ele>146.8</ele>
        <time>2015-07-09T17:21:02Z</time>
      </trkpt>
      <trkpt lat="48.99961" lon="1.15854">
        <ele>146.9</ele>
        <time>2015-07-09T17:21:05Z</time>
      </trkpt>
      <trkpt lat="48.99962" lon="1.15839">
        <ele>147.1</ele>
        <time>2015-07-09T17:21:08Z</time>
      </trkpt>
      <trkpt lat="48.99964" lon="1.15826">
        <ele>147.2</ele>
        <time>2015-07-09T17:21:11Z</time>
      </trkpt>
      <trkpt lat="48.99966" lon="1.15812">
        <ele>147.3</ele>
        <time>2015-07-09T17:21:14Z</time>
      </trkpt>
      <trkpt lat="48.99968" lon="1.15798">
        <ele>147.4</ele>
        <time>2015-07-09T17:21:17Z</time>
      </trkpt>
      <trkpt lat="48.99971" lon="1.15781">
        <ele>147.4</ele>
        <time>2015-07-09T17:21:21Z</time>
      </trkpt>
      <trkpt lat="48.99971" lon="1.15765">
        <ele>147.6</ele>
        <time>2015-07-09T17:21:30Z</time>
      </trkpt>
      <trkpt lat="48.9997" lon="1.15751">
        <ele>147.6</ele>
        <time>2015-07-09T17:21:33Z</time>
      </trkpt>
      <trkpt lat="48.9997" lon="1.15734">
        <ele>147.5</ele>
        <time>2015-07-09T17:21:37Z</time>
      </trkpt>
      <trkpt lat="48.99972" lon="1.1572">
        <ele>147.2</ele>
        <time>2015-07-09T17:21:47Z</time>
      </trkpt>
      <trkpt lat="48.99978" lon="1.1571">
        <ele>146.9</ele>
        <time>2015-07-09T17:21:54Z</time>
      </trkpt>
      <trkpt lat="48.99983" lon="1.15695">
        <ele>146.8</ele>
        <time>2015-07-09T17:22:02Z</time>
      </trkpt>
      <trkpt lat="48.99989" lon="1.15683">
        <ele>146.7</ele>
        <time>2015-07-09T17:22:07Z</time>
      </trkpt>
      <trkpt lat="48.99996" lon="1.15672">
        <ele>146.7</ele>
        <time>2015-07-09T17:22:12Z</time>
      </trkpt>
      <trkpt lat="49.00001" lon="1.15659">
        <ele>146.6</ele>
        <time>2015-07-09T17:22:17Z</time>
      </trkpt>
      <trkpt lat="49.00005" lon="1.15644">
        <ele>146.6</ele>
        <time>2015-07-09T17:22:22Z</time>
      </trkpt>
      <trkpt lat="49.00006" lon="1.15631">
        <ele>146.6</ele>
        <time>2015-07-09T17:22:27Z</time>
      </trkpt>
      <trkpt lat="49.00006" lon="1.15616">
        <ele>146.6</ele>
        <time>2015-07-09T17:22:32Z</time>
      </trkpt>
      <trkpt lat="49" lon="1.15606">
        <ele>146.6</ele>
        <time>2015-07-09T17:22:36Z</time>
      </trkpt>
      <trkpt lat="48.99994" lon="1.15592">
        <ele>146.6</ele>
        <time>2015-07-09T17:22:40Z</time>
      </trkpt>
      <trkpt lat="48.99988" lon="1.15581">
        <ele>146.6</ele>
        <time>2015-07-09T17:22:44Z</time>
      </trkpt>
      <trkpt lat="48.99981" lon="1.15568">
        <ele>146.6</ele>
        <time>2015-07-09T17:22:49Z</time>
      </trkpt>
      <trkpt lat="48.99975" lon="1.15556">
        <ele>146.6</ele>
        <time>2015-07-09T17:22:54Z</time>
      </trkpt>
      <trkpt lat="48.99972" lon="1.1554">
        <ele>146.6</ele>
        <time>2015-07-09T17:22:59Z</time>
      </trkpt>
      <trkpt lat="48.9997" lon="1.15525">
        <ele>146.6</ele>
        <time>2015-07-09T17:23:04Z</time>
      </trkpt>
      <trkpt lat="48.99967" lon="1.15512">
        <ele>146.6</ele>
        <time>2015-07-09T17:23:09Z</time>
      </trkpt>
      <trkpt lat="48.99973" lon="1.155">
        <ele>146.8</ele>
        <time>2015-07-09T17:23:34Z</time>
      </trkpt>
      <trkpt lat="48.99973" lon="1.15484">
        <ele>146.8</ele>
        <time>2015-07-09T17:23:40Z</time>
      </trkpt>
      <trkpt lat="48.99976" lon="1.15471">
        <ele>146.9</ele>
        <time>2015-07-09T17:23:45Z</time>
      </trkpt>
      <trkpt lat="48.9998" lon="1.15458">
        <ele>146.9</ele>
        <time>2015-07-09T17:23:50Z</time>
      </trkpt>
      <trkpt lat="48.99981" lon="1.15444">
        <ele>146.9</ele>
        <time>2015-07-09T17:23:56Z</time>
      </trkpt>
      <trkpt lat="48.99977" lon="1.15431">
        <ele>147.5</ele>
        <time>2015-07-09T17:24:15Z</time>
      </trkpt>
      <trkpt lat="48.99971" lon="1.15419">
        <ele>147.9</ele>
        <time>2015-07-09T17:24:50Z</time>
      </trkpt>
      <trkpt lat="48.99961" lon="1.15418">
        <ele>147.9</ele>
        <time>2015-07-09T17:25:01Z</time>
      </trkpt>
      <trkpt lat="48.9995" lon="1.15408">
        <ele>147.9</ele>
        <time>2015-07-09T17:25:20Z</time>
      </trkpt>
      <trkpt lat="48.99941" lon="1.15396">
        <ele>147.9</ele>
        <time>2015-07-09T17:25:23Z</time>
      </trkpt>
      <trkpt lat="48.9993" lon="1.15386">
        <ele>147.9</ele>
        <time>2015-07-09T17:25:26Z</time>
      </trkpt>
      <trkpt lat="48.99918" lon="1.1538">
        <ele>147.9</ele>
        <time>2015-07-09T17:25:29Z</time>
      </trkpt>
      <trkpt lat="48.99906" lon="1.15378">
        <ele>147.8</ele>
        <time>2015-07-09T17:25:32Z</time>
      </trkpt>
      <trkpt lat="48.99896" lon="1.15378">
        <ele>147.8</ele>
        <time>2015-07-09T17:25:36Z</time>
      </trkpt>
      <trkpt lat="48.99906" lon="1.15378">
        <ele>147.8</ele>
        <time>2015-07-09T17:25:45Z</time>
      </trkpt>
      <trkpt lat="48.99916" lon="1.15379">
        <ele>147.8</ele>
        <time>2015-07-09T17:25:49Z</time>
      </trkpt>
      <trkpt lat="48.99925" lon="1.15381">
        <ele>147.8</ele>
        <time>2015-07-09T17:25:53Z</time>
      </trkpt>
      <trkpt lat="48.99914" lon="1.15376">
        <ele>147.7</ele>
        <time>2015-07-09T17:26:37Z</time>
      </trkpt>
      <trkpt lat="48.99903" lon="1.15376">
        <ele>147.6</ele>
        <time>2015-07-09T17:26:41Z</time>
      </trkpt>
      <trkpt lat="48.99891" lon="1.15379">
        <ele>147.6</ele>
        <time>2015-07-09T17:26:45Z</time>
      </trkpt>
      <trkpt lat="48.99882" lon="1.15378">
        <ele>147.6</ele>
        <time>2015-07-09T17:26:48Z</time>
      </trkpt>
      <trkpt lat="48.99872" lon="1.15369">
        <ele>147.5</ele>
        <time>2015-07-09T17:26:52Z</time>
      </trkpt>
      <trkpt lat="48.99866" lon="1.15356">
        <ele>147.5</ele>
        <time>2015-07-09T17:26:56Z</time>
      </trkpt>
      <trkpt lat="48.99865" lon="1.15342">
        <ele>147.5</ele>
        <time>2015-07-09T17:27:00Z</time>
      </trkpt>
      <trkpt lat="48.99867" lon="1.15327">
        <ele>147.5</ele>
        <time>2015-07-09T17:27:05Z</time>
      </trkpt>
      <trkpt lat="48.99865" lon="1.15312">
        <ele>146.1</ele>
        <time>2015-07-09T17:37:18Z</time>
      </trkpt>
      <trkpt lat="48.99864" lon="1.15298">
        <ele>146.1</ele>
        <time>2015-07-09T17:37:22Z</time>
      </trkpt>
      <trkpt lat="48.99863" lon="1.1528">
        <ele>146.2</ele>
        <time>2015-07-09T17:37:26Z</time>
      </trkpt>
      <trkpt lat="48.99862" lon="1.15264">
        <ele>146.2</ele>
        <time>2015-07-09T17:37:29Z</time>
      </trkpt>
      <trkpt lat="48.99861" lon="1.15248">
        <ele>146.2</ele>
        <time>2015-07-09T17:37:32Z</time>
      </trkpt>
      <trkpt lat="48.9986" lon="1.15233">
        <ele>146.2</ele>
        <time>2015-07-09T17:37:35Z</time>
      </trkpt>
      <trkpt lat="48.99858" lon="1.15216">
        <ele>146.3</ele>
        <time>2015-07-09T17:37:38Z</time>
      </trkpt>
      <trkpt lat="48.99857" lon="1.152">
        <ele>146.4</ele>
        <time>2015-07-09T17:37:41Z</time>
      </trkpt>
      <trkpt lat="48.99855" lon="1.15183">
        <ele>146.4</ele>
        <time>2015-07-09T17:37:44Z</time>
      </trkpt>
      <trkpt lat="48.99851" lon="1.15167">
        <ele>146.5</ele>
        <time>2015-07-09T17:37:47Z</time>
      </trkpt>
      <trkpt lat="48.99846" lon="1.15149">
        <ele>146.5</ele>
        <time>2015-07-09T17:37:50Z</time>
      </trkpt>
      <trkpt lat="48.9984" lon="1.15132">
        <ele>146.5</ele>
        <time>2015-07-09T17:37:53Z</time>
      </trkpt>
      <trkpt lat="48.99834" lon="1.15115">
        <ele>146.5</ele>
        <time>2015-07-09T17:37:56Z</time>
      </trkpt>
      <trkpt lat="48.99829" lon="1.15098">
        <ele>146.6</ele>
        <time>2015-07-09T17:37:59Z</time>
      </trkpt>
      <trkpt lat="48.99823" lon="1.15081">
        <ele>146.6</ele>
        <time>2015-07-09T17:38:02Z</time>
      </trkpt>
      <trkpt lat="48.99818" lon="1.15064">
        <ele>146.6</ele>
        <time>2015-07-09T17:38:05Z</time>
      </trkpt>
      <trkpt lat="48.99814" lon="1.15045">
        <ele>146.6</ele>
        <time>2015-07-09T17:38:08Z</time>
      </trkpt>
      <trkpt lat="48.9981" lon="1.15032">
        <ele>146.6</ele>
        <time>2015-07-09T17:38:10Z</time>
      </trkpt>
      <trkpt lat="48.99808" lon="1.15017">
        <ele>146.6</ele>
        <time>2015-07-09T17:38:12Z</time>
      </trkpt>
      <trkpt lat="48.99807" lon="1.15003">
        <ele>146.6</ele>
        <time>2015-07-09T17:38:14Z</time>
      </trkpt>
      <trkpt lat="48.99807" lon="1.14989">
        <ele>146.6</ele>
        <time>2015-07-09T17:38:16Z</time>
      </trkpt>
      <trkpt lat="48.99807" lon="1.14974">
        <ele>146.6</ele>
        <time>2015-07-09T17:38:18Z</time>
      </trkpt>
      <trkpt lat="48.99809" lon="1.1496">
        <ele>146.5</ele>
        <time>2015-07-09T17:38:20Z</time>
      </trkpt>
      <trkpt lat="48.99812" lon="1.14945">
        <ele>146.5</ele>
        <time>2015-07-09T17:38:22Z</time>
      </trkpt>
      <trkpt lat="48.99816" lon="1.14932">
        <ele>146.5</ele>
        <time>2015-07-09T17:38:24Z</time>
      </trkpt>
      <trkpt lat="48.99822" lon="1.1492">
        <ele>146.5</ele>
        <time>2015-07-09T17:38:26Z</time>
      </trkpt>
      <trkpt lat="48.99828" lon="1.14908">
        <ele>146.4</ele>
        <time>2015-07-09T17:38:28Z</time>
      </trkpt>
      <trkpt lat="48.99834" lon="1.14896">
        <ele>146.3</ele>
        <time>2015-07-09T17:38:30Z</time>
      </trkpt>
      <trkpt lat="48.99838" lon="1.14881">
        <ele>146.2</ele>
        <time>2015-07-09T17:38:32Z</time>
      </trkpt>
      <trkpt lat="48.9984" lon="1.14866">
        <ele>146.2</ele>
        <time>2015-07-09T17:38:34Z</time>
      </trkpt>
      <trkpt lat="48.99841" lon="1.14851">
        <ele>146.1</ele>
        <time>2015-07-09T17:38:36Z</time>
      </trkpt>
      <trkpt lat="48.99842" lon="1.14836">
        <ele>146</ele>
        <time>2015-07-09T17:38:38Z</time>
      </trkpt>
      <trkpt lat="48.99841" lon="1.1482">
        <ele>146</ele>
        <time>2015-07-09T17:38:40Z</time>
      </trkpt>
      <trkpt lat="48.99841" lon="1.14803">
        <ele>145.9</ele>
        <time>2015-07-09T17:38:42Z</time>
      </trkpt>
      <trkpt lat="48.99841" lon="1.14787">
        <ele>145.7</ele>
        <time>2015-07-09T17:38:44Z</time>
      </trkpt>
      <trkpt lat="48.9984" lon="1.1477">
        <ele>145.6</ele>
        <time>2015-07-09T17:38:46Z</time>
      </trkpt>
      <trkpt lat="48.9984" lon="1.14754">
        <ele>145.5</ele>
        <time>2015-07-09T17:38:48Z</time>
      </trkpt>
      <trkpt lat="48.99837" lon="1.14737">
        <ele>145.4</ele>
        <time>2015-07-09T17:38:50Z</time>
      </trkpt>
      <trkpt lat="48.99833" lon="1.14722">
        <ele>145.3</ele>
        <time>2015-07-09T17:38:52Z</time>
      </trkpt>
      <trkpt lat="48.99825" lon="1.14709">
        <ele>145.2</ele>
        <time>2015-07-09T17:38:54Z</time>
      </trkpt>
      <trkpt lat="48.99817" lon="1.14698">
        <ele>145.1</ele>
        <time>2015-07-09T17:38:56Z</time>
      </trkpt>
      <trkpt lat="48.99807" lon="1.14688">
        <ele>144.9</ele>
        <time>2015-07-09T17:38:58Z</time>
      </trkpt>
      <trkpt lat="48.99797" lon="1.14679">
        <ele>144.8</ele>
        <time>2015-07-09T17:39:00Z</time>
      </trkpt>
      <trkpt lat="48.99787" lon="1.14669">
        <ele>144.7</ele>
        <time>2015-07-09T17:39:02Z</time>
      </trkpt>
      <trkpt lat="48.99777" lon="1.14659">
        <ele>144.6</ele>
        <time>2015-07-09T17:39:04Z</time>
      </trkpt>
      <trkpt lat="48.99767" lon="1.1465">
        <ele>144.5</ele>
        <time>2015-07-09T17:39:06Z</time>
      </trkpt>
      <trkpt lat="48.99758" lon="1.14641">
        <ele>144.4</ele>
        <time>2015-07-09T17:39:08Z</time>
      </trkpt>
      <trkpt lat="48.99748" lon="1.14632">
        <ele>144.3</ele>
        <time>2015-07-09T17:39:10Z</time>
      </trkpt>
      <trkpt lat="48.99738" lon="1.14623">
        <ele>144.3</ele>
        <time>2015-07-09T17:39:12Z</time>
      </trkpt>
      <trkpt lat="48.99729" lon="1.14615">
        <ele>144.2</ele>
        <time>2015-07-09T17:39:14Z</time>
      </trkpt>
      <trkpt lat="48.9972" lon="1.14606">
        <ele>144.2</ele>
        <time>2015-07-09T17:39:16Z</time>
      </trkpt>
      <trkpt lat="48.99711" lon="1.14597">
        <ele>144.1</ele>
        <time>2015-07-09T17:39:18Z</time>
      </trkpt>
      <trkpt lat="48.99702" lon="1.14588">
        <ele>144.1</ele>
        <time>2015-07-09T17:39:20Z</time>
      </trkpt>
      <trkpt lat="48.99693" lon="1.1458">
        <ele>144</ele>
        <time>2015-07-09T17:39:22Z</time>
      </trkpt>
      <trkpt lat="48.99684" lon="1.14572">
        <ele>143.9</ele>
        <time>2015-07-09T17:39:24Z</time>
      </trkpt>
      <trkpt lat="48.99675" lon="1.14563">
        <ele>143.9</ele>
        <time>2015-07-09T17:39:26Z</time>
      </trkpt>
      <trkpt lat="48.99666" lon="1.14555">
        <ele>143.8</ele>
        <time>2015-07-09T17:39:28Z</time>
      </trkpt>
      <trkpt lat="48.99657" lon="1.14547">
        <ele>143.8</ele>
        <time>2015-07-09T17:39:30Z</time>
      </trkpt>
      <trkpt lat="48.99648" lon="1.14538">
        <ele>143.7</ele>
        <time>2015-07-09T17:39:32Z</time>
      </trkpt>
      <trkpt lat="48.99639" lon="1.14529">
        <ele>143.7</ele>
        <time>2015-07-09T17:39:34Z</time>
      </trkpt>
      <trkpt lat="48.99631" lon="1.14521">
        <ele>143.7</ele>
        <time>2015-07-09T17:39:36Z</time>
      </trkpt>
      <trkpt lat="48.99622" lon="1.14512">
        <ele>143.7</ele>
        <time>2015-07-09T17:39:38Z</time>
      </trkpt>
      <trkpt lat="48.99613" lon="1.14504">
        <ele>143.6</ele>
        <time>2015-07-09T17:39:40Z</time>
      </trkpt>
      <trkpt lat="48.99604" lon="1.14496">
        <ele>143.6</ele>
        <time>2015-07-09T17:39:42Z</time>
      </trkpt>
      <trkpt lat="48.99595" lon="1.14487">
        <ele>143.6</ele>
        <time>2015-07-09T17:39:44Z</time>
      </trkpt>
      <trkpt lat="48.99586" lon="1.14479">
        <ele>143.6</ele>
        <time>2015-07-09T17:39:46Z</time>
      </trkpt>
      <trkpt lat="48.99576" lon="1.14474">
        <ele>143.6</ele>
        <time>2015-07-09T17:39:48Z</time>
      </trkpt>
      <trkpt lat="48.99566" lon="1.1447">
        <ele>143.5</ele>
        <time>2015-07-09T17:39:50Z</time>
      </trkpt>
      <trkpt lat="48.99558" lon="1.14461">
        <ele>143.5</ele>
        <time>2015-07-09T17:39:52Z</time>
      </trkpt>
      <trkpt lat="48.9955" lon="1.14451">
        <ele>143.5</ele>
        <time>2015-07-09T17:39:54Z</time>
      </trkpt>
      <trkpt lat="48.99541" lon="1.14442">
        <ele>143.5</ele>
        <time>2015-07-09T17:39:56Z</time>
      </trkpt>
      <trkpt lat="48.99535" lon="1.14431">
        <ele>143.4</ele>
        <time>2015-07-09T17:39:58Z</time>
      </trkpt>
      <trkpt lat="48.99531" lon="1.14418">
        <ele>143.4</ele>
        <time>2015-07-09T17:40:00Z</time>
      </trkpt>
      <trkpt lat="48.99528" lon="1.14405">
        <ele>143.4</ele>
        <time>2015-07-09T17:40:02Z</time>
      </trkpt>
      <trkpt lat="48.99525" lon="1.1439">
        <ele>143.4</ele>
        <time>2015-07-09T17:40:04Z</time>
      </trkpt>
      <trkpt lat="48.99523" lon="1.14372">
        <ele>143.3</ele>
        <time>2015-07-09T17:40:07Z</time>
      </trkpt>
      <trkpt lat="48.99519" lon="1.14357">
        <ele>143.3</ele>
        <time>2015-07-09T17:40:10Z</time>
      </trkpt>
      <trkpt lat="48.99512" lon="1.14346">
        <ele>143.3</ele>
        <time>2015-07-09T17:40:12Z</time>
      </trkpt>
      <trkpt lat="48.99515" lon="1.1433">
        <ele>143.3</ele>
        <time>2015-07-09T17:40:16Z</time>
      </trkpt>
      <trkpt lat="48.99524" lon="1.14325">
        <ele>143.3</ele>
        <time>2015-07-09T17:40:19Z</time>
      </trkpt>
      <trkpt lat="48.99534" lon="1.14318">
        <ele>143.3</ele>
        <time>2015-07-09T17:40:22Z</time>
      </trkpt>
      <trkpt lat="48.99543" lon="1.1431">
        <ele>143.4</ele>
        <time>2015-07-09T17:40:25Z</time>
      </trkpt>
      <trkpt lat="48.99551" lon="1.14302">
        <ele>143.5</ele>
        <time>2015-07-09T17:40:28Z</time>
      </trkpt>
      <trkpt lat="48.99559" lon="1.14294">
        <ele>143.7</ele>
        <time>2015-07-09T17:40:31Z</time>
      </trkpt>
      <trkpt lat="48.99567" lon="1.1429">
        <ele>143.9</ele>
        <time>2015-07-09T17:40:33Z</time>
      </trkpt>
      <trkpt lat="48.9958" lon="1.14283">
        <ele>144.1</ele>
        <time>2015-07-09T17:40:36Z</time>
      </trkpt>
      <trkpt lat="48.99591" lon="1.14276">
        <ele>144.4</ele>
        <time>2015-07-09T17:40:39Z</time>
      </trkpt>
      <trkpt lat="48.99601" lon="1.14265">
        <ele>144.8</ele>
        <time>2015-07-09T17:40:42Z</time>
      </trkpt>
      <trkpt lat="48.99613" lon="1.14259">
        <ele>145.1</ele>
        <time>2015-07-09T17:40:45Z</time>
      </trkpt>
      <trkpt lat="48.99621" lon="1.14252">
        <ele>145.3</ele>
        <time>2015-07-09T17:40:48Z</time>
      </trkpt>
      <trkpt lat="48.99629" lon="1.14245">
        <ele>145.6</ele>
        <time>2015-07-09T17:40:50Z</time>
      </trkpt>
      <trkpt lat="48.99639" lon="1.14243">
        <ele>145.7</ele>
        <time>2015-07-09T17:40:52Z</time>
      </trkpt>
      <trkpt lat="48.99652" lon="1.14237">
        <ele>146</ele>
        <time>2015-07-09T17:40:55Z</time>
      </trkpt>
      <trkpt lat="48.99661" lon="1.14231">
        <ele>146.1</ele>
        <time>2015-07-09T17:40:57Z</time>
      </trkpt>
      <trkpt lat="48.9967" lon="1.14228">
        <ele>146.2</ele>
        <time>2015-07-09T17:40:59Z</time>
      </trkpt>
      <trkpt lat="48.99681" lon="1.14224">
        <ele>146.4</ele>
        <time>2015-07-09T17:41:02Z</time>
      </trkpt>
      <trkpt lat="48.99693" lon="1.14216">
        <ele>146.6</ele>
        <time>2015-07-09T17:41:05Z</time>
      </trkpt>
      <trkpt lat="48.99705" lon="1.14208">
        <ele>146.8</ele>
        <time>2015-07-09T17:41:08Z</time>
      </trkpt>
      <trkpt lat="48.99715" lon="1.14201">
        <ele>147</ele>
        <time>2015-07-09T17:41:11Z</time>
      </trkpt>
      <trkpt lat="48.99725" lon="1.14199">
        <ele>147.1</ele>
        <time>2015-07-09T17:41:13Z</time>
      </trkpt>
      <trkpt lat="48.99738" lon="1.14189">
        <ele>147.2</ele>
        <time>2015-07-09T17:41:16Z</time>
      </trkpt>
      <trkpt lat="48.99743" lon="1.14177">
        <ele>147.3</ele>
        <time>2015-07-09T17:41:18Z</time>
      </trkpt>
      <trkpt lat="48.99746" lon="1.14163">
        <ele>147.5</ele>
        <time>2015-07-09T17:41:20Z</time>
      </trkpt>
      <trkpt lat="48.99747" lon="1.14149">
        <ele>147.6</ele>
        <time>2015-07-09T17:41:22Z</time>
      </trkpt>
      <trkpt lat="48.99746" lon="1.14131">
        <ele>147.8</ele>
        <time>2015-07-09T17:41:25Z</time>
      </trkpt>
      <trkpt lat="48.99745" lon="1.14116">
        <ele>147.9</ele>
        <time>2015-07-09T17:41:27Z</time>
      </trkpt>
      <trkpt lat="48.99745" lon="1.14101">
        <ele>148</ele>
        <time>2015-07-09T17:41:29Z</time>
      </trkpt>
      <trkpt lat="48.99746" lon="1.14086">
        <ele>148</ele>
        <time>2015-07-09T17:41:31Z</time>
      </trkpt>
      <trkpt lat="48.99744" lon="1.14071">
        <ele>148.1</ele>
        <time>2015-07-09T17:41:33Z</time>
      </trkpt>
      <trkpt lat="48.99742" lon="1.14055">
        <ele>148.2</ele>
        <time>2015-07-09T17:41:35Z</time>
      </trkpt>
      <trkpt lat="48.99739" lon="1.1404">
        <ele>148.2</ele>
        <time>2015-07-09T17:41:37Z</time>
      </trkpt>
      <trkpt lat="48.99737" lon="1.14016">
        <ele>148.3</ele>
        <time>2015-07-09T17:41:40Z</time>
      </trkpt>
      <trkpt lat="48.99737" lon="1.14001">
        <ele>148.4</ele>
        <time>2015-07-09T17:41:42Z</time>
      </trkpt>
      <trkpt lat="48.99738" lon="1.13987">
        <ele>148.5</ele>
        <time>2015-07-09T17:41:45Z</time>
      </trkpt>
      <trkpt lat="48.99736" lon="1.13973">
        <ele>148.5</ele>
        <time>2015-07-09T17:41:47Z</time>
      </trkpt>
      <trkpt lat="48.99732" lon="1.13957">
        <ele>148.6</ele>
        <time>2015-07-09T17:41:49Z</time>
      </trkpt>
      <trkpt lat="48.99729" lon="1.1394">
        <ele>148.7</ele>
        <time>2015-07-09T17:41:51Z</time>
      </trkpt>
      <trkpt lat="48.99725" lon="1.13922">
        <ele>148.8</ele>
        <time>2015-07-09T17:41:53Z</time>
      </trkpt>
      <trkpt lat="48.99722" lon="1.13908">
        <ele>148.8</ele>
        <time>2015-07-09T17:41:55Z</time>
      </trkpt>
      <trkpt lat="48.99721" lon="1.13892">
        <ele>148.9</ele>
        <time>2015-07-09T17:41:57Z</time>
      </trkpt>
      <trkpt lat="48.99717" lon="1.13872">
        <ele>148.9</ele>
        <time>2015-07-09T17:41:59Z</time>
      </trkpt>
      <trkpt lat="48.99715" lon="1.13858">
        <ele>149</ele>
        <time>2015-07-09T17:42:01Z</time>
      </trkpt>
      <trkpt lat="48.99713" lon="1.13837">
        <ele>149.1</ele>
        <time>2015-07-09T17:42:04Z</time>
      </trkpt>
      <trkpt lat="48.9971" lon="1.1382">
        <ele>149.2</ele>
        <time>2015-07-09T17:42:06Z</time>
      </trkpt>
      <trkpt lat="48.99707" lon="1.13802">
        <ele>149.3</ele>
        <time>2015-07-09T17:42:08Z</time>
      </trkpt>
      <trkpt lat="48.99705" lon="1.13786">
        <ele>149.4</ele>
        <time>2015-07-09T17:42:10Z</time>
      </trkpt>
      <trkpt lat="48.99702" lon="1.13771">
        <ele>149.4</ele>
        <time>2015-07-09T17:42:12Z</time>
      </trkpt>
      <trkpt lat="48.997" lon="1.13755">
        <ele>149.5</ele>
        <time>2015-07-09T17:42:14Z</time>
      </trkpt>
      <trkpt lat="48.99698" lon="1.1374">
        <ele>149.5</ele>
        <time>2015-07-09T17:42:16Z</time>
      </trkpt>
      <trkpt lat="48.99696" lon="1.13726">
        <ele>149.6</ele>
        <time>2015-07-09T17:42:18Z</time>
      </trkpt>
      <trkpt lat="48.99692" lon="1.13711">
        <ele>149.6</ele>
        <time>2015-07-09T17:42:20Z</time>
      </trkpt>
      <trkpt lat="48.99691" lon="1.1369">
        <ele>149.7</ele>
        <time>2015-07-09T17:42:23Z</time>
      </trkpt>
      <trkpt lat="48.99688" lon="1.13675">
        <ele>149.6</ele>
        <time>2015-07-09T17:42:25Z</time>
      </trkpt>
      <trkpt lat="48.99687" lon="1.13658">
        <ele>149.6</ele>
        <time>2015-07-09T17:42:28Z</time>
      </trkpt>
      <trkpt lat="48.9969" lon="1.13644">
        <ele>149.6</ele>
        <time>2015-07-09T17:42:30Z</time>
      </trkpt>
      <trkpt lat="48.99698" lon="1.13631">
        <ele>149.5</ele>
        <time>2015-07-09T17:42:33Z</time>
      </trkpt>
      <trkpt lat="48.99708" lon="1.13623">
        <ele>149.4</ele>
        <time>2015-07-09T17:42:36Z</time>
      </trkpt>
      <trkpt lat="48.9972" lon="1.13615">
        <ele>149.2</ele>
        <time>2015-07-09T17:42:39Z</time>
      </trkpt>
      <trkpt lat="48.99728" lon="1.13609">
        <ele>149.1</ele>
        <time>2015-07-09T17:42:41Z</time>
      </trkpt>
      <trkpt lat="48.9974" lon="1.13601">
        <ele>149</ele>
        <time>2015-07-09T17:42:44Z</time>
      </trkpt>
      <trkpt lat="48.99749" lon="1.13597">
        <ele>148.9</ele>
        <time>2015-07-09T17:42:46Z</time>
      </trkpt>
      <trkpt lat="48.99763" lon="1.13592">
        <ele>148.8</ele>
        <time>2015-07-09T17:42:49Z</time>
      </trkpt>
      <trkpt lat="48.99773" lon="1.13589">
        <ele>148.7</ele>
        <time>2015-07-09T17:42:51Z</time>
      </trkpt>
      <trkpt lat="48.99783" lon="1.13586">
        <ele>148.7</ele>
        <time>2015-07-09T17:42:53Z</time>
      </trkpt>
      <trkpt lat="48.99795" lon="1.13573">
        <ele>148.6</ele>
        <time>2015-07-09T17:42:56Z</time>
      </trkpt>
      <trkpt lat="48.99801" lon="1.13562">
        <ele>148.6</ele>
        <time>2015-07-09T17:42:58Z</time>
      </trkpt>
      <trkpt lat="48.99804" lon="1.13547">
        <ele>148.5</ele>
        <time>2015-07-09T17:43:00Z</time>
      </trkpt>
      <trkpt lat="48.99805" lon="1.13531">
        <ele>148.5</ele>
        <time>2015-07-09T17:43:02Z</time>
      </trkpt>
      <trkpt lat="48.99804" lon="1.13516">
        <ele>148.5</ele>
        <time>2015-07-09T17:43:04Z</time>
      </trkpt>
      <trkpt lat="48.99802" lon="1.13499">
        <ele>148.4</ele>
        <time>2015-07-09T17:43:06Z</time>
      </trkpt>
      <trkpt lat="48.998" lon="1.13485">
        <ele>148.4</ele>
        <time>2015-07-09T17:43:08Z</time>
      </trkpt>
      <trkpt lat="48.99799" lon="1.13463">
        <ele>148.4</ele>
        <time>2015-07-09T17:43:11Z</time>
      </trkpt>
      <trkpt lat="48.99796" lon="1.13448">
        <ele>148.4</ele>
        <time>2015-07-09T17:43:13Z</time>
      </trkpt>
      <trkpt lat="48.99792" lon="1.13429">
        <ele>148.3</ele>
        <time>2015-07-09T17:43:15Z</time>
      </trkpt>
      <trkpt lat="48.99791" lon="1.13413">
        <ele>148.3</ele>
        <time>2015-07-09T17:43:17Z</time>
      </trkpt>
      <trkpt lat="48.99789" lon="1.13397">
        <ele>148.3</ele>
        <time>2015-07-09T17:43:19Z</time>
      </trkpt>
      <trkpt lat="48.99786" lon="1.13382">
        <ele>148.3</ele>
        <time>2015-07-09T17:43:21Z</time>
      </trkpt>
      <trkpt lat="48.99784" lon="1.13367">
        <ele>148.3</ele>
        <time>2015-07-09T17:43:23Z</time>
      </trkpt>
      <trkpt lat="48.99783" lon="1.13352">
        <ele>148.3</ele>
        <time>2015-07-09T17:43:25Z</time>
      </trkpt>
      <trkpt lat="48.99781" lon="1.13338">
        <ele>148.3</ele>
        <time>2015-07-09T17:43:27Z</time>
      </trkpt>
      <trkpt lat="48.99779" lon="1.13325">
        <ele>148.3</ele>
        <time>2015-07-09T17:43:29Z</time>
      </trkpt>
      <trkpt lat="48.99777" lon="1.13305">
        <ele>148.3</ele>
        <time>2015-07-09T17:43:31Z</time>
      </trkpt>
      <trkpt lat="48.99775" lon="1.13288">
        <ele>148.3</ele>
        <time>2015-07-09T17:43:33Z</time>
      </trkpt>
      <trkpt lat="48.99774" lon="1.13274">
        <ele>148.3</ele>
        <time>2015-07-09T17:43:35Z</time>
      </trkpt>
      <trkpt lat="48.99772" lon="1.13258">
        <ele>148.3</ele>
        <time>2015-07-09T17:43:37Z</time>
      </trkpt>
      <trkpt lat="48.99771" lon="1.13243">
        <ele>148.3</ele>
        <time>2015-07-09T17:43:39Z</time>
      </trkpt>
      <trkpt lat="48.99764" lon="1.13223">
        <ele>148.1</ele>
        <time>2015-07-09T17:43:41Z</time>
      </trkpt>
      <trkpt lat="48.99761" lon="1.13205">
        <ele>148</ele>
        <time>2015-07-09T17:43:43Z</time>
      </trkpt>
      <trkpt lat="48.99758" lon="1.13189">
        <ele>147.9</ele>
        <time>2015-07-09T17:43:45Z</time>
      </trkpt>
      <trkpt lat="48.99756" lon="1.13173">
        <ele>147.8</ele>
        <time>2015-07-09T17:43:47Z</time>
      </trkpt>
      <trkpt lat="48.99753" lon="1.13155">
        <ele>147.8</ele>
        <time>2015-07-09T17:43:49Z</time>
      </trkpt>
      <trkpt lat="48.99752" lon="1.1314">
        <ele>147.7</ele>
        <time>2015-07-09T17:43:51Z</time>
      </trkpt>
      <trkpt lat="48.99751" lon="1.13125">
        <ele>147.7</ele>
        <time>2015-07-09T17:43:53Z</time>
      </trkpt>
      <trkpt lat="48.99748" lon="1.13108">
        <ele>147.6</ele>
        <time>2015-07-09T17:43:55Z</time>
      </trkpt>
      <trkpt lat="48.99752" lon="1.13095">
        <ele>147.5</ele>
        <time>2015-07-09T17:44:01Z</time>
      </trkpt>
      <trkpt lat="48.99761" lon="1.13095">
        <ele>147.5</ele>
        <time>2015-07-09T17:44:05Z</time>
      </trkpt>
      <trkpt lat="48.99772" lon="1.13091">
        <ele>147.4</ele>
        <time>2015-07-09T17:44:08Z</time>
      </trkpt>
      <trkpt lat="48.99784" lon="1.13089">
        <ele>147.4</ele>
        <time>2015-07-09T17:44:11Z</time>
      </trkpt>
      <trkpt lat="48.99793" lon="1.13089">
        <ele>147.4</ele>
        <time>2015-07-09T17:44:13Z</time>
      </trkpt>
      <trkpt lat="48.99803" lon="1.13098">
        <ele>147.3</ele>
        <time>2015-07-09T17:44:16Z</time>
      </trkpt>
      <trkpt lat="48.99812" lon="1.13101">
        <ele>147.3</ele>
        <time>2015-07-09T17:44:18Z</time>
      </trkpt>
      <trkpt lat="48.99824" lon="1.13103">
        <ele>147.3</ele>
        <time>2015-07-09T17:44:21Z</time>
      </trkpt>
      <trkpt lat="48.99836" lon="1.13109">
        <ele>147.2</ele>
        <time>2015-07-09T17:44:24Z</time>
      </trkpt>
      <trkpt lat="48.99846" lon="1.13112">
        <ele>147.2</ele>
        <time>2015-07-09T17:44:26Z</time>
      </trkpt>
      <trkpt lat="48.99856" lon="1.13106">
        <ele>147.1</ele>
        <time>2015-07-09T17:44:29Z</time>
      </trkpt>
      <trkpt lat="48.99862" lon="1.13094">
        <ele>146.9</ele>
        <time>2015-07-09T17:44:32Z</time>
      </trkpt>
      <trkpt lat="48.99866" lon="1.13079">
        <ele>146.6</ele>
        <time>2015-07-09T17:44:36Z</time>
      </trkpt>
      <trkpt lat="48.99872" lon="1.13065">
        <ele>146.5</ele>
        <time>2015-07-09T17:44:39Z</time>
      </trkpt>
      <trkpt lat="48.99878" lon="1.13051">
        <ele>146.4</ele>
        <time>2015-07-09T17:44:42Z</time>
      </trkpt>
      <trkpt lat="48.99879" lon="1.13034">
        <ele>146.2</ele>
        <time>2015-07-09T17:44:45Z</time>
      </trkpt>
      <trkpt lat="48.99888" lon="1.1302">
        <ele>146.1</ele>
        <time>2015-07-09T17:44:48Z</time>
      </trkpt>
      <trkpt lat="48.99893" lon="1.13007">
        <ele>145.9</ele>
        <time>2015-07-09T17:44:50Z</time>
      </trkpt>
      <trkpt lat="48.99897" lon="1.1299">
        <ele>145.6</ele>
        <time>2015-07-09T17:44:53Z</time>
      </trkpt>
      <trkpt lat="48.99901" lon="1.12975">
        <ele>145.3</ele>
        <time>2015-07-09T17:44:56Z</time>
      </trkpt>
      <trkpt lat="48.99904" lon="1.12959">
        <ele>145</ele>
        <time>2015-07-09T17:44:59Z</time>
      </trkpt>
      <trkpt lat="48.99908" lon="1.12947">
        <ele>144.8</ele>
        <time>2015-07-09T17:45:02Z</time>
      </trkpt>
      <trkpt lat="48.99911" lon="1.12933">
        <ele>144.3</ele>
        <time>2015-07-09T17:45:07Z</time>
      </trkpt>
      <trkpt lat="48.99912" lon="1.12917">
        <ele>143.9</ele>
        <time>2015-07-09T17:45:13Z</time>
      </trkpt>
      <trkpt lat="48.99907" lon="1.12903">
        <ele>143.4</ele>
        <time>2015-07-09T17:45:21Z</time>
      </trkpt>
      <trkpt lat="48.99904" lon="1.12889">
        <ele>143.1</ele>
        <time>2015-07-09T17:45:26Z</time>
      </trkpt>
      <trkpt lat="48.99905" lon="1.12875">
        <ele>143</ele>
        <time>2015-07-09T17:45:30Z</time>
      </trkpt>
      <trkpt lat="48.99908" lon="1.12859">
        <ele>142.8</ele>
        <time>2015-07-09T17:45:35Z</time>
      </trkpt>
      <trkpt lat="48.99911" lon="1.12843">
        <ele>142.7</ele>
        <time>2015-07-09T17:45:39Z</time>
      </trkpt>
      <trkpt lat="48.99914" lon="1.12828">
        <ele>142.5</ele>
        <time>2015-07-09T17:45:44Z</time>
      </trkpt>
      <trkpt lat="48.99915" lon="1.12814">
        <ele>142.2</ele>
        <time>2015-07-09T17:45:49Z</time>
      </trkpt>
      <trkpt lat="48.99925" lon="1.12811">
        <ele>140.5</ele>
        <time>2015-07-09T17:46:47Z</time>
      </trkpt>
      <trkpt lat="48.99936" lon="1.12815">
        <ele>140.5</ele>
        <time>2015-07-09T17:46:51Z</time>
      </trkpt>
      <trkpt lat="48.99947" lon="1.12817">
        <ele>140.5</ele>
        <time>2015-07-09T17:46:54Z</time>
      </trkpt>
      <trkpt lat="48.99958" lon="1.12818">
        <ele>140.5</ele>
        <time>2015-07-09T17:46:57Z</time>
      </trkpt>
      <trkpt lat="48.99971" lon="1.12819">
        <ele>140.4</ele>
        <time>2015-07-09T17:47:00Z</time>
      </trkpt>
      <trkpt lat="48.99984" lon="1.1282">
        <ele>140.3</ele>
        <time>2015-07-09T17:47:03Z</time>
      </trkpt>
      <trkpt lat="48.99993" lon="1.12821">
        <ele>140.2</ele>
        <time>2015-07-09T17:47:05Z</time>
      </trkpt>
      <trkpt lat="49.00004" lon="1.12822">
        <ele>140</ele>
        <time>2015-07-09T17:47:07Z</time>
      </trkpt>
      <trkpt lat="49.00014" lon="1.12822">
        <ele>139.8</ele>
        <time>2015-07-09T17:47:09Z</time>
      </trkpt>
      <trkpt lat="49.00024" lon="1.12824">
        <ele>139.6</ele>
        <time>2015-07-09T17:47:11Z</time>
      </trkpt>
      <trkpt lat="49.00037" lon="1.12825">
        <ele>139.4</ele>
        <time>2015-07-09T17:47:14Z</time>
      </trkpt>
      <trkpt lat="49.00046" lon="1.12825">
        <ele>139.2</ele>
        <time>2015-07-09T17:47:16Z</time>
      </trkpt>
      <trkpt lat="49.00057" lon="1.12826">
        <ele>139</ele>
        <time>2015-07-09T17:47:18Z</time>
      </trkpt>
      <trkpt lat="49.00066" lon="1.12827">
        <ele>138.8</ele>
        <time>2015-07-09T17:47:20Z</time>
      </trkpt>
      <trkpt lat="49.00077" lon="1.12828">
        <ele>138.6</ele>
        <time>2015-07-09T17:47:22Z</time>
      </trkpt>
      <trkpt lat="49.00089" lon="1.12829">
        <ele>138.4</ele>
        <time>2015-07-09T17:47:24Z</time>
      </trkpt>
      <trkpt lat="49.001" lon="1.12831">
        <ele>138.2</ele>
        <time>2015-07-09T17:47:26Z</time>
      </trkpt>
      <trkpt lat="49.00113" lon="1.12831">
        <ele>137.8</ele>
        <time>2015-07-09T17:47:29Z</time>
      </trkpt>
      <trkpt lat="49.00123" lon="1.12832">
        <ele>137.6</ele>
        <time>2015-07-09T17:47:31Z</time>
      </trkpt>
      <trkpt lat="49.00134" lon="1.12834">
        <ele>137.5</ele>
        <time>2015-07-09T17:47:33Z</time>
      </trkpt>
      <trkpt lat="49.00143" lon="1.12837">
        <ele>137.2</ele>
        <time>2015-07-09T17:47:35Z</time>
      </trkpt>
      <trkpt lat="49.00153" lon="1.12837">
        <ele>137</ele>
        <time>2015-07-09T17:47:37Z</time>
      </trkpt>
      <trkpt lat="49.00163" lon="1.12837">
        <ele>136.8</ele>
        <time>2015-07-09T17:47:39Z</time>
      </trkpt>
      <trkpt lat="49.00173" lon="1.1284">
        <ele>136.5</ele>
        <time>2015-07-09T17:47:41Z</time>
      </trkpt>
      <trkpt lat="49.00186" lon="1.12843">
        <ele>136.2</ele>
        <time>2015-07-09T17:47:44Z</time>
      </trkpt>
      <trkpt lat="49.00198" lon="1.12844">
        <ele>135.9</ele>
        <time>2015-07-09T17:47:47Z</time>
      </trkpt>
      <trkpt lat="49.0021" lon="1.12845">
        <ele>135.6</ele>
        <time>2015-07-09T17:47:50Z</time>
      </trkpt>
      <trkpt lat="49.00221" lon="1.12846">
        <ele>135.3</ele>
        <time>2015-07-09T17:47:53Z</time>
      </trkpt>
      <trkpt lat="49.00232" lon="1.12853">
        <ele>135.1</ele>
        <time>2015-07-09T17:47:56Z</time>
      </trkpt>
      <trkpt lat="49.00241" lon="1.12858">
        <ele>134.8</ele>
        <time>2015-07-09T17:47:59Z</time>
      </trkpt>
      <trkpt lat="49.0025" lon="1.12851">
        <ele>134.4</ele>
        <time>2015-07-09T17:48:02Z</time>
      </trkpt>
      <trkpt lat="49.00262" lon="1.12849">
        <ele>134</ele>
        <time>2015-07-09T17:48:05Z</time>
      </trkpt>
      <trkpt lat="49.00272" lon="1.1285">
        <ele>133.8</ele>
        <time>2015-07-09T17:48:07Z</time>
      </trkpt>
      <trkpt lat="49.00281" lon="1.12852">
        <ele>133.5</ele>
        <time>2015-07-09T17:48:09Z</time>
      </trkpt>
      <trkpt lat="49.00292" lon="1.12854">
        <ele>133.2</ele>
        <time>2015-07-09T17:48:11Z</time>
      </trkpt>
      <trkpt lat="49.00302" lon="1.12854">
        <ele>132.9</ele>
        <time>2015-07-09T17:48:13Z</time>
      </trkpt>
      <trkpt lat="49.00315" lon="1.12853">
        <ele>132.5</ele>
        <time>2015-07-09T17:48:16Z</time>
      </trkpt>
      <trkpt lat="49.00324" lon="1.12853">
        <ele>132.3</ele>
        <time>2015-07-09T17:48:18Z</time>
      </trkpt>
      <trkpt lat="49.00337" lon="1.12855">
        <ele>132</ele>
        <time>2015-07-09T17:48:21Z</time>
      </trkpt>
      <trkpt lat="49.00348" lon="1.12856">
        <ele>131.7</ele>
        <time>2015-07-09T17:48:23Z</time>
      </trkpt>
      <trkpt lat="49.00358" lon="1.12857">
        <ele>131.5</ele>
        <time>2015-07-09T17:48:25Z</time>
      </trkpt>
      <trkpt lat="49.00366" lon="1.12869">
        <ele>131</ele>
        <time>2015-07-09T17:48:28Z</time>
      </trkpt>
      <trkpt lat="49.00364" lon="1.12887">
        <ele>130.6</ele>
        <time>2015-07-09T17:48:31Z</time>
      </trkpt>
      <trkpt lat="49.00362" lon="1.12905">
        <ele>130.2</ele>
        <time>2015-07-09T17:48:34Z</time>
      </trkpt>
      <trkpt lat="49.00364" lon="1.12921">
        <ele>130</ele>
        <time>2015-07-09T17:48:37Z</time>
      </trkpt>
      <trkpt lat="49.00374" lon="1.12931">
        <ele>129.7</ele>
        <time>2015-07-09T17:48:40Z</time>
      </trkpt>
      <trkpt lat="49.00382" lon="1.12939">
        <ele>129.5</ele>
        <time>2015-07-09T17:48:43Z</time>
      </trkpt>
      <trkpt lat="49.00393" lon="1.12946">
        <ele>129.4</ele>
        <time>2015-07-09T17:48:46Z</time>
      </trkpt>
      <trkpt lat="49.00404" lon="1.12952">
        <ele>129.3</ele>
        <time>2015-07-09T17:48:49Z</time>
      </trkpt>
      <trkpt lat="49.00413" lon="1.12958">
        <ele>129.2</ele>
        <time>2015-07-09T17:48:51Z</time>
      </trkpt>
      <trkpt lat="49.00422" lon="1.12965">
        <ele>129.1</ele>
        <time>2015-07-09T17:48:53Z</time>
      </trkpt>
      <trkpt lat="49.00436" lon="1.12972">
        <ele>128.9</ele>
        <time>2015-07-09T17:48:56Z</time>
      </trkpt>
      <trkpt lat="49.00447" lon="1.12979">
        <ele>128.8</ele>
        <time>2015-07-09T17:48:59Z</time>
      </trkpt>
      <trkpt lat="49.00456" lon="1.12985">
        <ele>128.7</ele>
        <time>2015-07-09T17:49:01Z</time>
      </trkpt>
      <trkpt lat="49.00464" lon="1.12993">
        <ele>128.6</ele>
        <time>2015-07-09T17:49:03Z</time>
      </trkpt>
      <trkpt lat="49.00474" lon="1.12999">
        <ele>128.5</ele>
        <time>2015-07-09T17:49:05Z</time>
      </trkpt>
      <trkpt lat="49.00479" lon="1.13011">
        <ele>128.4</ele>
        <time>2015-07-09T17:49:07Z</time>
      </trkpt>
      <trkpt lat="49.00485" lon="1.13023">
        <ele>128.3</ele>
        <time>2015-07-09T17:49:10Z</time>
      </trkpt>
      <trkpt lat="49.00495" lon="1.13038">
        <ele>128</ele>
        <time>2015-07-09T17:49:13Z</time>
      </trkpt>
      <trkpt lat="49.00501" lon="1.13051">
        <ele>127.9</ele>
        <time>2015-07-09T17:49:15Z</time>
      </trkpt>
      <trkpt lat="49.00506" lon="1.13066">
        <ele>127.8</ele>
        <time>2015-07-09T17:49:18Z</time>
      </trkpt>
      <trkpt lat="49.00513" lon="1.13073">
        <ele>127.7</ele>
        <time>2015-07-09T17:49:20Z</time>
      </trkpt>
      <trkpt lat="49.00522" lon="1.13084">
        <ele>127.6</ele>
        <time>2015-07-09T17:49:22Z</time>
      </trkpt>
      <trkpt lat="49.00529" lon="1.13095">
        <ele>127.5</ele>
        <time>2015-07-09T17:49:24Z</time>
      </trkpt>
      <trkpt lat="49.00537" lon="1.13109">
        <ele>127.5</ele>
        <time>2015-07-09T17:49:26Z</time>
      </trkpt>
      <trkpt lat="49.00545" lon="1.1312">
        <ele>127.4</ele>
        <time>2015-07-09T17:49:28Z</time>
      </trkpt>
      <trkpt lat="49.00554" lon="1.13126">
        <ele>127.4</ele>
        <time>2015-07-09T17:49:30Z</time>
      </trkpt>
      <trkpt lat="49.00567" lon="1.13133">
        <ele>127.3</ele>
        <time>2015-07-09T17:49:33Z</time>
      </trkpt>
      <trkpt lat="49.00578" lon="1.13135">
        <ele>127.4</ele>
        <time>2015-07-09T17:49:36Z</time>
      </trkpt>
      <trkpt lat="49.00587" lon="1.1314">
        <ele>127.4</ele>
        <time>2015-07-09T17:49:39Z</time>
      </trkpt>
      <trkpt lat="49.00592" lon="1.13155">
        <ele>127.6</ele>
        <time>2015-07-09T17:49:46Z</time>
      </trkpt>
      <trkpt lat="49.00597" lon="1.13172">
        <ele>127.6</ele>
        <time>2015-07-09T17:49:50Z</time>
      </trkpt>
      <trkpt lat="49.00601" lon="1.13189">
        <ele>127.7</ele>
        <time>2015-07-09T17:49:54Z</time>
      </trkpt>
      <trkpt lat="49.00603" lon="1.13203">
        <ele>127.7</ele>
        <time>2015-07-09T17:49:57Z</time>
      </trkpt>
      <trkpt lat="49.00598" lon="1.13222">
        <ele>127.7</ele>
        <time>2015-07-09T17:50:00Z</time>
      </trkpt>
      <trkpt lat="49.00591" lon="1.13235">
        <ele>127.7</ele>
        <time>2015-07-09T17:50:03Z</time>
      </trkpt>
      <trkpt lat="49.0059" lon="1.13252">
        <ele>127.7</ele>
        <time>2015-07-09T17:50:07Z</time>
      </trkpt>
      <trkpt lat="49.00594" lon="1.1327">
        <ele>127.7</ele>
        <time>2015-07-09T17:50:11Z</time>
      </trkpt>
      <trkpt lat="49.00596" lon="1.13286">
        <ele>127.6</ele>
        <time>2015-07-09T17:50:14Z</time>
      </trkpt>
      <trkpt lat="49.00602" lon="1.13297">
        <ele>127.5</ele>
        <time>2015-07-09T17:50:18Z</time>
      </trkpt>
      <trkpt lat="49.0061" lon="1.13305">
        <ele>127.5</ele>
        <time>2015-07-09T17:50:23Z</time>
      </trkpt>
      <trkpt lat="49.00621" lon="1.13312">
        <ele>127.6</ele>
        <time>2015-07-09T17:50:28Z</time>
      </trkpt>
      <trkpt lat="49.00631" lon="1.13311">
        <ele>127.8</ele>
        <time>2015-07-09T17:50:32Z</time>
      </trkpt>
      <trkpt lat="49.00642" lon="1.13311">
        <ele>128.1</ele>
        <time>2015-07-09T17:50:36Z</time>
      </trkpt>
      <trkpt lat="49.00651" lon="1.13309">
        <ele>128.2</ele>
        <time>2015-07-09T17:50:39Z</time>
      </trkpt>
      <trkpt lat="49.00661" lon="1.13313">
        <ele>128.4</ele>
        <time>2015-07-09T17:50:43Z</time>
      </trkpt>
      <trkpt lat="49.00668" lon="1.13328">
        <ele>128.6</ele>
        <time>2015-07-09T17:50:47Z</time>
      </trkpt>
      <trkpt lat="49.00672" lon="1.13341">
        <ele>128.7</ele>
        <time>2015-07-09T17:50:50Z</time>
      </trkpt>
      <trkpt lat="49.0068" lon="1.13354">
        <ele>128.8</ele>
        <time>2015-07-09T17:50:53Z</time>
      </trkpt>
      <trkpt lat="49.00684" lon="1.13372">
        <ele>128.9</ele>
        <time>2015-07-09T17:50:56Z</time>
      </trkpt>
      <trkpt lat="49.00689" lon="1.13389">
        <ele>128.9</ele>
        <time>2015-07-09T17:50:59Z</time>
      </trkpt>
      <trkpt lat="49.00693" lon="1.13405">
        <ele>129</ele>
        <time>2015-07-09T17:51:02Z</time>
      </trkpt>
      <trkpt lat="49.00697" lon="1.13418">
        <ele>129</ele>
        <time>2015-07-09T17:51:04Z</time>
      </trkpt>
      <trkpt lat="49.00701" lon="1.13433">
        <ele>129</ele>
        <time>2015-07-09T17:51:06Z</time>
      </trkpt>
      <trkpt lat="49.00706" lon="1.13447">
        <ele>129.1</ele>
        <time>2015-07-09T17:51:08Z</time>
      </trkpt>
      <trkpt lat="49.0071" lon="1.1346">
        <ele>129.1</ele>
        <time>2015-07-09T17:51:10Z</time>
      </trkpt>
      <trkpt lat="49.00715" lon="1.13472">
        <ele>129.1</ele>
        <time>2015-07-09T17:51:12Z</time>
      </trkpt>
      <trkpt lat="49.0072" lon="1.13485">
        <ele>129.1</ele>
        <time>2015-07-09T17:51:14Z</time>
      </trkpt>
      <trkpt lat="49.00726" lon="1.135">
        <ele>129.1</ele>
        <time>2015-07-09T17:51:17Z</time>
      </trkpt>
      <trkpt lat="49.00736" lon="1.13503">
        <ele>129.2</ele>
        <time>2015-07-09T17:51:20Z</time>
      </trkpt>
      <trkpt lat="49.00747" lon="1.13498">
        <ele>129.2</ele>
        <time>2015-07-09T17:51:24Z</time>
      </trkpt>
      <trkpt lat="49.00757" lon="1.13494">
        <ele>129.2</ele>
        <time>2015-07-09T17:51:27Z</time>
      </trkpt>
      <trkpt lat="49.00768" lon="1.13489">
        <ele>129.2</ele>
        <time>2015-07-09T17:51:30Z</time>
      </trkpt>
      <trkpt lat="49.00778" lon="1.13485">
        <ele>129.2</ele>
        <time>2015-07-09T17:51:32Z</time>
      </trkpt>
      <trkpt lat="49.0079" lon="1.1348">
        <ele>129.2</ele>
        <time>2015-07-09T17:51:35Z</time>
      </trkpt>
      <trkpt lat="49.00801" lon="1.13475">
        <ele>129.2</ele>
        <time>2015-07-09T17:51:38Z</time>
      </trkpt>
      <trkpt lat="49.00809" lon="1.13468">
        <ele>129.2</ele>
        <time>2015-07-09T17:51:40Z</time>
      </trkpt>
      <trkpt lat="49.00818" lon="1.13461">
        <ele>129.2</ele>
        <time>2015-07-09T17:51:42Z</time>
      </trkpt>
      <trkpt lat="49.00827" lon="1.13457">
        <ele>129.2</ele>
        <time>2015-07-09T17:51:44Z</time>
      </trkpt>
      <trkpt lat="49.00836" lon="1.13453">
        <ele>129.2</ele>
        <time>2015-07-09T17:51:46Z</time>
      </trkpt>
      <trkpt lat="49.00847" lon="1.13447">
        <ele>129.3</ele>
        <time>2015-07-09T17:51:49Z</time>
      </trkpt>
      <trkpt lat="49.00856" lon="1.13443">
        <ele>129.3</ele>
        <time>2015-07-09T17:51:51Z</time>
      </trkpt>
      <trkpt lat="49.00866" lon="1.13439">
        <ele>129.4</ele>
        <time>2015-07-09T17:51:53Z</time>
      </trkpt>
      <trkpt lat="49.00875" lon="1.13435">
        <ele>129.5</ele>
        <time>2015-07-09T17:51:55Z</time>
      </trkpt>
      <trkpt lat="49.00884" lon="1.1343">
        <ele>129.5</ele>
        <time>2015-07-09T17:51:57Z</time>
      </trkpt>
      <trkpt lat="49.00892" lon="1.1342">
        <ele>129.5</ele>
        <time>2015-07-09T17:51:59Z</time>
      </trkpt>
      <trkpt lat="49.00902" lon="1.1341">
        <ele>129.6</ele>
        <time>2015-07-09T17:52:01Z</time>
      </trkpt>
      <trkpt lat="49.00911" lon="1.13399">
        <ele>129.6</ele>
        <time>2015-07-09T17:52:03Z</time>
      </trkpt>
      <trkpt lat="49.00919" lon="1.13387">
        <ele>129.6</ele>
        <time>2015-07-09T17:52:05Z</time>
      </trkpt>
      <trkpt lat="49.00929" lon="1.13375">
        <ele>129.6</ele>
        <time>2015-07-09T17:52:07Z</time>
      </trkpt>
      <trkpt lat="49.00938" lon="1.13365">
        <ele>129.6</ele>
        <time>2015-07-09T17:52:09Z</time>
      </trkpt>
      <trkpt lat="49.00946" lon="1.13354">
        <ele>129.6</ele>
        <time>2015-07-09T17:52:11Z</time>
      </trkpt>
      <trkpt lat="49.00954" lon="1.13345">
        <ele>129.6</ele>
        <time>2015-07-09T17:52:13Z</time>
      </trkpt>
      <trkpt lat="49.00961" lon="1.13335">
        <ele>129.6</ele>
        <time>2015-07-09T17:52:15Z</time>
      </trkpt>
      <trkpt lat="49.00967" lon="1.13323">
        <ele>129.6</ele>
        <time>2015-07-09T17:52:17Z</time>
      </trkpt>
      <trkpt lat="49.00974" lon="1.13312">
        <ele>129.6</ele>
        <time>2015-07-09T17:52:19Z</time>
      </trkpt>
      <trkpt lat="49.00982" lon="1.13299">
        <ele>129.5</ele>
        <time>2015-07-09T17:52:21Z</time>
      </trkpt>
      <trkpt lat="49.00989" lon="1.13289">
        <ele>129.4</ele>
        <time>2015-07-09T17:52:23Z</time>
      </trkpt>
      <trkpt lat="49.00999" lon="1.13276">
        <ele>129.2</ele>
        <time>2015-07-09T17:52:25Z</time>
      </trkpt>
      <trkpt lat="49.01009" lon="1.13264">
        <ele>129.1</ele>
        <time>2015-07-09T17:52:27Z</time>
      </trkpt>
      <trkpt lat="49.01018" lon="1.1325">
        <ele>129</ele>
        <time>2015-07-09T17:52:29Z</time>
      </trkpt>
      <trkpt lat="49.01029" lon="1.13238">
        <ele>128.8</ele>
        <time>2015-07-09T17:52:31Z</time>
      </trkpt>
      <trkpt lat="49.01037" lon="1.13225">
        <ele>128.7</ele>
        <time>2015-07-09T17:52:33Z</time>
      </trkpt>
      <trkpt lat="49.01046" lon="1.13213">
        <ele>128.6</ele>
        <time>2015-07-09T17:52:35Z</time>
      </trkpt>
      <trkpt lat="49.01056" lon="1.132">
        <ele>128.4</ele>
        <time>2015-07-09T17:52:37Z</time>
      </trkpt>
      <trkpt lat="49.01065" lon="1.13187">
        <ele>128.3</ele>
        <time>2015-07-09T17:52:39Z</time>
      </trkpt>
      <trkpt lat="49.01076" lon="1.13173">
        <ele>128</ele>
        <time>2015-07-09T17:52:41Z</time>
      </trkpt>
      <trkpt lat="49.01086" lon="1.13158">
        <ele>127.7</ele>
        <time>2015-07-09T17:52:43Z</time>
      </trkpt>
      <trkpt lat="49.01093" lon="1.13149">
        <ele>127.5</ele>
        <time>2015-07-09T17:52:44Z</time>
      </trkpt>
      <trkpt lat="49.01103" lon="1.13131">
        <ele>127.1</ele>
        <time>2015-07-09T17:52:46Z</time>
      </trkpt>
      <trkpt lat="49.01116" lon="1.13115">
        <ele>126.8</ele>
        <time>2015-07-09T17:52:48Z</time>
      </trkpt>
      <trkpt lat="49.01123" lon="1.13106">
        <ele>126.6</ele>
        <time>2015-07-09T17:52:49Z</time>
      </trkpt>
      <trkpt lat="49.01135" lon="1.13093">
        <ele>126.2</ele>
        <time>2015-07-09T17:52:51Z</time>
      </trkpt>
      <trkpt lat="49.01144" lon="1.13082">
        <ele>125.9</ele>
        <time>2015-07-09T17:52:53Z</time>
      </trkpt>
      <trkpt lat="49.0115" lon="1.13071">
        <ele>125.7</ele>
        <time>2015-07-09T17:52:54Z</time>
      </trkpt>
      <trkpt lat="49.01162" lon="1.13056">
        <ele>125.5</ele>
        <time>2015-07-09T17:52:56Z</time>
      </trkpt>
      <trkpt lat="49.01168" lon="1.13047">
        <ele>125.4</ele>
        <time>2015-07-09T17:52:57Z</time>
      </trkpt>
      <trkpt lat="49.0118" lon="1.13032">
        <ele>125.1</ele>
        <time>2015-07-09T17:52:59Z</time>
      </trkpt>
      <trkpt lat="49.01189" lon="1.13019">
        <ele>124.8</ele>
        <time>2015-07-09T17:53:01Z</time>
      </trkpt>
      <trkpt lat="49.012" lon="1.13005">
        <ele>124.5</ele>
        <time>2015-07-09T17:53:03Z</time>
      </trkpt>
      <trkpt lat="49.0121" lon="1.12992">
        <ele>124.3</ele>
        <time>2015-07-09T17:53:05Z</time>
      </trkpt>
      <trkpt lat="49.01221" lon="1.12976">
        <ele>124.1</ele>
        <time>2015-07-09T17:53:07Z</time>
      </trkpt>
      <trkpt lat="49.01232" lon="1.12959">
        <ele>123.9</ele>
        <time>2015-07-09T17:53:09Z</time>
      </trkpt>
      <trkpt lat="49.01245" lon="1.12942">
        <ele>123.8</ele>
        <time>2015-07-09T17:53:11Z</time>
      </trkpt>
      <trkpt lat="49.01256" lon="1.12925">
        <ele>123.6</ele>
        <time>2015-07-09T17:53:13Z</time>
      </trkpt>
      <trkpt lat="49.01268" lon="1.1291">
        <ele>123.5</ele>
        <time>2015-07-09T17:53:15Z</time>
      </trkpt>
      <trkpt lat="49.01278" lon="1.12896">
        <ele>123.4</ele>
        <time>2015-07-09T17:53:17Z</time>
      </trkpt>
      <trkpt lat="49.0129" lon="1.12881">
        <ele>123.3</ele>
        <time>2015-07-09T17:53:19Z</time>
      </trkpt>
      <trkpt lat="49.01301" lon="1.12869">
        <ele>123.2</ele>
        <time>2015-07-09T17:53:21Z</time>
      </trkpt>
      <trkpt lat="49.01313" lon="1.12854">
        <ele>123.2</ele>
        <time>2015-07-09T17:53:23Z</time>
      </trkpt>
      <trkpt lat="49.01322" lon="1.1284">
        <ele>123.1</ele>
        <time>2015-07-09T17:53:25Z</time>
      </trkpt>
      <trkpt lat="49.01333" lon="1.12827">
        <ele>123</ele>
        <time>2015-07-09T17:53:27Z</time>
      </trkpt>
      <trkpt lat="49.01343" lon="1.12815">
        <ele>122.9</ele>
        <time>2015-07-09T17:53:29Z</time>
      </trkpt>
      <trkpt lat="49.0135" lon="1.12806">
        <ele>122.9</ele>
        <time>2015-07-09T17:53:30Z</time>
      </trkpt>
      <trkpt lat="49.01361" lon="1.1279">
        <ele>122.5</ele>
        <time>2015-07-09T17:53:32Z</time>
      </trkpt>
      <trkpt lat="49.01372" lon="1.12776">
        <ele>122</ele>
        <time>2015-07-09T17:53:34Z</time>
      </trkpt>
      <trkpt lat="49.01382" lon="1.12764">
        <ele>121.2</ele>
        <time>2015-07-09T17:53:36Z</time>
      </trkpt>
      <trkpt lat="49.01391" lon="1.12757">
        <ele>120.3</ele>
        <time>2015-07-09T17:53:38Z</time>
      </trkpt>
      <trkpt lat="49.014" lon="1.12762">
        <ele>118.9</ele>
        <time>2015-07-09T17:53:41Z</time>
      </trkpt>
      <trkpt lat="49.01404" lon="1.12775">
        <ele>117.6</ele>
        <time>2015-07-09T17:53:44Z</time>
      </trkpt>
      <trkpt lat="49.0141" lon="1.12787">
        <ele>116.5</ele>
        <time>2015-07-09T17:53:47Z</time>
      </trkpt>
      <trkpt lat="49.01417" lon="1.12802">
        <ele>115.5</ele>
        <time>2015-07-09T17:53:50Z</time>
      </trkpt>
      <trkpt lat="49.01421" lon="1.12815">
        <ele>114.4</ele>
        <time>2015-07-09T17:53:53Z</time>
      </trkpt>
      <trkpt lat="49.01426" lon="1.12827">
        <ele>113.4</ele>
        <time>2015-07-09T17:53:56Z</time>
      </trkpt>
      <trkpt lat="49.0143" lon="1.12843">
        <ele>112.5</ele>
        <time>2015-07-09T17:53:59Z</time>
      </trkpt>
      <trkpt lat="49.01435" lon="1.12858">
        <ele>111.5</ele>
        <time>2015-07-09T17:54:02Z</time>
      </trkpt>
      <trkpt lat="49.0144" lon="1.12875">
        <ele>110.5</ele>
        <time>2015-07-09T17:54:05Z</time>
      </trkpt>
      <trkpt lat="49.01444" lon="1.12892">
        <ele>108.9</ele>
        <time>2015-07-09T17:54:09Z</time>
      </trkpt>
      <trkpt lat="49.01448" lon="1.12907">
        <ele>107.5</ele>
        <time>2015-07-09T17:54:13Z</time>
      </trkpt>
      <trkpt lat="49.01448" lon="1.1292">
        <ele>106.1</ele>
        <time>2015-07-09T17:54:17Z</time>
      </trkpt>
      <trkpt lat="49.01451" lon="1.12933">
        <ele>104.3</ele>
        <time>2015-07-09T17:54:23Z</time>
      </trkpt>
      <trkpt lat="49.01451" lon="1.12947">
        <ele>100.9</ele>
        <time>2015-07-09T17:54:34Z</time>
      </trkpt>
      <trkpt lat="49.01452" lon="1.12961">
        <ele>98.7</ele>
        <time>2015-07-09T17:54:41Z</time>
      </trkpt>
      <trkpt lat="49.01444" lon="1.12969">
        <ele>94.1</ele>
        <time>2015-07-09T17:55:29Z</time>
      </trkpt>
      <trkpt lat="49.01434" lon="1.1297">
        <ele>94.1</ele>
        <time>2015-07-09T17:55:40Z</time>
      </trkpt>
      <trkpt lat="49.01424" lon="1.1297">
        <ele>94.8</ele>
        <time>2015-07-09T17:55:46Z</time>
      </trkpt>
      <trkpt lat="49.01413" lon="1.12969">
        <ele>95.6</ele>
        <time>2015-07-09T17:55:52Z</time>
      </trkpt>
      <trkpt lat="49.01403" lon="1.12968">
        <ele>96.4</ele>
        <time>2015-07-09T17:55:57Z</time>
      </trkpt>
      <trkpt lat="49.01393" lon="1.12967">
        <ele>97.3</ele>
        <time>2015-07-09T17:56:01Z</time>
      </trkpt>
      <trkpt lat="49.01384" lon="1.12966">
        <ele>98.3</ele>
        <time>2015-07-09T17:56:06Z</time>
      </trkpt>
      <trkpt lat="49.01374" lon="1.12967">
        <ele>99.6</ele>
        <time>2015-07-09T17:56:12Z</time>
      </trkpt>
      <trkpt lat="49.01365" lon="1.12966">
        <ele>100.9</ele>
        <time>2015-07-09T17:56:18Z</time>
      </trkpt>
      <trkpt lat="49.01354" lon="1.12965">
        <ele>102.1</ele>
        <time>2015-07-09T17:56:24Z</time>
      </trkpt>
      <trkpt lat="49.01345" lon="1.12964">
        <ele>103.1</ele>
        <time>2015-07-09T17:56:29Z</time>
      </trkpt>
      <trkpt lat="49.01334" lon="1.12964">
        <ele>104.6</ele>
        <time>2015-07-09T17:56:36Z</time>
      </trkpt>
      <trkpt lat="49.01325" lon="1.12972">
        <ele>106.1</ele>
        <time>2015-07-09T17:56:43Z</time>
      </trkpt>
      <trkpt lat="49.01317" lon="1.12978">
        <ele>107.3</ele>
        <time>2015-07-09T17:56:49Z</time>
      </trkpt>
      <trkpt lat="49.01308" lon="1.12985">
        <ele>108.7</ele>
        <time>2015-07-09T17:56:56Z</time>
      </trkpt>
      <trkpt lat="49.01299" lon="1.12993">
        <ele>110.2</ele>
        <time>2015-07-09T17:57:03Z</time>
      </trkpt>
      <trkpt lat="49.01292" lon="1.13003">
        <ele>111.6</ele>
        <time>2015-07-09T17:57:09Z</time>
      </trkpt>
      <trkpt lat="49.01284" lon="1.13012">
        <ele>113</ele>
        <time>2015-07-09T17:57:16Z</time>
      </trkpt>
      <trkpt lat="49.01274" lon="1.13003">
        <ele>114.8</ele>
        <time>2015-07-09T17:57:25Z</time>
      </trkpt>
      <trkpt lat="49.0127" lon="1.12988">
        <ele>115.9</ele>
        <time>2015-07-09T17:57:30Z</time>
      </trkpt>
      <trkpt lat="49.01265" lon="1.12975">
        <ele>116.9</ele>
        <time>2015-07-09T17:57:34Z</time>
      </trkpt>
      <trkpt lat="49.01261" lon="1.12962">
        <ele>118.1</ele>
        <time>2015-07-09T17:57:39Z</time>
      </trkpt>
      <trkpt lat="49.01252" lon="1.12959">
        <ele>118.9</ele>
        <time>2015-07-09T17:57:43Z</time>
      </trkpt>
      <trkpt lat="49.01244" lon="1.1297">
        <ele>119.7</ele>
        <time>2015-07-09T17:57:48Z</time>
      </trkpt>
      <trkpt lat="49.01237" lon="1.12981">
        <ele>120.3</ele>
        <time>2015-07-09T17:57:52Z</time>
      </trkpt>
      <trkpt lat="49.0123" lon="1.1299">
        <ele>120.6</ele>
        <time>2015-07-09T17:57:55Z</time>
      </trkpt>
      <trkpt lat="49.01223" lon="1.13">
        <ele>120.8</ele>
        <time>2015-07-09T17:57:58Z</time>
      </trkpt>
      <trkpt lat="49.01216" lon="1.13011">
        <ele>121.1</ele>
        <time>2015-07-09T17:58:01Z</time>
      </trkpt>
      <trkpt lat="49.01209" lon="1.13022">
        <ele>121.2</ele>
        <time>2015-07-09T17:58:04Z</time>
      </trkpt>
      <trkpt lat="49.012" lon="1.13034">
        <ele>121.4</ele>
        <time>2015-07-09T17:58:07Z</time>
      </trkpt>
      <trkpt lat="49.01192" lon="1.13046">
        <ele>121.5</ele>
        <time>2015-07-09T17:58:10Z</time>
      </trkpt>
      <trkpt lat="49.01184" lon="1.13055">
        <ele>121.7</ele>
        <time>2015-07-09T17:58:13Z</time>
      </trkpt>
      <trkpt lat="49.01174" lon="1.13065">
        <ele>121.8</ele>
        <time>2015-07-09T17:58:16Z</time>
      </trkpt>
      <trkpt lat="49.01164" lon="1.13077">
        <ele>122</ele>
        <time>2015-07-09T17:58:19Z</time>
      </trkpt>
      <trkpt lat="49.01154" lon="1.13089">
        <ele>122.1</ele>
        <time>2015-07-09T17:58:22Z</time>
      </trkpt>
      <trkpt lat="49.01147" lon="1.13099">
        <ele>122.2</ele>
        <time>2015-07-09T17:58:25Z</time>
      </trkpt>
      <trkpt lat="49.01149" lon="1.13114">
        <ele>122.2</ele>
        <time>2015-07-09T17:58:32Z</time>
      </trkpt>
      <trkpt lat="49.01154" lon="1.13127">
        <ele>122.2</ele>
        <time>2015-07-09T17:58:38Z</time>
      </trkpt>
      <trkpt lat="49.01158" lon="1.13142">
        <ele>122.2</ele>
        <time>2015-07-09T17:58:42Z</time>
      </trkpt>
      <trkpt lat="49.01165" lon="1.13154">
        <ele>122.2</ele>
        <time>2015-07-09T17:58:46Z</time>
      </trkpt>
      <trkpt lat="49.01169" lon="1.13167">
        <ele>122.3</ele>
        <time>2015-07-09T17:58:50Z</time>
      </trkpt>
      <trkpt lat="49.01169" lon="1.13183">
        <ele>122.3</ele>
        <time>2015-07-09T17:58:56Z</time>
      </trkpt>
      <trkpt lat="49.0117" lon="1.13196">
        <ele>122.4</ele>
        <time>2015-07-09T17:59:03Z</time>
      </trkpt>
      <trkpt lat="49.01166" lon="1.1321">
        <ele>122.9</ele>
        <time>2015-07-09T17:59:52Z</time>
      </trkpt>
      <trkpt lat="49.01165" lon="1.13224">
        <ele>123</ele>
        <time>2015-07-09T18:00:06Z</time>
      </trkpt>
      <trkpt lat="49.01162" lon="1.13238">
        <ele>123</ele>
        <time>2015-07-09T18:00:29Z</time>
      </trkpt>
      <trkpt lat="49.01164" lon="1.13252">
        <ele>123</ele>
        <time>2015-07-09T18:00:45Z</time>
      </trkpt>
      <trkpt lat="49.01157" lon="1.13262">
        <ele>123</ele>
        <time>2015-07-09T18:01:03Z</time>
      </trkpt>
      <trkpt lat="49.01161" lon="1.13275">
        <ele>123</ele>
        <time>2015-07-09T18:01:16Z</time>
      </trkpt>
      <trkpt lat="49.01171" lon="1.13269">
        <ele>123.1</ele>
        <time>2015-07-09T18:01:38Z</time>
      </trkpt>
      <trkpt lat="49.01179" lon="1.13276">
        <ele>123.1</ele>
        <time>2015-07-09T18:01:50Z</time>
      </trkpt>
      <trkpt lat="49.01184" lon="1.13288">
        <ele>123.1</ele>
        <time>2015-07-09T18:01:54Z</time>
      </trkpt>
      <trkpt lat="49.01188" lon="1.13301">
        <ele>123.1</ele>
        <time>2015-07-09T18:01:57Z</time>
      </trkpt>
      <trkpt lat="49.01192" lon="1.13315">
        <ele>123.1</ele>
        <time>2015-07-09T18:02:01Z</time>
      </trkpt>
      <trkpt lat="49.01195" lon="1.13329">
        <ele>123.1</ele>
        <time>2015-07-09T18:02:04Z</time>
      </trkpt>
      <trkpt lat="49.01198" lon="1.13343">
        <ele>123.1</ele>
        <time>2015-07-09T18:02:07Z</time>
      </trkpt>
      <trkpt lat="49.01201" lon="1.1336">
        <ele>123.2</ele>
        <time>2015-07-09T18:02:11Z</time>
      </trkpt>
      <trkpt lat="49.01205" lon="1.13378">
        <ele>123.2</ele>
        <time>2015-07-09T18:02:14Z</time>
      </trkpt>
      <trkpt lat="49.01207" lon="1.13395">
        <ele>123.3</ele>
        <time>2015-07-09T18:02:17Z</time>
      </trkpt>
      <trkpt lat="49.0121" lon="1.13412">
        <ele>123.3</ele>
        <time>2015-07-09T18:02:21Z</time>
      </trkpt>
      <trkpt lat="49.01212" lon="1.13428">
        <ele>123.3</ele>
        <time>2015-07-09T18:02:25Z</time>
      </trkpt>
      <trkpt lat="49.01202" lon="1.13424">
        <ele>123.4</ele>
        <time>2015-07-09T18:02:32Z</time>
      </trkpt>
      <trkpt lat="49.01192" lon="1.13421">
        <ele>123.4</ele>
        <time>2015-07-09T18:02:35Z</time>
      </trkpt>
      <trkpt lat="49.01181" lon="1.13416">
        <ele>123.5</ele>
        <time>2015-07-09T18:02:38Z</time>
      </trkpt>
      <trkpt lat="49.01169" lon="1.1341">
        <ele>123.5</ele>
        <time>2015-07-09T18:02:41Z</time>
      </trkpt>
      <trkpt lat="49.01159" lon="1.13406">
        <ele>123.7</ele>
        <time>2015-07-09T18:02:44Z</time>
      </trkpt>
      <trkpt lat="49.01149" lon="1.13403">
        <ele>123.9</ele>
        <time>2015-07-09T18:02:47Z</time>
      </trkpt>
      <trkpt lat="49.01137" lon="1.13401">
        <ele>124.1</ele>
        <time>2015-07-09T18:02:50Z</time>
      </trkpt>
      <trkpt lat="49.01127" lon="1.134">
        <ele>124.3</ele>
        <time>2015-07-09T18:02:53Z</time>
      </trkpt>
      <trkpt lat="49.01118" lon="1.13412">
        <ele>124.6</ele>
        <time>2015-07-09T18:02:56Z</time>
      </trkpt>
      <trkpt lat="49.01111" lon="1.13428">
        <ele>124.9</ele>
        <time>2015-07-09T18:02:59Z</time>
      </trkpt>
      <trkpt lat="49.01106" lon="1.13445">
        <ele>125.1</ele>
        <time>2015-07-09T18:03:02Z</time>
      </trkpt>
      <trkpt lat="49.01102" lon="1.13462">
        <ele>125.4</ele>
        <time>2015-07-09T18:03:05Z</time>
      </trkpt>
      <trkpt lat="49.01101" lon="1.13479">
        <ele>125.6</ele>
        <time>2015-07-09T18:03:08Z</time>
      </trkpt>
      <trkpt lat="49.01095" lon="1.13493">
        <ele>125.8</ele>
        <time>2015-07-09T18:03:11Z</time>
      </trkpt>
      <trkpt lat="49.01086" lon="1.13508">
        <ele>126</ele>
        <time>2015-07-09T18:03:14Z</time>
      </trkpt>
      <trkpt lat="49.01081" lon="1.13523">
        <ele>126.1</ele>
        <time>2015-07-09T18:03:17Z</time>
      </trkpt>
      <trkpt lat="49.01074" lon="1.13538">
        <ele>126.2</ele>
        <time>2015-07-09T18:03:20Z</time>
      </trkpt>
      <trkpt lat="49.01068" lon="1.13554">
        <ele>126.3</ele>
        <time>2015-07-09T18:03:23Z</time>
      </trkpt>
      <trkpt lat="49.01061" lon="1.13571">
        <ele>126.4</ele>
        <time>2015-07-09T18:03:26Z</time>
      </trkpt>
      <trkpt lat="49.01055" lon="1.13584">
        <ele>126.3</ele>
        <time>2015-07-09T18:03:29Z</time>
      </trkpt>
      <trkpt lat="49.01051" lon="1.13599">
        <ele>126.3</ele>
        <time>2015-07-09T18:03:32Z</time>
      </trkpt>
      <trkpt lat="49.01045" lon="1.13611">
        <ele>126.3</ele>
        <time>2015-07-09T18:03:34Z</time>
      </trkpt>
      <trkpt lat="49.01038" lon="1.1362">
        <ele>126.3</ele>
        <time>2015-07-09T18:03:36Z</time>
      </trkpt>
      <trkpt lat="49.01032" lon="1.13633">
        <ele>126.2</ele>
        <time>2015-07-09T18:03:39Z</time>
      </trkpt>
      <trkpt lat="49.01036" lon="1.1365">
        <ele>126.2</ele>
        <time>2015-07-09T18:03:42Z</time>
      </trkpt>
      <trkpt lat="49.0104" lon="1.1367">
        <ele>126.1</ele>
        <time>2015-07-09T18:03:45Z</time>
      </trkpt>
      <trkpt lat="49.01042" lon="1.13684">
        <ele>126.1</ele>
        <time>2015-07-09T18:03:47Z</time>
      </trkpt>
      <trkpt lat="49.01045" lon="1.13699">
        <ele>126.1</ele>
        <time>2015-07-09T18:03:49Z</time>
      </trkpt>
      <trkpt lat="49.01047" lon="1.13713">
        <ele>126.1</ele>
        <time>2015-07-09T18:03:51Z</time>
      </trkpt>
      <trkpt lat="49.01043" lon="1.13725">
        <ele>126</ele>
        <time>2015-07-09T18:03:55Z</time>
      </trkpt>
      <trkpt lat="49.0103" lon="1.13728">
        <ele>125.8</ele>
        <time>2015-07-09T18:03:59Z</time>
      </trkpt>
      <trkpt lat="49.01019" lon="1.13732">
        <ele>125.6</ele>
        <time>2015-07-09T18:04:02Z</time>
      </trkpt>
      <trkpt lat="49.0101" lon="1.13738">
        <ele>125.5</ele>
        <time>2015-07-09T18:04:05Z</time>
      </trkpt>
      <trkpt lat="49.01" lon="1.13739">
        <ele>125.3</ele>
        <time>2015-07-09T18:04:08Z</time>
      </trkpt>
      <trkpt lat="49.00989" lon="1.13741">
        <ele>125.2</ele>
        <time>2015-07-09T18:04:11Z</time>
      </trkpt>
      <trkpt lat="49.00978" lon="1.13745">
        <ele>125.1</ele>
        <time>2015-07-09T18:04:14Z</time>
      </trkpt>
      <trkpt lat="49.00969" lon="1.13751">
        <ele>125.1</ele>
        <time>2015-07-09T18:04:17Z</time>
      </trkpt>
      <trkpt lat="49.0096" lon="1.13754">
        <ele>125</ele>
        <time>2015-07-09T18:04:21Z</time>
      </trkpt>
      <trkpt lat="49.00949" lon="1.13757">
        <ele>124.9</ele>
        <time>2015-07-09T18:04:25Z</time>
      </trkpt>
      <trkpt lat="49.00939" lon="1.13755">
        <ele>124.9</ele>
        <time>2015-07-09T18:04:28Z</time>
      </trkpt>
      <trkpt lat="49.0093" lon="1.13757">
        <ele>124.9</ele>
        <time>2015-07-09T18:04:31Z</time>
      </trkpt>
      <trkpt lat="49.00919" lon="1.13754">
        <ele>124.8</ele>
        <time>2015-07-09T18:04:34Z</time>
      </trkpt>
      <trkpt lat="49.0091" lon="1.1376">
        <ele>124.8</ele>
        <time>2015-07-09T18:04:37Z</time>
      </trkpt>
      <trkpt lat="49.009" lon="1.1377">
        <ele>124.8</ele>
        <time>2015-07-09T18:04:40Z</time>
      </trkpt>
      <trkpt lat="49.00892" lon="1.13781">
        <ele>124.8</ele>
        <time>2015-07-09T18:04:43Z</time>
      </trkpt>
      <trkpt lat="49.00887" lon="1.13793">
        <ele>124.8</ele>
        <time>2015-07-09T18:04:46Z</time>
      </trkpt>
      <trkpt lat="49.0088" lon="1.13809">
        <ele>124.8</ele>
        <time>2015-07-09T18:04:49Z</time>
      </trkpt>
      <trkpt lat="49.00871" lon="1.13819">
        <ele>124.8</ele>
        <time>2015-07-09T18:04:52Z</time>
      </trkpt>
      <trkpt lat="49.0086" lon="1.13823">
        <ele>124.7</ele>
        <time>2015-07-09T18:04:55Z</time>
      </trkpt>
      <trkpt lat="49.00852" lon="1.13828">
        <ele>124.7</ele>
        <time>2015-07-09T18:04:57Z</time>
      </trkpt>
      <trkpt lat="49.0084" lon="1.13837">
        <ele>124.6</ele>
        <time>2015-07-09T18:05:00Z</time>
      </trkpt>
      <trkpt lat="49.00831" lon="1.13843">
        <ele>124.6</ele>
        <time>2015-07-09T18:05:02Z</time>
      </trkpt>
      <trkpt lat="49.00822" lon="1.13848">
        <ele>124.5</ele>
        <time>2015-07-09T18:05:04Z</time>
      </trkpt>
      <trkpt lat="49.0081" lon="1.13854">
        <ele>124.5</ele>
        <time>2015-07-09T18:05:07Z</time>
      </trkpt>
      <trkpt lat="49.008" lon="1.1386">
        <ele>124.4</ele>
        <time>2015-07-09T18:05:09Z</time>
      </trkpt>
      <trkpt lat="49.00791" lon="1.13864">
        <ele>124.2</ele>
        <time>2015-07-09T18:05:11Z</time>
      </trkpt>
      <trkpt lat="49.00781" lon="1.13865">
        <ele>124</ele>
        <time>2015-07-09T18:05:13Z</time>
      </trkpt>
      <trkpt lat="49.00769" lon="1.13867">
        <ele>123.7</ele>
        <time>2015-07-09T18:05:16Z</time>
      </trkpt>
      <trkpt lat="49.00759" lon="1.13865">
        <ele>123.4</ele>
        <time>2015-07-09T18:05:19Z</time>
      </trkpt>
      <trkpt lat="49.00747" lon="1.13868">
        <ele>123.2</ele>
        <time>2015-07-09T18:05:22Z</time>
      </trkpt>
      <trkpt lat="49.00734" lon="1.13868">
        <ele>122.9</ele>
        <time>2015-07-09T18:05:25Z</time>
      </trkpt>
      <trkpt lat="49.00725" lon="1.13868">
        <ele>122.6</ele>
        <time>2015-07-09T18:05:28Z</time>
      </trkpt>
      <trkpt lat="49.00715" lon="1.13866">
        <ele>122.3</ele>
        <time>2015-07-09T18:05:31Z</time>
      </trkpt>
      <trkpt lat="49.00702" lon="1.13863">
        <ele>121.8</ele>
        <time>2015-07-09T18:05:36Z</time>
      </trkpt>
      <trkpt lat="49.00691" lon="1.13862">
        <ele>121.3</ele>
        <time>2015-07-09T18:05:40Z</time>
      </trkpt>
      <trkpt lat="49.00681" lon="1.13863">
        <ele>120.9</ele>
        <time>2015-07-09T18:05:44Z</time>
      </trkpt>
      <trkpt lat="49.0067" lon="1.13862">
        <ele>120.7</ele>
        <time>2015-07-09T18:05:47Z</time>
      </trkpt>
      <trkpt lat="49.00658" lon="1.13864">
        <ele>120.7</ele>
        <time>2015-07-09T18:05:51Z</time>
      </trkpt>
      <trkpt lat="49.00649" lon="1.13867">
        <ele>120.7</ele>
        <time>2015-07-09T18:05:54Z</time>
      </trkpt>
      <trkpt lat="49.00639" lon="1.13868">
        <ele>120.8</ele>
        <time>2015-07-09T18:05:57Z</time>
      </trkpt>
      <trkpt lat="49.00626" lon="1.13867">
        <ele>121</ele>
        <time>2015-07-09T18:06:00Z</time>
      </trkpt>
      <trkpt lat="49.00613" lon="1.13863">
        <ele>121.2</ele>
        <time>2015-07-09T18:06:03Z</time>
      </trkpt>
      <trkpt lat="49.00602" lon="1.13869">
        <ele>121.5</ele>
        <time>2015-07-09T18:06:06Z</time>
      </trkpt>
      <trkpt lat="49.00593" lon="1.1388">
        <ele>121.7</ele>
        <time>2015-07-09T18:06:09Z</time>
      </trkpt>
      <trkpt lat="49.00582" lon="1.13879">
        <ele>122</ele>
        <time>2015-07-09T18:06:12Z</time>
      </trkpt>
      <trkpt lat="49.00573" lon="1.13871">
        <ele>122.2</ele>
        <time>2015-07-09T18:06:15Z</time>
      </trkpt>
      <trkpt lat="49.00565" lon="1.13864">
        <ele>122.4</ele>
        <time>2015-07-09T18:06:18Z</time>
      </trkpt>
      <trkpt lat="49.00555" lon="1.13857">
        <ele>122.8</ele>
        <time>2015-07-09T18:06:21Z</time>
      </trkpt>
      <trkpt lat="49.00545" lon="1.13849">
        <ele>123.1</ele>
        <time>2015-07-09T18:06:24Z</time>
      </trkpt>
      <trkpt lat="49.00535" lon="1.13834">
        <ele>123.4</ele>
        <time>2015-07-09T18:06:27Z</time>
      </trkpt>
      <trkpt lat="49.00525" lon="1.1382">
        <ele>123.6</ele>
        <time>2015-07-09T18:06:30Z</time>
      </trkpt>
      <trkpt lat="49.00517" lon="1.13811">
        <ele>123.8</ele>
        <time>2015-07-09T18:06:32Z</time>
      </trkpt>
      <trkpt lat="49.00511" lon="1.13795">
        <ele>124.1</ele>
        <time>2015-07-09T18:06:35Z</time>
      </trkpt>
      <trkpt lat="49.00503" lon="1.13781">
        <ele>124.3</ele>
        <time>2015-07-09T18:06:38Z</time>
      </trkpt>
      <trkpt lat="49.00497" lon="1.13771">
        <ele>124.4</ele>
        <time>2015-07-09T18:06:40Z</time>
      </trkpt>
      <trkpt lat="49.00492" lon="1.13755">
        <ele>124.7</ele>
        <time>2015-07-09T18:06:43Z</time>
      </trkpt>
      <trkpt lat="49.00487" lon="1.13743">
        <ele>124.8</ele>
        <time>2015-07-09T18:06:45Z</time>
      </trkpt>
      <trkpt lat="49.00483" lon="1.13731">
        <ele>125</ele>
        <time>2015-07-09T18:06:47Z</time>
      </trkpt>
      <trkpt lat="49.00477" lon="1.1372">
        <ele>125.1</ele>
        <time>2015-07-09T18:06:49Z</time>
      </trkpt>
      <trkpt lat="49.00472" lon="1.13709">
        <ele>125.3</ele>
        <time>2015-07-09T18:06:51Z</time>
      </trkpt>
      <trkpt lat="49.00468" lon="1.13689">
        <ele>125.5</ele>
        <time>2015-07-09T18:06:54Z</time>
      </trkpt>
      <trkpt lat="49.00464" lon="1.1367">
        <ele>125.7</ele>
        <time>2015-07-09T18:06:57Z</time>
      </trkpt>
      <trkpt lat="49.0046" lon="1.13655">
        <ele>125.8</ele>
        <time>2015-07-09T18:06:59Z</time>
      </trkpt>
      <trkpt lat="49.00455" lon="1.13637">
        <ele>126</ele>
        <time>2015-07-09T18:07:02Z</time>
      </trkpt>
      <trkpt lat="49.00449" lon="1.13619">
        <ele>126.3</ele>
        <time>2015-07-09T18:07:05Z</time>
      </trkpt>
      <trkpt lat="49.00444" lon="1.13608">
        <ele>126.4</ele>
        <time>2015-07-09T18:07:07Z</time>
      </trkpt>
      <trkpt lat="49.00438" lon="1.1359">
        <ele>126.6</ele>
        <time>2015-07-09T18:07:10Z</time>
      </trkpt>
      <trkpt lat="49.00434" lon="1.13573">
        <ele>126.8</ele>
        <time>2015-07-09T18:07:13Z</time>
      </trkpt>
      <trkpt lat="49.00432" lon="1.13554">
        <ele>126.9</ele>
        <time>2015-07-09T18:07:16Z</time>
      </trkpt>
      <trkpt lat="49.00428" lon="1.13541">
        <ele>127.1</ele>
        <time>2015-07-09T18:07:18Z</time>
      </trkpt>
      <trkpt lat="49.00424" lon="1.13523">
        <ele>127.2</ele>
        <time>2015-07-09T18:07:21Z</time>
      </trkpt>
      <trkpt lat="49.00418" lon="1.13504">
        <ele>127.6</ele>
        <time>2015-07-09T18:07:24Z</time>
      </trkpt>
      <trkpt lat="49.00414" lon="1.1349">
        <ele>127.7</ele>
        <time>2015-07-09T18:07:26Z</time>
      </trkpt>
      <trkpt lat="49.00411" lon="1.13476">
        <ele>127.9</ele>
        <time>2015-07-09T18:07:28Z</time>
      </trkpt>
      <trkpt lat="49.00406" lon="1.13459">
        <ele>128.1</ele>
        <time>2015-07-09T18:07:31Z</time>
      </trkpt>
      <trkpt lat="49.00403" lon="1.13445">
        <ele>128.2</ele>
        <time>2015-07-09T18:07:33Z</time>
      </trkpt>
      <trkpt lat="49.00399" lon="1.13431">
        <ele>128.3</ele>
        <time>2015-07-09T18:07:35Z</time>
      </trkpt>
      <trkpt lat="49.00396" lon="1.13417">
        <ele>128.4</ele>
        <time>2015-07-09T18:07:37Z</time>
      </trkpt>
      <trkpt lat="49.00393" lon="1.13403">
        <ele>128.6</ele>
        <time>2015-07-09T18:07:39Z</time>
      </trkpt>
      <trkpt lat="49.0039" lon="1.13388">
        <ele>128.9</ele>
        <time>2015-07-09T18:07:41Z</time>
      </trkpt>
      <trkpt lat="49.00385" lon="1.13374">
        <ele>129</ele>
        <time>2015-07-09T18:07:43Z</time>
      </trkpt>
      <trkpt lat="49.00382" lon="1.1336">
        <ele>129.2</ele>
        <time>2015-07-09T18:07:45Z</time>
      </trkpt>
      <trkpt lat="49.00378" lon="1.13346">
        <ele>129.4</ele>
        <time>2015-07-09T18:07:47Z</time>
      </trkpt>
      <trkpt lat="49.00376" lon="1.13333">
        <ele>129.5</ele>
        <time>2015-07-09T18:07:49Z</time>
      </trkpt>
      <trkpt lat="49.00372" lon="1.1332">
        <ele>129.8</ele>
        <time>2015-07-09T18:07:51Z</time>
      </trkpt>
      <trkpt lat="49.0037" lon="1.13304">
        <ele>130</ele>
        <time>2015-07-09T18:07:53Z</time>
      </trkpt>
      <trkpt lat="49.00366" lon="1.13288">
        <ele>130.2</ele>
        <time>2015-07-09T18:07:55Z</time>
      </trkpt>
      <trkpt lat="49.00361" lon="1.13269">
        <ele>130.4</ele>
        <time>2015-07-09T18:07:58Z</time>
      </trkpt>
      <trkpt lat="49.00358" lon="1.13255">
        <ele>130.5</ele>
        <time>2015-07-09T18:08:00Z</time>
      </trkpt>
      <trkpt lat="49.00354" lon="1.13242">
        <ele>130.6</ele>
        <time>2015-07-09T18:08:02Z</time>
      </trkpt>
      <trkpt lat="49.00348" lon="1.13229">
        <ele>130.7</ele>
        <time>2015-07-09T18:08:04Z</time>
      </trkpt>
      <trkpt lat="49.00344" lon="1.13214">
        <ele>130.8</ele>
        <time>2015-07-09T18:08:06Z</time>
      </trkpt>
      <trkpt lat="49.00339" lon="1.13195">
        <ele>131</ele>
        <time>2015-07-09T18:08:09Z</time>
      </trkpt>
      <trkpt lat="49.00335" lon="1.1318">
        <ele>131.1</ele>
        <time>2015-07-09T18:08:11Z</time>
      </trkpt>
      <trkpt lat="49.00334" lon="1.13165">
        <ele>131.2</ele>
        <time>2015-07-09T18:08:13Z</time>
      </trkpt>
      <trkpt lat="49.00331" lon="1.1315">
        <ele>131.3</ele>
        <time>2015-07-09T18:08:15Z</time>
      </trkpt>
      <trkpt lat="49.00328" lon="1.13135">
        <ele>131.3</ele>
        <time>2015-07-09T18:08:17Z</time>
      </trkpt>
      <trkpt lat="49.00326" lon="1.13119">
        <ele>131.4</ele>
        <time>2015-07-09T18:08:19Z</time>
      </trkpt>
      <trkpt lat="49.00323" lon="1.13105">
        <ele>131.4</ele>
        <time>2015-07-09T18:08:21Z</time>
      </trkpt>
      <trkpt lat="49.00317" lon="1.13088">
        <ele>131.5</ele>
        <time>2015-07-09T18:08:24Z</time>
      </trkpt>
      <trkpt lat="49.0031" lon="1.13077">
        <ele>131.6</ele>
        <time>2015-07-09T18:08:27Z</time>
      </trkpt>
      <trkpt lat="49.003" lon="1.13076">
        <ele>131.6</ele>
        <time>2015-07-09T18:08:31Z</time>
      </trkpt>
      <trkpt lat="49.00288" lon="1.13072">
        <ele>131.7</ele>
        <time>2015-07-09T18:08:35Z</time>
      </trkpt>
      <trkpt lat="49.00276" lon="1.13068">
        <ele>131.8</ele>
        <time>2015-07-09T18:08:39Z</time>
      </trkpt>
      <trkpt lat="49.00267" lon="1.13066">
        <ele>131.9</ele>
        <time>2015-07-09T18:08:42Z</time>
      </trkpt>
      <trkpt lat="49.00257" lon="1.13056">
        <ele>132.2</ele>
        <time>2015-07-09T18:08:46Z</time>
      </trkpt>
      <trkpt lat="49.00247" lon="1.13052">
        <ele>132.4</ele>
        <time>2015-07-09T18:08:50Z</time>
      </trkpt>
      <trkpt lat="49.00237" lon="1.13048">
        <ele>132.7</ele>
        <time>2015-07-09T18:08:55Z</time>
      </trkpt>
      <trkpt lat="49.00231" lon="1.13036">
        <ele>132.9</ele>
        <time>2015-07-09T18:09:00Z</time>
      </trkpt>
      <trkpt lat="49.00221" lon="1.13031">
        <ele>133.1</ele>
        <time>2015-07-09T18:09:04Z</time>
      </trkpt>
      <trkpt lat="49.00215" lon="1.13019">
        <ele>133.4</ele>
        <time>2015-07-09T18:09:09Z</time>
      </trkpt>
      <trkpt lat="49.00214" lon="1.13003">
        <ele>133.7</ele>
        <time>2015-07-09T18:09:17Z</time>
      </trkpt>
      <trkpt lat="49.00214" lon="1.12997">
        <ele>134.5</ele>
        <time>2015-07-09T18:10:45Z</time>
      </trkpt>
    </trkseg>
  </trk>
</gpx>